[[{"header":{"parameterUnit":"m.s-1","parameterCategory":1,"la1":30.6,"la2":29.2853,"lo1":-89.7004,"lo2":-87.6739,"dy":0.0162,"dx":0.0183,"nx":112,"ny":82,"refTime":"2023-08-12T12:00:00:Z","depth":0,"parameterNumber":2,"parameterNumberName":"U-component_of_WINDS"},"data":[0.0,0.0,0.0,0.0,0.0,0.0,0.0,0.0,0.0,0.0,0.0,0.0,0.0,0.0,0.0,0.0,0.0,0.0,0.0,0.0,0.0,0.0,0.0,0.0,0.0,0.0,0.0,0.0,0.0,0.0,0.0,0.0,0.0,0.0,0.0,0.0,0.0,0.0,0.0,0.0,0.0,0.0,0.0,0.0,0.0,0.0,0.0,0.0,0.0,0.0,0.0,0.0,0.0,0.0,0.0,0.0,0.0,0.0,0.0,0.0,0.0,0.0,0.0,0.0,0.0,0.0,0.0,0.0,0.0,0.0,0.0,0.0,0.0,0.0,0.0,0.0,0.0,0.0,0.0,0.0,0.0,0.0,0.0,0.0,0.0,0.0,0.0,0.0,0.0,0.0,-4.5586,-4.5586,-4.5532,-4.54,-4.5213,-4.4967,-4.4621,-4.4121,0.0,0.0,0.0,0.0,0.0,0.0,0.0,0.0,0.0,0.0,0.0,0.0,0.0,0.0,0.0,0.0,0.0,0.0,0.0,0.0,0.0,0.0,0.0,0.0,0.0,0.0,0.0,0.0,0.0,0.0,0.0,0.0,0.0,0.0,0.0,0.0,0.0,0.0,0.0,0.0,0.0,0.0,0.0,0.0,0.0,0.0,0.0,0.0,0.0,0.0,0.0,0.0,0.0,0.0,0.0,0.0,0.0,0.0,0.0,0.0,0.0,0.0,0.0,0.0,0.0,0.0,0.0,0.0,0.0,0.0,0.0,0.0,0.0,0.0,0.0,0.0,0.0,0.0,0.0,0.0,0.0,0.0,0.0,0.0,0.0,0.0,0.0,0.0,0.0,0.0,0.0,0.0,0.0,0.0,0.0,0.0,0.0,0.0,0.0,0.0,0.0,0.0,0.0,0.0,-4.5586,-4.5586,-4.5496,-4.5359,-4.5213,-4.4764,-4.4393,-4.4121,0.0,0.0,0.0,0.0,0.0,0.0,0.0,0.0,0.0,0.0,0.0,0.0,0.0,0.0,0.0,0.0,0.0,0.0,0.0,0.0,0.0,0.0,0.0,0.0,0.0,0.0,0.0,0.0,0.0,0.0,0.0,0.0,0.0,0.0,0.0,0.0,0.0,0.0,0.0,0.0,0.0,0.0,0.0,0.0,0.0,0.0,0.0,0.0,0.0,0.0,0.0,0.0,0.0,0.0,0.0,0.0,0.0,0.0,0.0,0.0,0.0,0.0,0.0,0.0,0.0,0.0,0.0,0.0,0.0,0.0,0.0,0.0,0.0,0.0,0.0,0.0,0.0,0.0,0.0,0.0,0.0,0.0,0.0,0.0,0.0,0.0,0.0,0.0,0.0,0.0,0.0,0.0,0.0,0.0,0.0,0.0,0.0,0.0,0.0,0.0,0.0,0.0,0.0,-4.5586,-4.5586,-4.5586,-4.5477,-4.5338,-4.517,-4.4688,-4.4289,-4.4048,-4.3846,0.0,0.0,0.0,0.0,0.0,0.0,0.0,0.0,0.0,0.0,0.0,0.0,0.0,0.0,0.0,0.0,0.0,0.0,0.0,0.0,0.0,0.0,0.0,0.0,0.0,0.0,0.0,0.0,0.0,0.0,0.0,0.0,0.0,0.0,0.0,0.0,0.0,0.0,0.0,0.0,0.0,0.0,0.0,0.0,0.0,0.0,0.0,0.0,0.0,0.0,0.0,0.0,0.0,0.0,0.0,0.0,0.0,0.0,0.0,0.0,0.0,0.0,0.0,0.0,0.0,0.0,0.0,0.0,0.0,0.0,0.0,0.0,0.0,0.0,0.0,0.0,0.0,0.0,0.0,0.0,0.0,0.0,0.0,0.0,0.0,0.0,0.0,0.0,0.0,0.0,0.0,0.0,0.0,0.0,0.0,0.0,0.0,0.0,0.0,0.0,0.0,0.0,-4.5586,-4.5586,-4.5586,-4.5458,-4.5297,-4.5061,-4.4636,-4.425,-4.4005,-4.3716,0.0,0.0,0.0,0.0,0.0,0.0,0.0,0.0,0.0,0.0,0.0,0.0,0.0,0.0,0.0,0.0,0.0,0.0,0.0,0.0,0.0,0.0,0.0,0.0,0.0,0.0,0.0,0.0,0.0,0.0,0.0,0.0,0.0,0.0,0.0,0.0,0.0,0.0,0.0,0.0,0.0,0.0,0.0,0.0,0.0,0.0,0.0,0.0,0.0,0.0,0.0,0.0,0.0,0.0,0.0,0.0,0.0,0.0,0.0,0.0,0.0,0.0,0.0,0.0,0.0,0.0,0.0,0.0,0.0,0.0,0.0,0.0,0.0,0.0,0.0,0.0,0.0,0.0,0.0,0.0,0.0,0.0,0.0,0.0,0.0,0.0,0.0,0.0,0.0,0.0,0.0,0.0,0.0,0.0,0.0,0.0,0.0,0.0,0.0,0.0,0.0,0.0,-4.5586,-4.5568,-4.5513,-4.538,-4.5192,-4.4919,-4.4476,-4.4121,-4.3929,-4.3667,0.0,0.0,0.0,0.0,0.0,0.0,0.0,0.0,0.0,0.0,0.0,0.0,0.0,0.0,0.0,0.0,0.0,0.0,0.0,0.0,0.0,0.0,0.0,0.0,0.0,0.0,0.0,0.0,0.0,0.0,0.0,0.0,0.0,0.0,0.0,0.0,0.0,0.0,0.0,0.0,0.0,0.0,0.0,0.0,0.0,0.0,0.0,0.0,0.0,0.0,0.0,0.0,0.0,0.0,0.0,0.0,0.0,0.0,0.0,0.0,0.0,0.0,0.0,0.0,0.0,0.0,0.0,0.0,0.0,0.0,0.0,0.0,0.0,0.0,0.0,0.0,0.0,0.0,0.0,0.0,0.0,0.0,0.0,0.0,0.0,0.0,0.0,0.0,0.0,0.0,0.0,0.0,0.0,0.0,0.0,0.0,0.0,0.0,0.0,0.0,0.0,0.0,-4.5568,-4.5513,-4.5438,-4.5279,-4.508,-4.4846,-4.4412,-4.4079,-4.3897,0.0,0.0,0.0,0.0,0.0,0.0,0.0,0.0,0.0,0.0,0.0,0.0,0.0,0.0,0.0,0.0,0.0,0.0,0.0,0.0,0.0,0.0,0.0,0.0,0.0,0.0,0.0,0.0,0.0,0.0,0.0,0.0,0.0,0.0,0.0,0.0,0.0,0.0,0.0,0.0,0.0,0.0,0.0,0.0,0.0,0.0,0.0,0.0,0.0,0.0,0.0,0.0,0.0,0.0,0.0,0.0,0.0,0.0,0.0,0.0,0.0,0.0,0.0,0.0,0.0,0.0,0.0,0.0,0.0,0.0,0.0,0.0,0.0,0.0,0.0,0.0,0.0,0.0,0.0,0.0,0.0,0.0,0.0,0.0,0.0,0.0,0.0,0.0,0.0,0.0,0.0,0.0,0.0,0.0,0.0,0.0,0.0,0.0,0.0,0.0,0.0,0.0,-4.6377,-4.609,-4.5841,-4.5744,-4.5303,-4.4943,-4.4674,-4.4269,-4.3986,-4.3832,0.0,0.0,0.0,0.0,0.0,0.0,0.0,0.0,0.0,0.0,0.0,0.0,0.0,0.0,0.0,0.0,0.0,0.0,0.0,0.0,0.0,0.0,0.0,0.0,0.0,0.0,0.0,0.0,0.0,0.0,0.0,0.0,0.0,0.0,0.0,0.0,0.0,0.0,0.0,0.0,0.0,0.0,0.0,0.0,0.0,0.0,0.0,0.0,0.0,0.0,0.0,0.0,0.0,0.0,0.0,0.0,0.0,0.0,0.0,0.0,0.0,0.0,0.0,0.0,0.0,0.0,0.0,0.0,0.0,0.0,0.0,0.0,0.0,0.0,0.0,0.0,0.0,0.0,0.0,0.0,0.0,0.0,0.0,0.0,0.0,0.0,0.0,0.0,0.0,0.0,0.0,0.0,0.0,0.0,0.0,0.0,0.0,0.0,0.0,0.0,0.0,0.0,-4.8008,-4.724,-4.6643,-4.6434,-4.5508,-4.4726,-4.4318,-4.4121,-4.3878,0.0,0.0,0.0,0.0,0.0,0.0,0.0,0.0,0.0,0.0,0.0,0.0,0.0,0.0,0.0,0.0,0.0,0.0,0.0,0.0,0.0,0.0,0.0,0.0,0.0,0.0,0.0,0.0,0.0,0.0,0.0,0.0,0.0,0.0,0.0,0.0,0.0,0.0,0.0,0.0,0.0,0.0,0.0,0.0,0.0,0.0,0.0,0.0,0.0,0.0,0.0,0.0,0.0,0.0,0.0,0.0,0.0,0.0,0.0,0.0,0.0,0.0,0.0,0.0,0.0,0.0,0.0,0.0,0.0,0.0,0.0,0.0,0.0,0.0,0.0,0.0,0.0,0.0,0.0,0.0,0.0,0.0,0.0,0.0,0.0,0.0,0.0,0.0,0.0,0.0,0.0,0.0,0.0,0.0,0.0,0.0,0.0,0.0,0.0,0.0,0.0,0.0,0.0,-4.7843,-4.7589,-4.7079,-4.6263,-4.5753,-4.5106,-4.4218,-4.3974,-4.3767,-4.3615,0.0,0.0,0.0,0.0,0.0,0.0,0.0,0.0,0.0,0.0,0.0,0.0,0.0,0.0,0.0,0.0,0.0,0.0,0.0,0.0,0.0,0.0,0.0,0.0,0.0,0.0,0.0,0.0,0.0,0.0,0.0,0.0,0.0,0.0,0.0,0.0,0.0,0.0,0.0,0.0,0.0,0.0,0.0,0.0,0.0,0.0,0.0,0.0,0.0,0.0,0.0,0.0,0.0,0.0,0.0,0.0,0.0,0.0,0.0,0.0,0.0,0.0,0.0,0.0,0.0,0.0,0.0,0.0,0.0,0.0,0.0,0.0,0.0,0.0,0.0,0.0,0.0,0.0,0.0,0.0,0.0,0.0,0.0,0.0,0.0,0.0,0.0,0.0,0.0,0.0,0.0,0.0,0.0,0.0,0.0,0.0,0.0,0.0,0.0,0.0,0.0,0.0,-4.8629,-4.8275,-4.7599,-4.652,-4.5895,-4.5126,-4.4079,-4.3832,-4.3667,-4.3548,0.0,0.0,0.0,0.0,0.0,0.0,0.0,0.0,0.0,0.0,0.0,0.0,0.0,0.0,0.0,0.0,0.0,0.0,0.0,0.0,0.0,0.0,0.0,0.0,0.0,0.0,0.0,0.0,0.0,0.0,0.0,0.0,0.0,0.0,0.0,0.0,0.0,0.0,0.0,0.0,0.0,0.0,0.0,0.0,0.0,0.0,0.0,0.0,0.0,0.0,0.0,0.0,0.0,0.0,0.0,0.0,0.0,0.0,0.0,0.0,0.0,0.0,0.0,0.0,0.0,0.0,0.0,0.0,0.0,0.0,0.0,0.0,0.0,0.0,0.0,0.0,0.0,0.0,0.0,0.0,0.0,0.0,0.0,0.0,0.0,0.0,0.0,0.0,0.0,0.0,0.0,0.0,0.0,0.0,0.0,0.0,0.0,0.0,0.0,0.0,0.0,0.0,-4.9852,-4.9107,-4.8136,-4.6993,-4.5985,-4.4952,-4.3859,-4.3667,-4.3548,-4.3479,0.0,0.0,0.0,0.0,0.0,0.0,0.0,0.0,0.0,0.0,0.0,0.0,0.0,0.0,0.0,0.0,0.0,0.0,0.0,0.0,0.0,0.0,0.0,0.0,0.0,0.0,0.0,0.0,0.0,0.0,0.0,0.0,0.0,0.0,0.0,0.0,0.0,0.0,0.0,0.0,0.0,0.0,0.0,0.0,0.0,0.0,0.0,0.0,0.0,0.0,0.0,0.0,0.0,0.0,0.0,0.0,0.0,0.0,0.0,0.0,-5.7338,0.0,0.0,0.0,0.0,0.0,0.0,0.0,0.0,0.0,0.0,0.0,0.0,0.0,0.0,0.0,0.0,0.0,0.0,0.0,0.0,0.0,0.0,0.0,0.0,0.0,0.0,0.0,0.0,0.0,0.0,0.0,0.0,0.0,0.0,0.0,0.0,0.0,0.0,0.0,0.0,0.0,-4.9506,-4.9295,-4.8496,-4.6844,-4.629,-4.5371,-4.3796,-4.3566,-4.3532,-4.3497,-4.3497,0.0,0.0,0.0,0.0,0.0,0.0,0.0,0.0,0.0,0.0,0.0,0.0,0.0,0.0,0.0,0.0,0.0,0.0,0.0,0.0,0.0,0.0,0.0,0.0,0.0,0.0,0.0,0.0,0.0,0.0,0.0,0.0,0.0,0.0,0.0,0.0,0.0,0.0,0.0,0.0,0.0,0.0,0.0,0.0,0.0,0.0,0.0,0.0,0.0,0.0,0.0,0.0,0.0,0.0,0.0,0.0,0.0,0.0,0.0,0.0,-5.6761,0.0,0.0,0.0,0.0,0.0,0.0,0.0,0.0,0.0,0.0,0.0,0.0,0.0,0.0,0.0,0.0,0.0,0.0,0.0,0.0,0.0,0.0,0.0,0.0,0.0,0.0,0.0,0.0,0.0,0.0,0.0,0.0,0.0,0.0,0.0,0.0,0.0,0.0,0.0,0.0,-4.916,-4.8758,-4.7951,-4.6554,-4.5922,-4.5031,-4.3658,-4.3513,-4.3497,-4.3497,-4.3497,0.0,0.0,0.0,0.0,0.0,0.0,0.0,0.0,0.0,0.0,0.0,0.0,0.0,0.0,0.0,0.0,0.0,0.0,0.0,0.0,0.0,0.0,0.0,0.0,0.0,0.0,0.0,0.0,0.0,0.0,0.0,0.0,0.0,0.0,0.0,0.0,0.0,0.0,0.0,0.0,0.0,0.0,0.0,0.0,0.0,0.0,0.0,0.0,0.0,0.0,0.0,0.0,0.0,-5.7179,-5.667,-5.5904,-5.5785,-5.5724,-5.5742,-5.6453,-5.6357,-5.5703,-5.5703,0.0,0.0,0.0,0.0,0.0,0.0,0.0,0.0,0.0,0.0,0.0,0.0,0.0,0.0,0.0,0.0,0.0,0.0,0.0,0.0,0.0,0.0,0.0,0.0,-5.0089,-5.0095,0.0,0.0,0.0,0.0,0.0,0.0,0.0,0.0,0.0,0.0,0.0,0.0,-4.8635,-4.799,-4.7143,-4.6094,-4.5307,-4.4467,-4.3571,-4.3497,-4.3497,-4.3497,-4.3497,-4.3497,0.0,0.0,0.0,0.0,0.0,0.0,0.0,0.0,0.0,0.0,0.0,0.0,0.0,0.0,0.0,0.0,0.0,0.0,0.0,0.0,0.0,0.0,0.0,0.0,0.0,0.0,0.0,0.0,0.0,0.0,0.0,0.0,-5.1406,-5.1406,0.0,0.0,0.0,0.0,0.0,0.0,0.0,0.0,0.0,0.0,0.0,0.0,0.0,-5.6722,-5.6653,-5.677,-5.6695,-5.6446,-5.6388,-5.6191,-5.5903,-5.5827,-5.5745,-5.5703,-5.5818,0.0,-5.5703,-5.5703,0.0,0.0,0.0,0.0,0.0,0.0,0.0,0.0,0.0,0.0,0.0,0.0,0.0,0.0,0.0,0.0,0.0,0.0,0.0,0.0,0.0,0.0,-4.9588,-4.9655,-4.9627,-4.9569,0.0,-4.9768,-4.9833,-4.9584,-4.9352,0.0,0.0,0.0,0.0,0.0,0.0,0.0,-4.7681,-4.7443,-4.6744,-4.5252,-4.4853,-4.4378,-4.3552,-4.3497,-4.3497,-4.3497,-4.3497,-4.3497,-4.3497,-4.3497,0.0,0.0,0.0,0.0,0.0,0.0,0.0,0.0,0.0,0.0,0.0,0.0,0.0,0.0,0.0,0.0,0.0,0.0,0.0,0.0,0.0,0.0,0.0,0.0,0.0,0.0,0.0,0.0,0.0,-5.1406,-5.1406,-5.1406,-5.2519,-5.3457,0.0,0.0,0.0,0.0,0.0,0.0,0.0,0.0,0.0,-5.6601,-5.6599,-5.6597,-5.6559,-5.6513,-5.6478,-5.6398,-5.6275,-5.6117,-5.5958,-5.5866,-5.5766,-5.5703,-5.5703,-5.5703,-5.5703,-5.5703,-5.5703,-5.5703,0.0,0.0,0.0,0.0,-5.5703,-5.5703,-5.5703,-5.5618,0.0,-5.4877,0.0,0.0,0.0,0.0,0.0,0.0,0.0,0.0,0.0,0.0,-4.922,-4.9252,-4.9302,-4.9302,-4.9239,-4.9377,-4.9488,0.0,-4.927,-4.9113,-4.9012,0.0,0.0,0.0,0.0,-4.761,-4.7261,-4.6397,-4.5588,-4.4871,-4.434,-4.3883,-4.3516,-4.3497,-4.3497,-4.3497,-4.3497,-4.3497,-4.3497,-4.3497,-4.3497,0.0,0.0,0.0,0.0,0.0,0.0,0.0,0.0,0.0,0.0,0.0,0.0,0.0,0.0,0.0,0.0,0.0,0.0,0.0,0.0,0.0,0.0,0.0,0.0,0.0,0.0,0.0,0.0,-5.1406,-5.1406,-5.1406,-5.2168,-5.2949,0.0,0.0,0.0,0.0,0.0,0.0,-5.6582,-5.6601,-5.6601,-5.6601,-5.6601,-5.6601,-5.6601,-5.6551,-5.6513,-5.6509,-5.633,-5.6187,-5.6062,-5.5885,-5.5788,-5.5724,-5.5703,-5.5703,-5.5703,-5.5703,-5.5703,-5.5703,-5.5703,-5.5703,-5.5703,-5.5703,-5.5703,-5.5665,-5.5453,-5.5311,-5.5063,-5.4168,-5.3381,-5.2647,-5.1788,0.0,0.0,0.0,0.0,-4.8751,-4.8768,-4.8855,-4.8906,-4.8906,-4.8959,-4.9027,-4.8906,-4.899,-4.909,0.0,-4.9108,-4.9042,-4.9015,0.0,0.0,0.0,0.0,-4.6728,-4.6526,-4.5461,-4.4635,-4.4415,-4.3864,-4.3497,-4.3497,-4.3497,-4.3497,-4.3497,-4.3497,-4.3497,-4.3497,-4.3497,-4.3497,-4.3497,0.0,0.0,0.0,0.0,0.0,0.0,0.0,0.0,0.0,0.0,0.0,0.0,0.0,0.0,0.0,0.0,0.0,0.0,0.0,0.0,0.0,0.0,0.0,0.0,0.0,0.0,0.0,0.0,0.0,-5.1406,-5.2168,0.0,0.0,0.0,0.0,-5.5293,-5.5371,-5.5723,-5.6562,-5.6601,-5.6601,-5.6601,-5.6601,-5.6601,-5.6601,-5.66,-5.6551,-5.6504,-5.6425,-5.6308,-5.6185,-5.5993,-5.5866,-5.5787,-5.5724,-5.5703,-5.5703,-5.5703,-5.5703,-5.5703,-5.5703,-5.5703,-5.5703,-5.5703,-5.5703,-5.5588,-5.4839,-5.4466,-5.4219,-5.3283,-5.2045,-5.0842,-5.0362,-4.9471,0.0,0.0,-4.8437,-4.8513,-4.8513,-4.8587,-4.8623,-4.8623,-4.8623,-4.8623,-4.8623,-4.862,-4.8704,0.0,-4.8967,-4.8899,-4.8824,0.0,-4.7389,-4.7389,-4.6562,-4.5681,-4.4929,-4.4764,-4.4415,-4.3626,-4.3516,-4.3497,-4.3497,-4.3497,-4.3497,-4.3497,-4.3497,-4.3497,-4.3497,-4.3497,-4.3497,-4.3497,-4.3497,0.0,0.0,0.0,0.0,0.0,0.0,0.0,0.0,0.0,0.0,0.0,0.0,0.0,0.0,0.0,0.0,0.0,0.0,0.0,0.0,0.0,0.0,0.0,0.0,0.0,0.0,0.0,0.0,-5.1406,-5.168,0.0,-5.2656,-5.2988,-5.3769,-5.5195,-5.5293,-5.5683,-5.6543,-5.6601,-5.6601,-5.6601,-5.6601,-5.6601,-5.6601,-5.6601,-5.6577,-5.6497,-5.6432,-5.6329,-5.6187,-5.599,-5.5866,-5.5806,-5.5724,-5.5703,-5.5703,-5.5703,-5.5703,-5.5703,-5.5703,-5.5703,-5.5703,-5.5703,-5.5703,-5.5568,-5.478,-5.4408,-5.4001,-5.2246,-5.0865,-4.9815,-4.9387,-4.89,-4.8514,-4.8344,-4.8344,-4.8363,-4.8363,-4.8382,-4.842,-4.842,-4.8458,-4.8532,-4.8532,-4.8569,-4.8473,-4.7994,-4.7922,-4.7923,-4.7884,-4.7148,-4.6524,-4.6524,-4.5735,-4.5021,-4.4745,-4.425,-4.3809,-4.3516,-4.3497,-4.3497,-4.3497,-4.3497,-4.3497,-4.3497,-4.3497,-4.3497,-4.3497,-4.3497,-4.3497,-4.3497,-4.3497,-4.3497,0.0,0.0,0.0,0.0,0.0,0.0,0.0,0.0,0.0,0.0,0.0,0.0,0.0,0.0,0.0,0.0,0.0,0.0,0.0,0.0,0.0,0.0,0.0,0.0,0.0,-5.1406,-5.1406,-5.1406,-5.1406,-5.1621,-5.2207,-5.2266,-5.2988,-5.4726,-5.4863,-5.5371,-5.6543,-5.6601,-5.6601,-5.6601,-5.6601,-5.6601,-5.6601,-5.6601,-5.658,-5.6527,-5.6433,-5.6339,-5.6219,-5.604,-5.5904,-5.5826,-5.5745,-5.5703,-5.5703,-5.5703,-5.5703,-5.5703,-5.5703,-5.5703,-5.5703,-5.5703,-5.5703,-5.553,-5.4413,-5.3558,-5.2686,-5.1163,-5.0088,-4.9289,-4.8943,-4.866,-4.8458,-4.8344,-4.8306,-4.8306,-4.8306,-4.8306,-4.8306,-4.8306,-4.8363,-4.8345,-4.8069,-4.807,-4.785,-4.6985,-4.7095,-4.7279,-4.6929,-4.6193,-4.5642,-4.5642,-4.4854,-4.4305,-4.4305,-4.3828,-4.3497,-4.3497,-4.3497,-4.3497,-4.3497,-4.3497,-4.3497,-4.3497,-4.3497,-4.3497,-4.3497,-4.3497,-4.3497,-4.3497,-4.3497,-4.3497,-4.3497,0.0,0.0,0.0,0.0,0.0,0.0,0.0,0.0,0.0,0.0,0.0,0.0,0.0,0.0,0.0,0.0,0.0,0.0,0.0,0.0,0.0,0.0,0.0,-5.1406,-5.1406,-5.1406,-5.1406,-5.1406,-5.1406,-5.1406,-5.1426,-5.2148,-5.3867,-5.4023,-5.4785,-5.6504,-5.6601,-5.6601,-5.6601,-5.6601,-5.6601,-5.6601,-5.6601,-5.66,-5.6593,-5.6455,-5.6363,-5.6289,-5.6087,-5.5959,-5.5885,-5.5745,-5.5703,-5.5703,-5.5703,-5.5703,-5.5703,-5.5703,-5.5703,-5.5703,-5.5703,-5.5684,-5.5415,-5.3697,-5.1897,-5.0317,-5.0082,-4.9683,-4.9225,-4.8978,-4.8697,-4.8457,-4.8363,-4.8306,-4.8306,-4.8306,-4.8306,-4.8306,-4.8306,-4.8288,-4.8047,-4.7293,-4.7071,-4.6815,-4.6011,-4.6581,-4.6911,-4.603,-4.5204,-4.4672,-4.4672,-4.3993,0.0,-4.3497,-4.3497,-4.3497,-4.3497,-4.3497,-4.3497,-4.3497,-4.3497,-4.3497,-4.3497,-4.3497,-4.3497,-4.3497,-4.3497,-4.3497,-4.3497,-4.3497,-4.3497,-4.3497,0.0,0.0,0.0,0.0,0.0,0.0,0.0,0.0,0.0,0.0,0.0,0.0,0.0,0.0,0.0,0.0,0.0,0.0,0.0,0.0,0.0,-5.1016,-5.1406,-5.1406,-5.1406,-5.1406,-5.1406,-5.1406,-5.1406,-5.1406,-5.1973,-5.2793,-5.3926,-5.459,-5.543,-5.6543,-5.6601,-5.6601,-5.6601,-5.6601,-5.6601,-5.6601,-5.6601,-5.66,-5.6593,-5.6455,-5.6363,-5.6289,-5.6087,-5.5959,-5.5885,-5.5745,-5.5703,-5.5703,-5.5703,-5.5703,-5.5703,-5.5703,-5.5703,-5.5703,-5.5703,-5.5318,-5.4664,-5.3486,-5.228,-5.11,-5.0164,-4.9539,-4.9123,-4.8909,-4.8587,-4.8363,-4.8306,-4.8306,-4.8306,-4.8306,-4.8306,-4.8306,-4.8306,-4.7826,-4.7366,-4.7145,-4.6649,-4.5971,-4.5205,-4.5257,-4.5311,-4.5057,-4.436,-4.3828,-4.3828,-4.3626,0.0,-4.3497,-4.3497,-4.3497,-4.3497,-4.3497,-4.3497,-4.3497,-4.3497,-4.3497,-4.3497,-4.3497,-4.3497,-4.3497,-4.3497,-4.3497,-4.3497,-4.3497,-4.3497,0.0,0.0,0.0,0.0,0.0,0.0,0.0,0.0,0.0,0.0,0.0,0.0,0.0,0.0,0.0,0.0,0.0,0.0,0.0,0.0,0.0,0.0,-5.0586,-5.1016,-5.1348,-5.1406,-5.1406,-5.1406,-5.1406,-5.1406,-5.1406,-5.2187,-5.3066,-5.3926,-5.4805,-5.5683,-5.6543,-5.6601,-5.6601,-5.6601,-5.6601,-5.6601,-5.6601,-5.6601,-5.66,-5.6593,-5.6484,-5.6379,-5.6289,-5.6083,-5.5958,-5.5885,-5.5745,-5.5703,-5.5703,-5.5703,-5.5703,0.0,0.0,0.0,0.0,0.0,-5.5184,-5.4376,-5.3449,-5.2478,-5.1429,-5.0311,-4.9598,-4.9188,-4.8943,-4.8624,-4.8363,-4.8306,-4.8306,-4.8306,-4.8306,-4.8306,-4.8233,-4.7901,-4.7439,-4.6943,-4.6225,-4.5735,-4.5169,-4.4343,-4.4193,0.0,-4.4195,-4.3809,-4.3497,-4.3497,-4.3497,-4.3497,-4.3497,-4.3497,-4.3497,-4.3497,-4.3497,-4.3497,-4.3497,-4.3497,0.0,0.0,0.0,-4.3497,-4.3497,-4.3497,0.0,0.0,0.0,-4.3497,-4.3497,0.0,0.0,0.0,-4.3497,-4.3497,0.0,0.0,0.0,0.0,0.0,0.0,0.0,0.0,0.0,0.0,0.0,0.0,0.0,0.0,0.0,0.0,-5.0078,-5.0449,-5.1152,-5.1348,-5.1406,-5.1406,-5.1406,-5.1445,-5.1543,-5.2344,-5.3203,-5.4082,-5.4941,-5.5781,-5.6562,0.0,0.0,0.0,0.0,-5.6601,-5.6601,-5.6601,-5.66,-5.6593,-5.654,-5.6426,-5.6299,-5.6107,-5.5973,-5.5885,-5.5766,-5.5703,-5.5703,-5.5703,-5.5703,-5.5703,-5.5703,-5.5703,-5.5703,-5.5703,-5.5241,-5.4491,-5.353,0.0,0.0,-5.0487,-4.9797,-4.9352,-4.8993,-4.8697,-4.8457,-4.8363,-4.8306,-4.8306,-4.8306,-4.8251,-4.7992,-4.7293,-4.6943,-4.6449,-4.5018,-4.462,-4.4354,-4.3642,-4.3497,-4.3497,-4.3497,-4.3497,-4.3497,-4.3497,-4.3497,-4.3497,-4.3497,-4.3497,-4.3497,-4.3497,0.0,0.0,-4.3497,-4.3497,-4.3497,-4.3497,-4.3497,-4.3497,-4.3497,-4.3497,-4.3497,-4.3497,-4.3497,-4.3497,-4.3497,-4.3497,-4.3497,-4.3497,-4.3497,-4.3497,0.0,0.0,0.0,0.0,0.0,0.0,0.0,0.0,0.0,0.0,0.0,0.0,0.0,0.0,0.0,-4.8047,-4.9277,-5.0254,-5.041,-5.0996,-5.1406,-5.1406,-5.1406,-5.168,-5.2383,-5.3242,-5.4101,-5.498,-5.5859,-5.6426,-5.6582,-5.6601,-5.6601,-5.6601,-5.6601,-5.6601,-5.6601,-5.6601,-5.6601,-5.6598,0.0,0.0,-5.6368,-5.6226,-5.6075,-5.5903,-5.5827,-5.5745,-5.5703,-5.5703,-5.5703,-5.5703,-5.5703,-5.5703,-5.5703,-5.5703,-5.5588,-5.5241,-5.3741,-5.2982,-5.2379,-5.0708,-4.9833,-4.9352,-4.9061,-4.8768,0.0,-4.8363,-4.8306,-4.8306,-4.8306,-4.7807,-4.7293,-4.7126,-4.6104,-4.5073,-4.4762,-4.4193,-4.3697,-4.3516,-4.3497,-4.3497,-4.3497,-4.3497,-4.3497,-4.3497,-4.3497,-4.3497,-4.3497,-4.3497,-4.3497,-4.3497,-4.3497,-4.3497,-4.3497,-4.3497,-4.3497,-4.3497,-4.3497,-4.3497,-4.3497,-4.3497,-4.3497,-4.3497,-4.3497,-4.3497,-4.3497,-4.3497,-4.3497,-4.3497,-4.3497,-4.3497,0.0,0.0,0.0,0.0,0.0,0.0,0.0,0.0,0.0,0.0,0.0,-4.6308,-4.6308,0.0,-4.709,-4.7539,-4.8691,-4.9707,-5.0137,-5.0898,-5.1406,-5.1406,-5.1406,-5.1738,-5.2617,-5.3496,-5.4355,-5.5234,-5.6113,-5.6601,-5.6601,-5.6601,-5.6601,-5.6601,-5.6601,-5.6601,-5.6601,-5.6601,-5.6601,-5.6599,-5.6523,-5.6464,-5.6402,-5.6263,-5.6102,-5.594,-5.5847,-5.5766,-5.5703,-5.5703,-5.5703,-5.5703,-5.5703,-5.5703,-5.5703,-5.5703,-5.5703,-5.5453,-5.378,-5.3121,-5.2682,-5.0813,-4.9922,-4.951,-4.9123,-4.8839,-4.8606,-4.8363,-4.8306,-4.8233,-4.7789,-4.7403,-4.6888,-4.6083,-4.5278,-4.4591,-4.4207,-4.3771,-4.3497,-4.3497,-4.3497,-4.3497,-4.3497,-4.3497,-4.3497,-4.3497,-4.3497,-4.3497,-4.3497,-4.3497,-4.3497,-4.3497,-4.3497,-4.3497,-4.3497,-4.3497,-4.3497,-4.3497,-4.3497,-4.3497,-4.3497,-4.3497,-4.3497,-4.3497,-4.3497,-4.3497,-4.3497,-4.3497,-4.3497,-4.3497,-4.3497,-4.3497,0.0,0.0,0.0,0.0,0.0,0.0,0.0,-4.6258,-4.6305,-4.6307,-4.6308,-4.6308,-4.6308,-4.6308,-4.6523,-4.7226,-4.8223,-4.9141,-4.9844,-5.0781,-5.1406,-5.1406,-5.1406,-5.1816,-5.2851,-5.3594,-5.4433,-5.5469,-5.6191,-5.6601,-5.6601,-5.6601,-5.6601,-5.6601,-5.6601,-5.6601,-5.6601,-5.6601,-5.6601,-5.66,-5.6549,-5.648,-5.6425,-5.6299,-5.6141,-5.5993,-5.5827,-5.5745,-5.5703,-5.5703,-5.5703,-5.5703,-5.5703,-5.5703,-5.5703,-5.5703,-5.5588,-5.5241,-5.3741,-5.3046,-5.256,-5.0803,-5.0051,-4.9721,-4.922,-4.8943,-4.8751,-4.8438,-4.8214,-4.7937,-4.7256,-4.6852,-4.6303,-4.5022,-4.458,-4.4299,-4.3642,-4.3497,-4.3497,-4.3497,-4.3497,-4.3497,-4.3497,-4.3497,-4.3497,-4.3497,-4.3497,-4.3497,-4.3497,-4.3497,-4.3497,-4.3497,-4.3497,-4.3497,-4.3497,-4.3497,-4.3497,-4.3497,-4.3497,-4.3497,-4.3497,-4.3497,-4.3497,-4.3497,-4.3497,-4.3497,-4.3497,-4.3497,-4.3497,-4.3497,-4.3497,-4.3497,-4.6192,-4.6186,-4.6199,-4.6267,-4.629,-4.6295,0.0,-4.6286,-4.6307,-4.6308,-4.6308,-4.6308,-4.6308,-4.6308,-4.6328,-4.6426,-4.7832,-4.8926,-4.9023,-5.0391,-5.1406,-5.1406,-5.1406,-5.2051,-5.3691,-5.3945,-5.4687,-5.6328,-5.6543,-5.6601,-5.6601,-5.6601,-5.6601,-5.6601,-5.6601,-5.6601,-5.6601,-5.6601,-5.6601,-5.6601,-5.6599,-5.6546,-5.6484,-5.6402,-5.6236,-5.6004,-5.5808,-5.5703,-5.5703,-5.5703,-5.5703,-5.5703,-5.5703,-5.5703,-5.5703,-5.5703,-5.5241,-5.4491,-5.353,-5.2642,-5.1773,-5.0722,-5.012,-4.9749,-4.9457,-4.9113,-4.8751,-4.8532,-4.7884,-4.7219,-4.713,-4.6048,-4.4894,-4.4729,-4.4158,-4.3624,-4.3516,-4.3497,-4.3497,-4.3497,-4.3497,-4.3497,-4.3497,-4.3497,-4.3497,-4.3497,-4.3497,-4.3497,-4.3497,-4.3497,-4.3497,-4.3497,-4.3497,-4.3497,-4.3497,-4.3497,-4.3497,-4.3497,-4.3497,-4.3497,-4.3497,-4.3497,-4.3497,-4.3497,-4.3497,-4.3497,-4.3497,-4.3497,-4.3497,-4.3497,-4.3497,-4.3497,-4.6256,-4.6258,-4.6262,-4.6287,-4.6307,-4.6308,-4.6308,-4.6307,-4.6307,-4.6308,-4.6308,-4.6308,-4.6308,-4.6308,-4.6307,-4.6307,-4.7751,-4.8903,-4.8903,-5.0348,-5.1404,-5.1406,-5.1406,-5.2089,-5.3828,-5.4004,-5.4726,-5.6465,-5.6601,-5.6601,-5.6601,-5.6601,-5.6601,-5.6601,-5.6601,-5.6601,-5.6601,-5.6601,-5.6601,-5.6601,-5.66,-5.6554,-5.6508,-5.6425,-5.6224,-5.5937,-5.5808,-5.5745,-5.5703,-5.5703,-5.5703,-5.5703,-5.5703,-5.5415,-5.4991,-5.4991,-5.478,-5.4299,-5.2933,-5.2182,-5.1699,-5.0725,-5.0236,-4.9948,-4.9518,-4.9193,-4.8763,-4.7997,-4.7444,-4.6873,-4.5957,-4.5187,-4.4582,-4.4105,-4.3736,-4.3497,-4.3497,-4.3497,-4.3497,-4.3497,-4.3497,-4.3497,-4.3497,-4.3497,-4.3497,-4.3497,-4.3497,-4.3497,-4.3497,-4.3497,-4.3497,-4.3497,-4.3497,-4.3497,-4.3497,-4.3497,-4.3497,-4.3497,-4.3497,-4.3497,-4.3497,-4.3497,-4.3497,-4.3497,-4.3497,-4.3497,-4.3497,-4.3497,-4.3497,-4.3497,-4.3497,-4.3497,-4.6269,-4.6269,-4.6269,-4.6265,-4.6262,-4.6261,-4.6276,-4.6276,-4.6276,-4.6261,-4.6262,-4.6264,-4.6264,-4.6264,-4.6262,-4.6278,-4.7742,-4.8873,-4.8873,-5.0339,-5.1396,-5.1402,-5.1402,-5.2088,-5.3828,-5.4004,-5.4726,-5.6465,-5.6601,-5.6601,-5.6601,-5.6601,-5.6601,-5.6601,-5.6601,-5.6601,-5.6601,-5.6601,-5.6601,-5.6601,-5.6601,-5.6558,-5.6501,-5.6391,-5.6188,-5.5919,-5.5847,-5.5766,-5.5703,-5.5703,-5.5568,-5.5357,-5.5357,-5.4857,-5.4107,-5.3876,-5.378,-5.3606,-5.2337,-5.176,-5.1452,-5.0692,-5.0325,-5.0114,-4.9646,-4.9134,-4.8494,-4.7625,-4.693,-4.6159,-4.5003,-4.4526,-4.4215,-4.3644,-4.3497,-4.3497,-4.3497,-4.3497,-4.3497,-4.3497,-4.3497,-4.3497,-4.3497,-4.3497,-4.3497,-4.3497,-4.3497,-4.3497,-4.3497,-4.3497,-4.3497,-4.3497,-4.3497,-4.3497,-4.3497,-4.3497,-4.3497,-4.3497,-4.3497,-4.3497,-4.3497,-4.3497,-4.3497,-4.3497,-4.3497,-4.3497,-4.3497,-4.3497,-4.3497,-4.3497,-4.3497,-4.3497,-4.6206,-4.6206,-4.6206,-4.6206,-4.6199,-4.621,-4.621,-4.621,-4.621,-4.621,-4.6199,-4.6202,-4.6202,-4.6202,-4.6202,-4.6202,-4.7666,-4.8798,-4.8798,-5.0301,-5.1398,-5.1408,-5.1391,-5.208,-5.3826,-5.4004,-5.4726,-5.6465,-5.6601,-5.6601,-5.6601,-5.6601,-5.6601,-5.6601,-5.6601,-5.6601,-5.6601,-5.6601,-5.6601,-5.6601,-5.6601,-5.656,-5.6481,-5.63,-5.6141,-5.5985,-5.5866,-5.5766,-5.5703,-5.5703,-5.5241,-5.453,-5.4551,-5.3991,-5.3145,-5.2299,-5.1991,-5.1972,-5.1933,-5.1395,-5.0721,-5.0623,-5.0435,-5.0163,-4.9857,-4.8867,-4.7783,-4.7652,-4.6246,-4.4765,-4.4727,-4.4121,-4.3516,-4.3497,-4.3497,-4.3497,-4.3497,-4.3497,-4.3497,-4.3497,-4.3497,-4.3497,-4.3497,-4.3497,-4.3497,-4.3497,-4.3497,-4.3497,-4.3497,-4.3497,-4.3497,-4.3497,-4.3497,-4.3497,-4.3497,-4.3497,-4.3497,-4.3497,-4.3497,-4.3497,-4.3497,-4.3497,-4.3497,-4.3497,-4.3497,-4.3497,-4.3497,-4.3497,-4.3497,-4.3497,-4.3497,-4.3497,-4.6201,-4.6201,-4.6197,-4.6137,-4.6131,-4.6118,-4.6137,-4.613,-4.6137,-4.6125,-4.6131,-4.6137,-4.6137,-4.6137,-4.6125,-4.6125,-4.756,-4.867,-4.867,-5.017,-5.1277,-5.1322,-5.1333,-5.2038,-5.3822,-5.4002,-5.4726,-5.6465,-5.6601,-5.6601,-5.6601,-5.6601,-5.6601,-5.6601,-5.6601,-5.6601,-5.6601,-5.6601,-5.6601,-5.6601,-5.6601,-5.6556,-5.6493,-5.6383,-5.6263,-5.6117,-5.5938,-5.5499,-5.49,-5.4897,-5.4395,-5.3645,-5.3645,-5.3106,-5.2299,-5.201,-5.1568,-5.1106,-5.1106,-5.0933,-5.0683,-5.0563,-5.0393,-5.0073,-4.9151,-4.8405,-4.7588,-4.6249,-4.5326,-4.4599,-4.4048,-4.3699,-4.3497,-4.3497,-4.3497,-4.3497,-4.3497,-4.3497,-4.3497,-4.3497,-4.3497,-4.3497,-4.3497,-4.3497,-4.3497,-4.3497,-4.3497,-4.3497,-4.3497,-4.3497,-4.3497,-4.3497,-4.3497,-4.3497,-4.3497,-4.3497,-4.3497,-4.3497,-4.3497,-4.3497,-4.3497,-4.3497,-4.3497,-4.3497,-4.3497,-4.3497,-4.3497,-4.3497,-4.3497,-4.3497,-4.3497,-4.3497,-4.6096,-4.6096,-4.6088,-4.6044,-4.6026,-4.6027,-4.6037,-4.6026,-4.6037,-4.6036,-4.6026,-4.6035,-4.6035,-4.6035,-4.6026,-4.6027,-4.7436,-4.8524,-4.8524,-5.002,-5.1161,-5.1228,-5.1234,-5.1947,-5.3783,-5.3969,-5.4701,-5.6465,-5.6601,-5.6601,-5.6601,-5.6601,-5.6601,-5.6601,-5.6601,-5.6601,-5.6601,-5.6601,-5.6601,-5.6601,-5.6599,-5.6551,-5.6484,-5.6106,-5.5861,-5.5714,-5.5236,-5.465,-5.4072,-5.405,-5.353,-5.2741,-5.2741,-5.2222,-5.1471,-5.1471,-5.1144,-5.0702,-5.0702,-5.0683,-5.0643,-5.0542,-5.0179,-4.963,-4.8708,-4.7755,-4.6712,-4.5397,-4.4662,-4.4158,-4.3626,-4.3497,-4.3497,-4.3497,-4.3497,-4.3497,-4.3497,-4.3497,-4.3497,-4.3497,-4.3497,-4.3497,-4.3497,-4.3497,-4.3497,-4.3497,-4.3497,-4.3497,-4.3497,-4.3497,-4.3497,-4.3497,-4.3497,-4.3497,-4.3497,-4.3497,-4.3497,-4.3497,-4.3497,-4.3497,-4.3497,-4.3497,-4.3497,-4.3497,-4.3497,-4.3497,-4.3497,-4.3497,-4.3497,-4.3497,-4.3497,-4.3497,-4.5886,-4.5886,-4.5886,-4.5886,-4.5899,-4.5893,-4.5893,-4.5893,-4.5893,-4.5893,-4.5899,-4.5886,-4.5886,-4.5886,-4.5886,-4.5886,-4.7301,-4.8387,-4.8387,-4.9885,-5.1017,-5.1081,-5.1089,-5.1804,-5.365,-5.3869,-5.4623,-5.6406,0.0,-5.6601,-5.6601,-5.6601,-5.6601,-5.6601,-5.6601,-5.6601,-5.6601,-5.6601,-5.6582,-5.6523,-5.6539,-5.6488,-5.6333,-5.5455,-5.4975,-5.4782,-5.3823,-5.3338,-5.3225,-5.3165,-5.2626,-5.1856,-5.1856,-5.1375,-5.0702,-5.0702,-5.0702,-5.0702,-5.0702,-5.0643,-5.0563,-5.0483,-4.9733,-4.8827,-4.8461,-4.6966,-4.5357,-4.5092,-4.4306,-4.3497,-4.3497,-4.3497,-4.3497,-4.3497,-4.3497,-4.3497,-4.3497,-4.3497,-4.3497,-4.3497,-4.3497,-4.3497,-4.3497,-4.3497,-4.3497,-4.3497,-4.3497,-4.3497,-4.3497,-4.3497,-4.3497,-4.3497,-4.3497,-4.3497,-4.3497,-4.3497,-4.3497,-4.3497,-4.3497,-4.3497,-4.3497,-4.3497,-4.3497,-4.3497,-4.3497,-4.3497,-4.3497,-4.3497,-4.3497,-4.3497,-4.3497,-4.3497,-4.5827,-4.5827,-4.5827,-4.5838,-4.5824,-4.581,-4.5761,-4.5746,-4.5761,-4.581,-4.5824,-4.5824,-4.5824,-4.5824,-4.5805,-4.5757,-4.7191,-4.8346,-4.8346,-4.9779,-5.089,-5.1015,-5.1017,-5.1505,-5.2731,-5.3442,-5.4318,-5.5536,-5.6227,-5.6601,-5.6601,-5.6601,-5.6601,-5.6601,-5.6601,-5.6601,-5.6601,-5.6601,-5.6269,-5.5625,-5.5624,-5.5286,-5.4626,-5.4333,-5.4129,-5.3985,-5.3635,-5.3063,-5.2395,-5.2281,-5.176,-5.101,-5.101,-5.0875,-5.0702,-5.0702,-5.0702,-5.0702,-5.0702,-5.0643,-5.0467,-4.9712,-4.9152,-4.8466,-4.69,-4.5881,-4.5064,-4.421,-4.3747,-4.3497,-4.3497,-4.3497,-4.3497,-4.3497,-4.3497,-4.3497,-4.3497,-4.3497,-4.3497,-4.3497,-4.3497,-4.3497,-4.3497,-4.3497,-4.3497,-4.3497,-4.3497,-4.3497,-4.3497,-4.3497,-4.3497,-4.3497,-4.3497,-4.3497,-4.3497,-4.3497,-4.3497,-4.3497,-4.3497,-4.3497,-4.3497,-4.3497,-4.3497,-4.3497,-4.3497,-4.3497,-4.3497,-4.3497,-4.3497,-4.3497,-4.3497,-4.3497,-4.5696,-4.5696,-4.5715,-4.5719,-4.5703,-4.5703,-4.5651,-4.5671,-4.5671,-4.5703,-4.5703,-4.5703,-4.5703,-4.5703,-4.5703,-4.5651,-4.7097,-4.8214,-4.8214,-4.9679,-5.0775,-5.0861,-5.089,-5.1319,-5.2308,-5.2884,-5.3608,-5.4601,-5.584,-5.6577,-5.6601,-5.6601,-5.6601,-5.6601,-5.6601,-5.6426,-5.6035,-5.5644,-5.5215,-5.4726,-5.4724,-5.4464,-5.3979,-5.3507,-5.3205,-5.3048,0.0,-5.2022,-5.147,-5.1414,-5.1106,-5.0702,-5.0702,-5.0702,-5.0702,-5.0702,-5.0452,-5.0125,-5.0125,-4.9836,-4.9411,-4.9152,-4.8414,-4.7365,-4.6073,-4.5212,-4.4549,-4.3845,-4.36,-4.3497,-4.3497,-4.3497,-4.3497,-4.3497,-4.3497,-4.3497,-4.3497,-4.3497,-4.3497,-4.3497,-4.3497,-4.3497,-4.3497,-4.3497,-4.3497,-4.3497,-4.3497,-4.3497,-4.3497,-4.3497,-4.3497,-4.3497,-4.3497,-4.3497,-4.3497,-4.3497,-4.3497,-4.3497,-4.3497,-4.3497,-4.3497,-4.3497,-4.3497,-4.3497,-4.3497,-4.3497,-4.3497,-4.3497,-4.3497,-4.3497,-4.3497,-4.3497,-4.5586,-4.5586,-4.5586,-4.5586,-4.5586,-4.5586,-4.5586,-4.5586,-4.5586,-4.5586,-4.5586,-4.5586,-4.5586,-4.5586,-4.5586,-4.5586,-4.7009,-4.8105,-4.8105,-4.9606,-5.0702,-5.0701,-5.0738,-5.1131,-5.2036,-5.2292,-5.2755,-5.3654,-5.5221,-5.6172,-5.6247,-5.6248,-5.6249,-5.625,-5.625,-5.5898,-5.5137,-5.4375,-5.3945,-5.3828,-5.3825,-5.3776,-5.3639,-5.2746,-5.2281,-5.2117,-5.1285,0.0,-5.0701,-5.0683,-5.0702,-5.0702,-5.0702,-5.0625,-5.0529,-5.0529,-4.9971,-4.9221,-4.9221,-4.8606,-4.7933,-4.8496,-4.7567,-4.614,-4.565,-4.4819,-4.3974,-4.3818,-4.3652,-4.3497,-4.3497,-4.3497,-4.3497,-4.3497,-4.3497,-4.3497,-4.3497,-4.3497,-4.3497,-4.3497,-4.3497,-4.3497,-4.3497,-4.3497,-4.3497,-4.3497,-4.3497,-4.3497,-4.3497,-4.3497,-4.3497,-4.3497,-4.3497,-4.3497,-4.3497,-4.3497,-4.3497,-4.3497,-4.3497,-4.3497,-4.3497,-4.3497,-4.3497,-4.3497,-4.3497,-4.3497,-4.3497,-4.3497,-4.3497,-4.3497,-4.3497,-4.3497,-4.5586,-4.5586,-4.5586,-4.5586,-4.5586,-4.5586,-4.5586,-4.5586,-4.5586,-4.5586,-4.5586,-4.5586,-4.5586,-4.5586,-4.5586,-4.5586,-4.7009,-4.8105,-4.8105,-4.9606,-5.0702,-5.0701,-5.0701,-5.0849,-5.1199,-5.1886,-5.2434,-5.2728,-5.368,-5.432,-5.4445,-5.445,-5.4452,-5.4453,-5.4453,-5.4375,-5.4238,-5.4082,-5.3633,-5.293,-5.2928,-5.2552,-5.1834,-5.1609,-5.1471,-5.1361,-5.1039,0.0,-5.0775,-5.0721,-5.0702,-5.0702,-5.0702,-5.026,-4.9625,-4.9625,-4.9067,-4.8336,-4.8336,-4.7741,-4.7012,-4.7007,-4.6641,-4.6,-4.4944,-4.4333,-4.3942,-4.3682,-4.3566,-4.3497,-4.3497,-4.3497,-4.3497,-4.3497,-4.3497,-4.3497,-4.3497,-4.3497,-4.3497,-4.3497,-4.3497,-4.3497,-4.3497,-4.3497,-4.3497,-4.3497,-4.3497,-4.3497,-4.3497,-4.3497,-4.3497,-4.3497,-4.3497,-4.3497,-4.3497,-4.3497,-4.3497,-4.3497,-4.3497,-4.3497,-4.3497,-4.3497,-4.3497,-4.3497,-4.3497,-4.3497,-4.3497,-4.3497,-4.3497,-4.3497,-4.3497,-4.3497,-4.5586,-4.5586,-4.5586,-4.5586,-4.5586,-4.5586,-4.5586,-4.5586,-4.5586,-4.5586,-4.5586,-4.5586,-4.5586,-4.5586,-4.5586,-4.5586,-4.7009,-4.8105,-4.8105,-4.9606,-5.0702,-5.0702,-5.0702,-5.0739,-5.0825,-5.1244,-5.159,-5.1709,-5.2142,-5.2848,-5.3884,-5.3981,-5.4004,-5.4004,-5.3555,-5.332,-5.332,-5.2871,-5.2441,-5.2012,-5.2011,-5.1792,-5.1408,-5.1322,-5.1245,-5.1136,-5.0961,0.0,-5.0757,-5.0702,-5.0433,-5.001,-5.001,-4.949,-4.8721,-4.8721,-4.8202,-4.749,-4.749,-4.6895,-4.6147,-4.6014,-4.5829,-4.5504,-4.4839,-4.4355,-4.4017,-4.3814,-4.3615,-4.3497,-4.3497,-4.3497,-4.3497,-4.3497,-4.3497,-4.3497,-4.3497,-4.3497,-4.3497,-4.3497,-4.3497,-4.3497,-4.3497,-4.3497,-4.3497,-4.3497,-4.3497,-4.3497,-4.3497,-4.3497,-4.3497,-4.3497,-4.3497,-4.3497,-4.3497,-4.3497,-4.3497,-4.3497,-4.3497,-4.3497,-4.3497,-4.3497,-4.3497,-4.3497,-4.3497,-4.3497,-4.3497,-4.3497,-4.3497,-4.3497,-4.3497,-4.3497,-4.5605,-4.5586,-4.5586,-4.5586,-4.5586,-4.5586,-4.5586,-4.5586,-4.5586,-4.5586,-4.5586,-4.5586,-4.5586,-4.5586,-4.5586,-4.5586,-4.7009,-4.8105,-4.8105,-4.9606,-5.0702,-5.0702,-5.0702,-5.0702,-5.0701,-5.0757,-5.0844,-5.0971,-5.1074,-5.1779,-5.3272,-5.3413,-5.3437,-5.3437,-5.2773,-5.2422,-5.2422,-5.1738,-5.1406,-5.1406,-5.1406,-5.1403,-5.1394,-5.1333,-5.1234,-5.1089,-5.0782,0.0,0.0,-5.024,-4.974,-4.9125,-4.9125,-4.8606,-4.7836,-4.7836,-4.7317,-4.6624,-4.6624,-4.6163,-4.5586,-4.5457,-4.53,-4.5103,-4.4846,-4.4486,-4.4109,-4.3929,-4.3701,-4.3497,-4.3497,-4.3497,-4.3497,-4.3497,-4.3497,-4.3497,-4.3497,-4.3497,-4.3497,-4.3497,-4.3497,-4.3497,-4.3497,-4.3497,-4.3497,-4.3497,-4.3497,-4.3497,-4.3497,-4.3332,-4.3222,-4.3222,-4.3387,-4.3497,-4.3497,-4.3497,-4.3497,-4.3497,-4.3332,-4.3222,-4.3256,-4.3222,-4.3222,-4.3222,-4.3406,-4.3497,-4.3497,-4.3497,-4.3497,-4.3497,-4.3497,-4.3497,-4.5586,-4.5586,-4.5586,-4.5586,-4.5586,-4.5586,-4.5586,-4.5586,-4.5586,-4.5586,-4.5586,-4.5586,-4.5586,-4.5586,-4.5586,-4.5586,-4.7009,-4.8105,-4.8105,-4.9606,-5.0702,-5.0702,-5.0702,-5.0702,-5.0701,-5.0701,-5.0773,-5.089,-5.1081,-5.1317,-5.16,-5.1636,-5.164,-5.1641,-5.1562,-5.1523,-5.1523,-5.1445,-5.1406,-5.1406,-5.1406,-5.1406,-5.1403,-5.134,-5.1252,-5.1139,-5.0222,0.0,0.0,-4.8718,-4.8298,-4.8221,-4.8221,-4.7721,-4.7009,-4.7009,-4.6451,-4.572,-4.572,-4.5663,-4.5586,-4.5513,-4.54,-4.5213,-4.484,-4.4458,-4.4151,-4.3883,-4.3652,-4.3497,-4.3497,-4.3497,-4.3497,-4.3497,-4.3497,-4.3497,-4.3497,-4.3497,-4.3497,-4.3497,-4.3497,-4.3497,-4.3497,-4.3497,-4.3497,-4.3497,-4.3497,-4.3497,-4.3497,-4.2855,-4.2415,-4.2415,-4.3057,-4.3497,-4.3497,-4.3497,-4.3497,-4.3497,-4.28,-4.243,-4.2426,-4.243,-4.2415,-4.2415,-4.313,-4.3497,-4.3497,-4.3497,-4.3497,-4.3497,-4.3497,-4.3497,-4.5586,-4.5586,-4.5586,-4.5586,-4.5586,-4.5586,-4.5586,-4.5586,-4.5586,-4.5586,-4.5586,-4.5586,-4.5586,-4.5586,-4.5586,-4.5586,-4.7009,-4.8105,-4.8105,-4.9606,-5.0702,-5.0702,-5.0702,-5.0702,-5.0702,-5.0702,-5.0757,-5.0941,-5.1074,-5.1206,-5.1332,-5.1379,-5.1406,-5.1406,-5.1406,-5.1406,-5.1406,-5.1406,-5.1406,-5.1406,-5.1406,-5.1152,-5.0682,-5.0608,-5.026,-4.9676,-4.9193,0.0,0.0,-4.8349,-4.7854,-4.7394,-4.7394,-4.6855,-4.6124,-4.6124,-4.5893,-4.5586,-4.5586,-4.5586,-4.5586,-4.5457,-4.538,-4.5235,-4.4919,-4.4522,-4.4151,-4.3929,-4.3701,-4.3497,-4.3497,-4.3497,-4.3497,-4.3497,-4.3497,-4.3497,-4.3497,-4.3497,-4.3497,-4.3497,-4.3497,-4.3332,-4.2855,-4.2782,-4.2598,-4.2139,-4.2066,-4.2066,-4.2066,-4.1791,-4.1589,-4.1589,-4.1864,-4.2066,-4.2066,-4.2066,-4.2066,-4.2066,-4.1739,-4.1574,-4.157,-4.1566,-4.1585,-4.1589,-4.1901,-4.2066,-4.2066,-4.2543,-4.2782,-4.2782,-4.3259,-4.3497,-4.5568,-4.5586,-4.5586,-4.5586,-4.5586,-4.5586,-4.5586,-4.5586,-4.5586,-4.5586,-4.5586,-4.5586,-4.5586,-4.5586,-4.5586,-4.5586,-4.7009,-4.8105,-4.8105,-4.9606,-5.0702,-5.0702,-5.0702,-5.0702,-5.0702,-5.0702,-5.0776,-5.0956,-5.1043,-5.1172,-5.1288,-5.1352,-5.1404,-5.1406,-5.1406,-5.1406,-5.1406,-5.1152,-5.1055,-5.1035,-5.0781,-5.0351,-4.9804,-4.9756,-4.9356,-4.8711,-4.8322,0.0,0.0,-4.761,-4.7101,-4.6546,-4.6509,-4.6144,-4.5586,-4.5586,-4.5586,-4.5586,-4.5586,-4.5586,-4.5586,-4.5476,-4.5361,-4.5254,-4.4967,-4.4576,-4.4151,-4.3929,-4.3701,-4.3497,-4.3497,-4.3497,-4.3497,-4.3497,-4.3497,-4.3424,-4.3185,-4.3149,-4.3057,-4.2837,-4.2782,-4.2598,-4.2047,-4.1956,-4.1754,-4.1203,-4.1111,-4.1111,-4.1111,-4.0891,-4.0763,-4.0763,-4.0543,-4.0598,-4.1075,-4.1111,-4.1111,-4.1093,-4.0895,-4.0767,-4.0758,-4.0735,-4.0754,-4.0763,-4.0983,-4.1111,-4.1111,-4.168,-4.1956,-4.1974,-4.2525,-4.2782,-4.5568,-4.5586,-4.5586,-4.5586,-4.5586,-4.5586,-4.5586,-4.5586,-4.5586,-4.5586,-4.5586,-4.5586,-4.5586,-4.5586,-4.5586,-4.5586,-4.7009,-4.8105,-4.8105,-4.9606,-5.0702,-5.0702,-5.0702,-5.0702,-5.0702,-5.0683,-5.0756,-5.089,-5.103,0.0,-5.1291,-5.1355,-5.1398,-5.1406,-5.1406,-5.1406,-5.1406,-5.0605,-5.0215,-5.0195,-4.9336,-4.8926,-4.8906,-4.884,-4.8802,-4.8733,0.0,0.0,0.0,-4.6143,-4.5722,-4.5712,-4.5642,-4.5605,-4.5586,-4.5586,-4.5586,-4.5586,-4.5586,-4.5586,-4.5586,-4.5513,-4.5419,-4.5254,-4.4967,-4.4576,-4.4151,-4.3883,-4.3652,-4.3497,-4.3497,-4.3497,-4.3497,-4.3497,-4.3497,-4.3277,-4.2488,-4.2304,-4.2084,-4.1295,-4.113,-4.113,-4.113,-4.113,-4.113,-4.1111,-4.1111,-4.1111,-4.1111,-4.0396,-3.99,-3.99,-3.9203,-3.9368,-4.0965,-4.1111,-4.1093,-4.1084,-4.0359,-3.9918,-3.9915,-3.9896,-3.9902,-3.99,-4.0689,-4.1111,-4.1111,-4.113,-4.113,-4.113,-4.113,-4.113,-4.5568,-4.5586,-4.5586,-4.5586,-4.5586,-4.5586,-4.5586,-4.5586,-4.5586,-4.5586,-4.5586,-4.5586,-4.5586,-4.5586,-4.5586,-4.5586,-4.7009,-4.8105,-4.8105,-4.9606,-5.0702,-5.0702,-5.0702,-5.0702,-5.0702,-5.0702,-5.0758,-5.089,-5.0976,-5.0848,-5.0426,-5.0488,-5.0535,-5.0586,-5.0586,-5.0293,-4.9707,-4.9433,-4.9316,-4.9316,-4.9023,-4.8594,-4.8008,-4.7985,-4.7625,0.0,0.0,0.0,0.0,-4.599,-4.5776,-4.5703,-4.5673,-4.564,-4.5586,-4.5586,-4.5586,-4.5586,-4.5586,-4.5586,-4.5586,-4.5513,-4.5438,-4.5317,-4.501,-4.4576,-4.4121,-4.3716,-4.3532,-4.3497,-4.3497,-4.3497,-4.3351,-4.28,-4.2671,-4.2451,-4.1662,-4.1497,-4.1405,-4.1167,-4.1111,-4.0946,-4.0377,-4.0286,-4.0084,-3.9551,-3.946,-3.946,-3.946,-3.9239,-3.9074,-3.9074,-3.8854,-3.8909,-3.9423,-3.946,-3.946,-3.9473,-3.9221,-3.9074,-3.9068,-3.9068,-3.9087,-3.9074,-3.9331,-3.946,-3.946,-4.001,-4.0561,-4.1111,-4.1111,-4.1111,-4.5568,-4.5586,-4.5586,-4.5586,-4.5586,-4.5586,-4.5586,-4.5586,-4.5586,-4.5586,-4.5586,-4.5586,-4.5586,-4.5586,-4.5586,-4.5586,-4.7009,-4.8105,-4.8105,-4.9606,-5.0702,-5.0702,-5.0702,-5.0702,-5.0702,-5.0702,-5.0624,-5.043,-5.0463,-5.0231,-4.9556,-4.9562,-4.9495,-4.9238,-4.9531,-4.9453,-4.8906,-4.8574,-4.8418,-4.8418,-4.8086,-4.7637,-4.7109,-4.7108,-4.6791,-4.6231,0.0,0.0,0.0,-4.5953,-4.5841,-4.5746,-4.5706,-4.5657,-4.5586,-4.5586,-4.5586,-4.5586,-4.5586,-4.5586,-4.5586,-4.555,-4.5419,-4.5213,-4.4827,-4.4412,-4.4017,-4.3649,-4.3513,-4.3424,-4.313,-4.3039,-4.2837,-4.2047,-4.1864,-4.1644,-4.0818,-4.0653,-4.0561,-4.0267,-4.0194,-4.0047,-3.9533,-3.9441,-3.9276,-3.8781,-3.8707,-3.8707,-3.8707,-3.8707,-3.8707,-3.8707,-3.8707,-3.8707,-3.8707,-3.8707,-3.8707,-3.8707,-3.8707,-3.8707,-3.8707,-3.8707,-3.8707,-3.8707,-3.8707,-3.8707,-3.8707,-3.9203,-3.9698,-4.0194,-4.0194,-4.0194,0.0,-4.5586,-4.5586,-4.5586,-4.5586,-4.5586,-4.5586,-4.5586,0.0,-4.5586,-4.5586,-4.5586,-4.5586,-4.5586,-4.5586,-4.5586,-4.6951,-4.8029,-4.8086,-4.9606,-5.0702,-5.0702,-5.0644,-5.0606,-5.0606,-5.0548,-5.0239,-4.9567,-4.9577,-4.9314,-4.8643,-4.8674,-4.834,-4.7537,-4.8281,-4.8711,-4.8711,-4.791,-4.7519,-4.75,-4.6699,-4.6308,-4.6308,-4.6307,-4.6306,0.0,0.0,0.0,0.0,-4.5969,-4.5866,-4.58,-4.5738,-4.5657,-4.5586,-4.5586,-4.5586,-4.5586,-4.5586,-4.5586,-4.5586,-4.5586,-4.5322,-4.4919,-4.4471,-4.4087,-4.3772,-4.3557,-4.3437,-4.3149,-4.2415,-4.2213,-4.2011,-4.1222,-4.102,-4.0799,-3.9992,-3.9808,-3.9588,-3.8854,-3.8707,-3.8707,-3.8707,-3.8707,-3.8707,-3.8707,-3.8707,-3.8707,-3.8707,-3.8707,-3.8707,-3.8707,-3.8707,-3.8707,-3.8707,-3.8707,-3.8707,-3.8707,-3.8707,-3.8707,-3.8707,-3.8707,-3.8707,-3.8707,-3.8707,-3.8707,-3.8707,-3.8707,-3.8707,-3.8707,-3.8707,-3.8707,-4.5568,0.0,-4.5586,-4.5586,-4.5586,-4.5586,0.0,-4.5586,-4.5586,-4.5586,-4.5586,-4.5586,-4.5586,-4.5586,-4.5586,-4.5586,-4.649,-4.7413,-4.8009,-4.9606,-5.0702,-5.0702,-5.0106,-4.9702,-4.9702,-4.9106,-4.868,-4.862,-4.8658,-4.8398,-4.7739,-4.7766,-4.7435,-4.6638,-4.6796,-4.6914,-4.6914,-4.6719,-4.6601,-4.6601,-4.6406,-4.6308,-4.6308,-4.6308,-4.6308,0.0,0.0,0.0,-4.6176,-4.6088,-4.5977,-4.588,-4.5795,-4.5687,-4.5586,-4.5586,-4.5586,-4.5586,-4.5586,-4.5586,-4.5586,-4.5495,-4.4841,-4.4053,-4.3725,-4.3362,-4.3033,-4.2742,-4.2187,-4.1625,-4.1442,-4.1387,-4.1185,-4.0377,-4.0175,-3.9955,-3.9166,-3.8982,-3.8927,-3.8744,-3.8707,-3.8707,-3.8707,-3.8707,-3.8707,-3.8707,-3.8707,-3.8707,-3.8707,-3.8707,-3.8707,-3.8707,-3.8609,-3.8559,-3.8559,-3.8658,-3.8707,-3.8707,-3.8707,-3.8707,-3.8707,-3.8707,-3.8707,-3.8707,-3.8707,-3.8707,-3.8707,-3.8707,-3.8707,-3.8707,-3.8707,-3.8707,-4.5586,-4.5586,-4.5586,-4.5586,-4.5586,-4.5586,-4.5586,-4.5586,-4.5586,-4.5586,-4.5586,-4.5586,-4.5586,-4.5586,-4.5586,-4.5586,-4.6336,-4.7317,-4.8529,-4.951,-5.0087,-5.0087,-4.9683,-4.924,0.0,-4.8375,-4.7969,-4.7687,-4.7738,-4.7488,-4.6794,-4.6852,-4.6729,-4.6301,-4.6307,-4.6308,-4.6308,-4.6308,-4.6308,-4.6308,-4.6308,-4.6308,-4.6308,-4.6308,-4.6308,0.0,0.0,0.0,-4.6182,-4.6131,-4.6027,-4.5899,-4.5824,-4.5719,-4.5586,-4.5586,-4.5586,-4.5586,-4.5586,-4.5336,-4.4914,-4.4384,-4.3749,-4.3137,-4.285,-4.2258,-4.1746,-4.1865,-4.1521,-4.102,-4.0653,-4.0561,-4.0359,-3.9533,-3.935,-3.9239,-3.8799,-3.8707,-3.8707,-3.8707,-3.8707,-3.8707,-3.8707,-3.8707,-3.8707,-3.8707,-3.8707,-3.8658,-3.8609,-3.8609,-3.8578,-3.8533,-3.8451,-3.8382,-3.8332,-3.8451,-3.8533,-3.8609,-3.8609,-3.8658,-3.8707,-3.8707,-3.8707,-3.8707,-3.8707,-3.8707,-3.8707,-3.8707,-3.8707,-3.8707,-3.8707,-3.8707,-4.5586,-4.5586,-4.5586,-4.5586,-4.5586,-4.5586,-4.5586,-4.5586,-4.5586,-4.5586,-4.5586,-4.5586,-4.5586,-4.5586,-4.5586,-4.5586,-4.6336,-4.7413,-4.8817,-4.9125,-4.9202,-4.9202,-4.9086,-4.8721,-4.799,-4.7798,-4.745,-4.6754,-4.6839,-4.6636,-4.6035,-4.6125,-4.6214,-4.6295,-4.6307,-4.6308,-4.6308,-4.6308,-4.6308,-4.6308,-4.6308,-4.6308,-4.6308,-4.6308,-4.6308,-4.6308,0.0,0.0,-4.6199,-4.6137,-4.6035,-4.5886,-4.5838,-4.5719,-4.5586,-4.5586,-4.5509,-4.5374,-4.5259,-4.472,-4.3972,-4.31,-4.2583,-4.2259,-4.1927,-4.1089,-4.0298,-4.0818,-4.0835,-4.0598,-3.9882,-3.9717,-3.9533,-3.8854,-3.8707,-3.8707,-3.8707,-3.8707,-3.8707,-3.8707,-3.8707,-3.8707,-3.8707,-3.8707,-3.8707,-3.8707,-3.8707,-3.8658,-3.851,-3.851,-3.8446,-3.8289,-3.8256,-3.8223,-3.8119,-3.8171,-3.8322,-3.8446,-3.8478,-3.8559,-3.8707,-3.8707,-3.8707,-3.8707,-3.8707,-3.8707,-3.8707,-3.8707,-3.8707,-3.8707,-3.8707,-3.8707,-4.5586,-4.5586,-4.5586,-4.5586,-4.5586,-4.5586,-4.5586,-4.5586,-4.5586,-4.5586,-4.5586,-4.5586,-4.5586,-4.5586,-4.5586,-4.5586,-4.6336,-4.699,-4.7259,-4.7875,-4.8298,-4.8298,-4.7702,-4.724,-4.7105,-4.6413,-4.595,-4.5885,-4.5963,-4.5996,-4.5997,-4.6068,-4.6172,-4.6303,-4.6308,-4.6308,-4.6308,-4.6308,-4.6308,-4.6308,-4.6308,-4.6308,-4.6308,-4.6308,-4.6308,-4.6308,0.0,-4.6265,-4.6202,-4.6197,-4.608,-4.5886,-4.5827,-4.5715,-4.5586,-4.5586,-4.5124,-4.4393,-4.372,-4.3393,-4.3242,-4.2982,-4.2259,-4.1445,-4.1217,-4.0289,-3.9296,-3.9254,-3.9178,-3.9038,-3.8927,-3.8891,-3.8854,-3.8726,-3.8707,-3.8707,-3.8707,-3.8707,-3.8707,-3.8707,-3.8707,-3.8707,-3.8707,-3.8707,-3.8707,-3.8707,-3.8707,-3.8658,-3.851,-3.851,-3.8446,-3.8289,-3.8204,-3.8119,-3.8018,-3.8018,-3.8138,-3.8322,-3.8433,-3.8559,-3.8707,-3.8707,-3.8707,-3.8707,-3.8707,-3.8707,-3.8707,-3.8707,-3.8707,-3.8707,-3.8707,-3.8707,-4.5586,-4.5586,-4.5586,-4.5586,-4.5586,-4.5586,-4.5586,-4.5586,-4.5586,-4.5586,-4.5586,-4.5586,-4.5586,-4.5586,-4.5586,-4.5586,-4.5932,-4.6355,-4.6836,-4.7221,-4.7451,-4.7451,0.0,-4.6721,-4.624,-4.5836,-4.5603,-4.564,-4.5754,-4.5833,-4.5941,-4.6044,-4.6142,-4.6237,-4.6287,-4.6308,-4.6308,-4.6308,-4.6308,-4.6308,-4.6308,-4.6308,-4.6308,-4.6308,-4.6308,-4.6308,0.0,-4.6264,-4.6199,-4.6162,-4.6044,-4.5847,-4.5311,-4.5021,-4.4836,-4.4412,-4.3989,-4.3528,-4.2701,-4.2412,-4.2299,-4.1681,-4.1113,-4.0611,-4.0325,-3.9752,-3.9183,-3.895,-3.8792,-3.8707,-3.8707,-3.8707,-3.8707,-3.8707,-3.8707,-3.8707,-3.8707,-3.8707,-3.8707,-3.8707,-3.8707,-3.8707,-3.8707,-3.8707,-3.8707,-3.8707,-3.8707,-3.8627,-3.8478,-3.8446,-3.835,-3.8106,-3.802,-3.7967,-3.7845,-3.7898,-3.8036,-3.8354,-3.8496,-3.8658,-3.8707,-3.8707,-3.8707,-3.8707,-3.8707,-3.8707,-3.8707,-3.8707,-3.8707,-3.8707,-3.8707,-3.8707,-4.5586,-4.5586,-4.5586,-4.5586,-4.5586,-4.5586,-4.5586,-4.5586,-4.5586,-4.5586,-4.5586,-4.5586,-4.5586,-4.5586,-4.5586,-4.5586,-4.5586,-4.5817,-4.6509,-4.6605,-4.6605,-4.6605,-4.6605,-4.6336,-4.5663,-4.5586,-4.5586,-4.5586,-4.5703,-4.5805,-4.5893,-4.6036,-4.6125,-4.6199,-4.6264,-4.6308,-4.6308,-4.6308,-4.6308,-4.6308,-4.6308,-4.6308,-4.6308,-4.6308,-4.6308,-4.6308,-4.6307,-4.6143,-4.5886,-4.5819,-4.5598,-4.5214,-4.4471,-4.4122,-4.3912,-4.3104,-4.2797,-4.2662,-4.1797,-4.1508,-4.1377,-4.0607,-4.0252,-4.0061,-3.9785,-3.9526,-3.9272,-3.9036,-3.8851,-3.8719,-3.8707,-3.8707,-3.8707,-3.8707,-3.8707,-3.8707,-3.8707,-3.8707,-3.8707,-3.8707,-3.8707,-3.8707,-3.8707,-3.8707,-3.8707,-3.8707,-3.8707,-3.8627,-3.8446,-3.8415,-3.8303,-3.8038,-3.7969,-3.7881,-3.7757,-3.7846,-3.8054,-3.8318,-3.8546,-3.8707,-3.8707,-3.8707,-3.8707,-3.8707,-3.8707,-3.8707,-3.8707,-3.8707,-3.8707,-3.8707,-3.8707,-3.8707,-4.5586,-4.5586,-4.5586,-4.5586,-4.5586,-4.5586,-4.5586,-4.5586,-4.5586,-4.5586,-4.5586,-4.5586,-4.5586,-4.5586,-4.5586,-4.5586,-4.5586,-4.5605,-4.5682,-4.5682,-4.5682,-4.5682,-4.5682,-4.5663,-4.5605,-4.5586,-4.5586,-4.5586,-4.5687,-4.5761,-4.5893,-4.6037,-4.613,-4.6206,-4.6273,-4.6306,-4.6308,-4.6308,-4.6308,-4.6308,-4.6308,-4.6308,-4.6308,-4.6308,-4.6308,-4.6308,-4.6307,-4.5809,-4.4996,-4.4916,-4.4344,-4.3472,-4.3349,-4.3235,-4.3085,-4.222,-4.1893,-4.1777,-4.0893,-4.0585,-4.0585,-4.0518,-4.0342,-4.0177,-4.0038,-3.9712,-3.935,-3.9156,-3.8931,-3.8762,-3.8738,-3.8707,-3.8707,-3.8707,-3.8707,-3.8707,-3.8707,-3.8707,-3.8707,-3.8707,-3.8707,-3.8707,-3.8707,-3.8707,-3.8707,-3.8707,-3.8707,-3.8658,-3.851,-3.8491,-3.8446,-3.8307,-3.8171,-3.8018,-3.7899,-3.7933,-3.8018,-3.8101,-3.8483,-3.8707,-3.8707,-3.8707,-3.8707,-3.8707,-3.8707,-3.8707,-3.8707,-3.8707,-3.8707,-3.8707,-3.8707,-3.8707,-4.5586,-4.5586,-4.5586,-4.5586,-4.5586,-4.5586,-4.5586,-4.5586,-4.5586,-4.5586,-4.5586,-4.5586,-4.5586,-4.5586,-4.5586,-4.5586,-4.5586,-4.5586,-4.5586,-4.5586,-4.5586,-4.5586,-4.5586,-4.5586,-4.5586,-4.5586,-4.5586,-4.5586,-4.5651,-4.5761,-4.5893,-4.6026,-4.6123,-4.6206,-4.6273,-4.6306,-4.6308,-4.6308,-4.6308,-4.6308,-4.6308,-4.6308,-4.6308,-4.6308,-4.5996,-4.5488,-4.5486,-4.4967,-4.4075,-4.3973,-4.3685,-4.3247,-4.2589,-4.1979,-4.1431,-4.1104,-4.0989,-4.0931,-4.0604,-4.0489,-4.0508,-4.0499,-4.0413,-4.0288,-4.0118,-3.9867,-3.9575,-3.9245,-3.9064,-3.8881,-3.8738,-3.8707,-3.8707,-3.8707,-3.8707,-3.8707,-3.8707,-3.8707,-3.8707,-3.8707,-3.8707,-3.8542,-3.8028,-3.7936,-3.7771,-3.7276,-3.7202,-3.7124,-3.6967,-3.6967,-3.6843,-3.6573,-3.644,-3.6339,-3.6288,-3.6321,-3.6404,-3.6471,-3.7725,-3.8501,-3.8559,-3.8559,-3.8609,-3.8707,-3.8707,-3.8707,-3.8707,-3.8707,-3.8707,-3.8707,-3.8707,-3.8707,-4.5586,-4.5586,-4.5586,-4.5586,-4.5586,-4.5586,-4.5586,-4.5586,-4.5586,-4.5586,-4.5586,-4.5586,-4.5586,-4.5586,-4.5586,-4.5586,-4.5586,-4.5586,-4.5586,-4.5586,-4.5586,-4.5586,-4.5586,-4.5586,-4.5586,-4.5586,-4.5586,-4.5586,-4.5671,-4.5746,-4.586,-4.6005,-4.6107,-4.6197,-4.627,-4.6305,-4.6308,-4.6308,-4.6152,-4.5898,-4.5898,-4.5898,-4.5898,-4.5898,-4.541,-4.459,-4.4586,-4.4067,-4.3181,-4.3062,-4.28,-4.2383,-4.1667,-4.1027,-4.0489,-4.0489,-4.0489,-4.0489,-4.0489,-4.0489,-4.0508,-4.0499,-4.0449,-4.0362,-4.0157,-3.9954,-3.9693,-3.9317,-3.9092,-3.8884,-3.8437,-3.8505,-3.8707,-3.8707,-3.8505,-3.8322,-3.8322,-3.812,-3.7936,-3.7936,-3.7936,-3.7771,-3.7202,-3.711,-3.6927,-3.6376,-3.6256,-3.6179,-3.6024,-3.5964,-3.581,-3.5439,-3.5305,-3.5221,-3.517,-3.5221,-3.5289,-3.5372,-3.6633,-3.7493,-3.7679,-3.7741,-3.7809,-3.7936,-3.7936,-3.7936,-3.7936,-3.8193,-3.8322,-3.8322,-3.8579,-3.8707,-4.5586,-4.5586,-4.5586,-4.5586,-4.5586,-4.5586,-4.5586,-4.5586,-4.5586,-4.5586,-4.5586,-4.5586,-4.5586,-4.5586,-4.5586,-4.5586,-4.5586,-4.5586,-4.5586,-4.5586,-4.5586,-4.5586,-4.5586,-4.5586,-4.5586,-4.5586,-4.5586,-4.5586,-4.5657,-4.5738,-4.58,-4.5941,-4.6054,-4.6206,-4.6261,-4.6301,-4.6308,-4.6289,-4.5859,-4.5,-4.498,-4.498,-4.498,-4.498,-4.4512,-4.3691,-4.3698,-4.3157,-4.2279,-4.2208,-4.1558,-4.0588,-4.0534,-4.0489,-4.0489,-4.0489,-4.0489,-4.0489,-4.0489,-4.0489,-4.0508,-4.0499,-4.0449,-4.0344,-4.0157,-3.9892,-3.9647,-3.9272,-3.9045,-3.8678,-3.7739,-3.8065,-3.8689,-3.8689,-3.8065,-3.7477,-3.7477,-3.6853,-3.6303,-3.6303,-3.6303,-3.6303,-3.6285,-3.6285,-3.6285,-3.6266,-3.6172,-3.6047,-3.5957,-3.5854,-3.5634,-3.5234,-3.5182,-3.5064,-3.48,-3.4907,-3.4995,-3.5082,-3.5256,-3.5573,-3.5994,-3.6065,-3.6161,-3.6303,-3.6303,-3.6303,-3.6303,-3.7092,-3.7477,-3.7526,-3.8303,-3.8689,-4.5586,-4.5586,-4.5586,-4.5586,-4.5586,-4.5586,-4.5586,-4.5586,-4.5586,-4.5586,-4.5586,-4.5586,-4.5586,-4.5586,-4.5586,-4.5586,-4.5586,-4.5586,-4.5586,-4.5586,-4.5586,-4.5586,-4.5586,-4.5586,-4.5586,-4.5586,-4.5586,-4.5586,-4.5657,-4.5738,-4.58,-4.5941,-4.6054,-4.6206,-4.6261,-4.6301,-4.6308,-4.5683,-4.5254,-4.498,-4.4375,-4.4082,-4.4082,-4.4082,-4.3613,-4.2793,-4.2785,-4.224,-4.1374,-4.1217,-4.0906,-4.0534,-4.0504,-4.0489,-4.0489,-4.0489,-4.0489,-4.0489,-4.0489,-4.0489,-4.0508,-4.0499,-4.0449,-4.0362,-4.0099,-3.9911,-3.9557,-3.8574,-3.8192,-3.7914,-3.6912,-3.6817,-3.7019,-3.7019,-3.6817,-3.6652,-3.6652,-3.6468,-3.6303,-3.6303,-3.6303,-3.6101,-3.5495,-3.5404,-3.5202,-3.4633,-3.4486,-3.4327,-3.4045,-3.38,-3.3577,-3.3395,-3.3296,-3.3211,-3.3159,-3.3262,-3.3364,-3.3529,-3.3723,-3.4478,-3.5866,-3.5994,-3.6102,-3.6303,-3.6303,-3.6303,-3.6303,-3.6541,-3.6652,-3.6652,-3.689,-3.7019,-4.5586,-4.5586,-4.5586,-4.5586,-4.5586,-4.5586,-4.5586,-4.5586,-4.5586,-4.5586,-4.5586,-4.5586,-4.5586,-4.5586,-4.5586,-4.5586,-4.5586,-4.5586,-4.5586,-4.5586,-4.5586,-4.5586,-4.5586,-4.5586,-4.5586,-4.5586,-4.5586,-4.5586,-4.564,-4.5703,-4.58,-4.5898,-4.6027,-4.6187,-4.6238,-4.6104,-4.5781,-4.5254,-4.4648,-4.3965,-4.3437,-4.3027,-4.2715,-4.3047,-4.2715,-4.1914,-4.1861,-4.1486,-4.0914,-4.075,-4.0617,-4.0489,-4.0489,-4.0489,-4.0489,-4.0489,-4.0489,-4.0489,-4.0489,-4.0489,-4.0508,-4.0482,-4.0396,-4.0212,-3.9618,-3.9312,-3.8917,-3.7713,-3.7322,-3.7027,-3.6019,-3.5789,-3.5881,-3.6211,-3.6046,-3.5789,-3.5789,-3.5532,-3.5312,-3.5312,-3.5312,-3.5147,-3.4614,-3.4523,-3.4376,-3.3862,-3.3698,-3.3502,-3.3178,-3.2912,-3.2719,-3.2573,-3.2523,-3.2507,-3.2507,-3.2588,-3.2734,-3.293,-3.3147,-3.3791,-3.495,-3.5046,-3.5162,-3.5293,-3.5312,-3.5312,-3.5312,-3.5642,-3.5789,-3.5789,-3.6138,-3.6303,-4.5586,-4.5586,-4.5586,-4.5586,-4.5586,-4.5586,-4.5586,-4.5586,-4.5586,-4.5586,-4.5586,-4.5586,-4.5586,-4.5586,-4.5586,-4.5586,-4.5586,-4.5586,-4.5586,-4.5586,-4.5586,-4.5586,-4.5586,-4.5586,-4.5586,-4.5586,-4.5586,-4.5586,-4.5586,-4.5651,-4.58,-4.5848,-4.5998,-4.6187,-4.6132,-4.5748,-4.5019,-4.4844,-4.3965,-4.2402,-4.2324,-4.1914,-4.1211,-4.1953,-4.1894,-4.1171,-4.1058,-4.0921,-4.0798,-4.0737,-4.0635,-4.0489,-4.0489,-4.0489,-4.0489,-4.0489,-4.0489,-4.0489,-4.0489,-4.0489,-4.0492,-4.0413,-4.025,-3.9891,-3.8909,-3.8342,-3.7879,-3.6771,-3.638,-3.6057,-3.5128,-3.488,-3.5082,-3.5881,-3.5477,-3.488,-3.488,-3.4321,-3.3807,-3.3807,-3.3807,-3.3807,-3.3807,-3.3807,-3.3807,-3.3788,-3.3633,-3.3375,-3.3073,-3.2948,-3.282,-3.2557,-3.2573,-3.2606,-3.2541,-3.2702,-3.2876,-3.3006,-3.3256,-3.3481,-3.3605,-3.3671,-3.3726,-3.3807,-3.3807,-3.3807,-3.3807,-3.4541,-3.488,-3.4899,-3.5697,-3.6064,-4.5586,-4.5586,-4.5586,-4.5586,-4.5586,-4.5586,-4.5586,-4.5586,-4.5586,-4.5586,-4.5586,-4.5586,-4.5586,-4.5586,-4.5586,-4.5586,-4.5586,-4.5586,-4.5586,-4.5586,-4.5586,-4.5586,-4.5586,-4.5586,-4.5586,-4.5586,-4.5586,-4.5586,-4.5586,-4.5651,-4.58,-4.5848,-4.5998,-4.6187,-4.5586,-4.5163,-4.5,-4.3633,-4.2773,0.0,-4.1758,-4.1367,-4.1211,-4.1387,-4.1327,-4.1125,-4.1035,-4.0921,-4.0787,-4.0732,-4.0626,-4.0489,-4.0489,-4.0489,-4.0489,-4.0489,-4.0489,-4.0489,-4.0489,-4.0489,-4.0492,-4.0413,-3.9884,-3.9165,-3.8677,-3.7924,-3.7012,-3.5884,-3.5522,-3.5239,-3.4311,-3.4064,-3.4119,-3.4284,-3.4192,-3.4064,-3.4064,-3.3917,-3.3807,-3.3807,-3.3807,-3.3807,-3.3807,-3.3807,-3.378,-3.3726,-3.3643,-3.3491,-3.319,-3.3037,-3.2898,-3.2687,-3.2734,-3.277,-3.2796,-3.2997,-3.3142,-3.3232,-3.3444,-3.3577,-3.3605,-3.3671,-3.3726,-3.3807,-3.3807,-3.3807,-3.3807,-3.3972,-3.4064,-3.4064,-3.4247,-3.4339,-4.5622,-4.5586,-4.5586,-4.5586,-4.5586,-4.5586,-4.5586,-4.5586,-4.5586,-4.5586,-4.5586,-4.5586,-4.5586,-4.5586,-4.5586,-4.5586,-4.5586,-4.5586,-4.5586,-4.5586,-4.5586,-4.5586,-4.5586,-4.5586,-4.5586,-4.5586,-4.5586,-4.5586,-4.5586,-4.5651,-4.58,-4.5848,-4.5998,-4.6187,-4.541,-4.4792,-4.4375,-4.3066,-4.2207,-4.1816,-4.1406,-4.1191,-4.1191,-4.1191,-4.1151,-4.1099,-4.1031,-4.0928,-4.0787,-4.0718,-4.0615,-4.0489,-4.0489,-4.0489,-4.0489,-4.0489,-4.0489,-4.0489,-4.0489,-4.0239,-3.9912,-3.9852,-3.9139,-3.8213,-3.7542,-3.6848,-3.6061,-3.5013,-3.4637,-3.4412,-3.3917,-3.3807,-3.3807,-3.3807,-3.3807,-3.3807,-3.3807,-3.3807,-3.3807,-3.3807,-3.3807,-3.3807,-3.3807,-3.3807,-3.378,-3.3698,-3.3671,-3.3559,-3.3345,-3.3208,-3.3117,-3.2912,-3.2975,-3.3042,-3.3015,-3.3165,-3.3298,-3.3357,-3.352,-3.3587,-3.3661,-3.3726,-3.378,-3.3807,-3.3807,-3.3807,-3.3807,-3.3807,-3.3807,-3.3807,-3.3807,-3.3807,-4.564,-4.5622,-4.5586,-4.5586,-4.5586,-4.5586,-4.5586,-4.5586,-4.5586,-4.5586,-4.5586,-4.5586,-4.5586,-4.5586,-4.5586,-4.5586,-4.5586,-4.5586,-4.5586,-4.5586,-4.5586,-4.5586,-4.5586,-4.5586,-4.5586,-4.5586,-4.5586,-4.5586,-4.5586,-4.5651,-4.58,-4.5848,-4.592,-4.5967,-4.5195,-4.4362,-4.3476,-4.2617,-4.1855,-4.1191,-4.1191,-4.1191,-4.1191,-4.1191,-4.115,-4.1097,-4.1027,-4.0921,-4.0787,-4.0738,-4.0635,-4.0489,-4.0489,-4.0489,-4.0489,-4.0489,-4.0489,-4.0469,-4.0335,-3.9854,-3.9258,-3.9058,-3.8276,-3.7241,-3.6369,-3.576,-3.5174,-3.4334,-3.3972,-3.3815,-3.3788,-3.3807,-3.3807,-3.3807,-3.3807,-3.3807,-3.3807,-3.3807,-3.3807,-3.3807,-3.3807,-3.3807,-3.3807,-3.3807,-3.378,-3.3726,-3.3726,-3.3643,-3.3452,-3.3422,-3.3364,-3.3178,-3.3256,-3.3268,-3.3118,-3.3268,-3.3382,-3.3364,-3.3491,-3.3587,-3.3671,-3.3753,-3.3807,-3.3807,-3.3807,-3.3807,-3.3807,-3.3807,-3.3807,-3.3807,-3.3807,-3.3807,-4.569,-4.564,-4.5586,-4.5586,-4.5586,-4.5586,-4.5586,-4.5586,-4.5586,-4.5586,-4.5586,-4.5586,-4.5586,-4.5586,-4.5586,-4.5586,-4.5586,-4.5586,-4.5586,-4.5586,-4.5586,-4.5586,-4.5586,-4.5586,-4.5586,-4.5586,-4.5586,-4.5586,-4.5586,-4.5651,-4.58,-4.5848,-4.5648,-4.5089,-4.4298,-4.3464,-4.2578,-4.1777,-4.1308,-4.1191,-4.1191,-4.1191,-4.1191,-4.1132,-4.1103,-4.1094,-4.1037,-4.091,-4.0776,-4.0732,-4.0626,-4.0489,-4.0489,-4.0489,-4.0489,-4.0489,-4.0489,-4.0392,-3.97,-3.9392,-3.9161,-3.8331,-3.7444,-3.6583,-3.6217,-3.5449,-3.4626,-3.4234,-3.3998,-3.3868,-3.3834,-3.3807,-3.3807,-3.3807,-3.3807,-3.3807,-3.3807,-3.3807,-3.3807,-3.3807,-3.3807,-3.3807,-3.3807,-3.3807,-3.3807,-3.3807,-3.3807,-3.3726,-3.3605,-3.3577,-3.352,-3.3364,-3.3397,-3.3306,-3.3117,-3.322,-3.328,-3.3165,-3.3375,-3.3549,-3.3605,-3.3726,-3.3807,-3.3807,-3.3807,-3.3807,-3.3807,-3.3807,-3.3807,-3.3807,-3.3807,-3.3807,-4.5765,-4.5706,-4.5657,-4.5657,-4.564,-4.5586,-4.5586,-4.5586,-4.5586,-4.5586,-4.5586,-4.5586,-4.5586,-4.5586,-4.5586,-4.5586,-4.5586,-4.5586,-4.5586,-4.5586,-4.5586,-4.5586,-4.5586,-4.5586,-4.5586,-4.5586,-4.5586,-4.5586,-4.5586,-4.5651,-4.58,-4.5848,-4.559,-4.4913,-4.4118,-4.3288,-4.2402,-4.1601,-4.1191,-4.1191,-4.1191,-4.1191,-4.1191,-4.1129,-4.1094,-4.1091,-4.1025,-4.0921,-4.0792,-4.0739,-4.0612,-4.0489,-4.0489,-4.0489,-4.0489,-4.0489,-4.0215,-3.9773,-3.9411,-3.8661,-3.7777,-3.7363,-3.6577,-3.5777,-3.555,-3.5075,-3.4539,-3.4245,-3.4023,-3.3868,-3.3834,-3.3807,-3.3807,-3.3807,-3.3807,-3.3807,-3.3807,-3.3807,-3.3807,-3.3807,-3.3807,-3.3807,-3.3807,-3.3807,-3.3807,-3.3807,-3.3807,-3.3753,-3.3633,-3.3605,-3.3549,-3.3393,-3.3368,-3.3284,-3.3118,-3.3104,-3.3127,-3.3086,-3.3316,-3.3509,-3.3605,-3.3726,-3.3807,-3.3807,-3.3807,-3.3807,-3.3807,-3.3807,-3.3807,-3.3807,-3.3807,-3.3807,-4.5841,-4.5795,-4.5738,-4.5742,-4.569,-4.5657,-4.564,-4.5622,-4.5622,-4.5603,-4.5586,-4.5586,-4.5586,-4.5586,-4.5586,-4.5586,-4.5586,-4.5586,-4.5586,-4.5586,-4.5586,-4.5586,-4.5586,-4.5586,-4.5586,-4.5586,-4.5586,-4.5586,-4.5586,-4.5671,-4.5786,-4.5654,-4.5249,-4.4571,-4.3786,-4.2954,-4.209,-4.1484,-4.1191,-4.1191,-4.1191,-4.1191,-4.1172,-4.1125,-4.1081,-4.1075,-4.0994,-4.0904,-4.0788,-4.0713,-4.0598,-4.0489,-4.0489,-4.0489,-4.0469,-4.0258,-3.9831,-3.9234,-3.8777,-3.7796,-3.668,-3.6469,-3.5897,-3.5258,-3.5069,-3.4851,-3.4586,-3.4316,-3.4099,-3.3921,-3.386,-3.3815,-3.3807,-3.3807,-3.3807,-3.3807,-3.3807,-3.3807,-3.3807,-3.3807,-3.3807,-3.3807,-3.3807,-3.3807,-3.3807,-3.3807,-3.3807,-3.3753,-3.3643,-3.3633,-3.3577,-3.3452,-3.3386,-3.325,-3.3135,-3.3064,-3.3064,-3.3129,-3.3304,-3.3499,-3.3633,-3.3726,-3.3807,-3.3807,-3.3807,-3.3807,-3.3807,-3.3807,-3.3807,-3.3807,-3.3807,-3.3807,-4.5914,-4.5886,-4.5866,-4.5815,-4.58,-4.577,-4.5709,-4.5693,-4.5693,-4.5603,-4.5586,-4.5586,-4.5586,-4.5586,-4.5586,-4.5586,-4.5586,-4.5586,-4.5586,-4.5586,-4.5586,-4.5586,-4.5586,-4.5586,-4.5586,-4.5586,-4.5586,-4.5586,-4.5586,-4.5654,-4.5781,-4.508,-4.4335,-4.3591,-4.2861,-4.2056,-4.119,-4.1191,-4.1191,-4.1191,-4.1191,-4.1172,-4.1112,-4.1103,-4.1074,-4.0994,-4.0935,-4.0867,-4.0788,-4.066,-4.0554,-4.0489,-4.0489,-4.0489,-4.0412,-3.9642,-3.9335,-3.9046,-3.7411,-3.6776,-3.6584,-3.5815,-3.5451,-3.5266,-3.5138,-3.4944,-3.4733,-3.4476,-3.4245,-3.4074,-3.3921,-3.386,-3.3807,-3.3807,-3.3807,-3.3807,-3.3807,-3.3807,-3.3807,-3.3807,-3.3807,-3.3807,-3.3807,-3.3807,-3.3807,-3.3807,-3.3807,-3.378,-3.3698,-3.3698,-3.3671,-3.3605,-3.3462,-3.3352,-3.3206,-3.3136,-3.3113,-3.3189,-3.3393,-3.3546,-3.3671,-3.378,-3.3807,-3.3807,-3.3807,-3.3807,-3.3807,-3.3807,-3.3807,-3.3807,-3.3807,-3.3807,-4.6052,-4.6008,-4.5972,-4.5929,-4.5887,-4.5852,-4.5824,-4.5795,-4.5761,-4.5727,-4.5727,-4.5727,-4.5727,-4.5651,-4.5586,-4.5586,-4.5586,-4.5586,-4.5586,-4.5586,-4.5586,-4.5586,-4.5586,-4.5586,-4.5586,-4.5586,-4.5586,-4.5586,-4.5586,-4.5654,-4.5781,-4.5034,-4.4256,-4.3513,-4.2773,-4.1995,-4.1171,-4.1191,-4.1191,-4.1191,-4.1191,-4.1152,-4.1091,-4.1097,-4.1061,-4.0987,-4.0876,-4.0807,-4.0726,-4.0631,-4.0554,-4.0489,-4.0489,-4.0181,-3.9685,-3.9415,-3.8589,-3.7536,-3.6921,-3.6358,-3.5892,-3.5589,-3.5407,-3.5262,-3.5138,-3.4944,-3.4733,-3.4476,-3.4245,-3.4074,-3.3921,-3.3842,-3.3807,-3.3807,-3.3807,-3.3807,-3.3807,-3.3807,-3.3807,-3.3807,-3.3807,-3.3807,-3.3807,-3.3807,-3.3807,-3.3807,-3.3807,-3.3788,-3.3698,-3.3698,-3.3671,-3.3587,-3.3517,-3.3436,-3.3406,-3.3328,-3.3334,-3.3382,-3.3509,-3.3603,-3.3698,-3.378,-3.3807,-3.3807,-3.3807,-3.3807,-3.3807,-3.3807,-3.3807,-3.3807,-3.3807,-3.3807,-4.6156,-4.6098,-4.6063,-4.6036,-4.5998,-4.5964,-4.5937,-4.5893,-4.5848,-4.5841,-4.5822,-4.5822,-4.5822,-4.5757,-4.57,-4.5668,-4.5671,-4.5654,-4.5654,-4.5657,-4.564,-4.564,-4.5603,-4.5586,-4.5586,-4.5586,-4.5586,-4.5586,-4.5586,0.0,-4.533,-4.4601,-4.3712,-4.2721,-4.2217,-4.1724,-4.1191,-4.1191,-4.1191,-4.1191,-4.1191,-4.1152,-4.1108,-4.1108,-4.1047,-4.0972,-4.0839,-4.0757,-4.0687,-4.0603,-4.0539,-4.0469,-4.02,-3.9777,-3.9223,-3.8646,-3.7689,-3.6671,-3.6383,-3.5955,-3.5493,-3.5493,-3.5407,-3.5277,-3.5171,-3.4999,-3.4774,-3.4542,-3.4293,-3.4099,-3.3972,-3.3868,-3.3807,-3.3807,-3.3807,-3.3807,-3.3807,-3.3807,-3.3807,-3.3807,-3.3807,-3.3807,-3.3807,-3.3807,-3.3807,-3.3807,-3.3807,-3.3788,-3.3752,-3.3733,-3.3698,-3.3671,-3.3623,-3.3556,-3.3556,-3.3502,-3.3504,-3.357,-3.3597,-3.3661,-3.3726,-3.378,-3.3807,-3.3807,-3.3807,-3.3807,-3.3807,-3.3807,-3.3807,-3.3807,-3.3807,-3.3807,0.0,0.0,0.0,-4.6118,-4.6105,-4.6084,-4.6018,-4.6007,-4.5997,-4.591,-4.5898,-4.5898,-4.5898,-4.5898,-4.5886,-4.5808,-4.5805,-4.5795,-4.5795,-4.5738,-4.5709,-4.5709,-4.564,-4.5622,-4.5622,-4.5603,-4.5603,-4.5603,-4.5566,-4.5235,-4.4441,-4.3684,-4.2587,-4.1148,-4.1091,-4.1126,-4.1191,-4.1191,-4.1191,-4.1191,-4.1191,-4.1151,-4.1099,-4.1101,-4.1025,-4.0907,-4.0834,-4.0764,-4.0687,-4.0549,-4.0489,-4.0373,-3.9585,-3.9258,-3.9008,-3.7315,-3.6685,-3.6551,-3.5762,-3.5493,-3.5493,-3.5493,-3.5412,-3.5285,-3.5207,-3.5069,-3.4851,-3.4649,-3.4409,-3.4173,-3.4023,-3.3895,-3.3807,-3.3807,-3.3807,-3.3807,-3.3807,-3.3807,-3.3807,-3.3807,-3.3807,-3.3807,-3.3807,-3.3807,-3.3807,-3.3807,-3.3807,-3.3807,-3.3807,-3.3807,-3.3807,-3.3807,-3.3752,-3.3715,-3.3715,-3.3633,-3.3615,-3.3715,-3.3715,-3.3733,-3.3807,-3.3807,-3.3807,-3.3807,-3.3807,-3.3807,-3.3807,-3.3807,-3.3807,-3.3807,-3.3807,-3.3807,-4.6284,0.0,0.0,0.0,0.0,0.0,-4.615,-4.6138,-4.6144,-4.6118,-4.6111,-4.6111,-4.6111,-4.6111,-4.6111,-4.6096,-4.5977,-4.5874,-4.5866,-4.5852,-4.5824,-4.5776,-4.5765,-4.5735,-4.5735,-4.5706,-4.5657,0.0,-4.5026,-4.4581,-4.4415,-4.3179,-4.2046,-4.1057,-4.1074,-4.1129,-4.1191,-4.1191,-4.1191,-4.1191,-4.1191,-4.1151,-4.1097,-4.1055,-4.0974,-4.0878,-4.0773,-4.0694,-4.0617,-4.0539,-4.0158,-3.96,-3.9388,-3.8522,-3.7362,-3.6867,-3.6315,-3.5801,-3.557,-3.5493,-3.5493,-3.5493,-3.5417,-3.5289,-3.5174,-3.4996,-3.4775,-3.4536,-3.4304,-3.4078,-3.3884,-3.3834,-3.3807,-3.3807,-3.3807,-3.3807,-3.3807,-3.3807,-3.3807,-3.3807,-3.3807,-3.3807,-3.3807,-3.3807,-3.3807,-3.3807,-3.3807,-3.3807,-3.3807,-3.3807,-3.3807,-3.3807,-3.3788,-3.377,-3.377,-3.377,-3.3752,-3.377,-3.377,-3.3788,-3.3807,-3.3807,-3.3807,-3.3807,-3.3807,-3.3807,-3.3807,-3.3807,-3.3807,-3.3807,-3.3807,-3.3807,-4.6308,-4.6307,-4.6305,-4.6301,0.0,0.0,-4.6241,-4.6234,-4.623,-4.6206,-4.5928,-4.5694,-4.5694,-4.5401,-4.5167,-4.5167,-4.5066,-4.522,-4.589,-4.5953,-4.5937,-4.5893,-4.586,-4.5689,-4.5307,-4.5194,-4.5012,-4.4633,-4.4119,-4.3673,-4.3395,-4.2294,-4.1459,-4.1013,-4.1072,-4.1128,-4.1191,-4.1191,-4.1191,-4.1191,-4.1191,-4.1169,-4.1094,-4.1031,-4.0961,-4.0849,-4.0742,-4.0648,-4.0519,-4.0158,-3.9734,-3.9234,-3.8503,-3.7599,-3.6656,-3.6329,-3.5892,-3.5493,-3.5493,-3.5493,-3.5493,-3.5479,-3.5388,-3.5277,-3.5107,-3.4924,-3.4718,-3.4417,-3.4195,-3.3981,-3.385,-3.3807,-3.3807,-3.3807,-3.3807,-3.3807,-3.3807,-3.3807,-3.3807,-3.3807,-3.3807,-3.3807,-3.3807,-3.3807,-3.3807,-3.3807,-3.3807,-3.3807,-3.3807,-3.3807,-3.3807,-3.3807,-3.3807,-3.3807,-3.3807,-3.3807,-3.3807,-3.3807,-3.3807,-3.3807,-3.3807,-3.3807,-3.3807,-3.3807,-3.3807,-3.3807,-3.3807,-3.3807,-3.3807,-3.3807,-3.3807,-3.3807,-4.6284,-4.6285,-4.6268,-4.6172,-4.6152,0.0,-4.6028,-4.6007,-4.5985,-4.5938,-4.535,-4.4862,-4.4862,-4.4218,-4.371,-4.371,-4.3707,-4.42,-4.5612,-4.5771,-4.5736,-4.5736,-4.5681,-4.5318,-4.4466,-4.4307,-4.3959,-4.3181,-4.3038,-4.2661,-4.1912,-4.1246,-4.0937,-4.1013,-4.1069,-4.1126,-4.1191,-4.1191,-4.1191,-4.1191,-4.1191,-4.1168,-4.1108,-4.1027,-4.0921,-4.0807,-4.0718,-4.0577,-4.0296,-3.9488,-3.9161,-3.8988,-3.7334,-3.6661,-3.6488,-3.5776,-3.5493,-3.5493,-3.5493,-3.5493,-3.5479,-3.5417,-3.5339,-3.5245,-3.5038,-3.4832,-3.4621,-3.4345,-3.4061,-3.3891,-3.3815,-3.3807,-3.3807,-3.3807,-3.3807,-3.3807,-3.3807,-3.3807,-3.3807,-3.3807,-3.3807,-3.3807,-3.3807,-3.3807,-3.3807,-3.3807,-3.3807,-3.3807,-3.3807,-3.3807,-3.3807,-3.3807,-3.3807,-3.3807,-3.3807,-3.3807,-3.3807,-3.3807,-3.3807,-3.3807,-3.3807,-3.3807,-3.3807,-3.3807,-3.3807,-3.3807,-3.3807,-3.3807,-3.3807,-3.3807,-3.3807,-3.3807,-4.6218,-4.6225,-4.6056,-4.5414,-4.526,0.0,-4.437,-4.4213,-4.4196,-4.4199,-4.4062,-4.3945,-4.3945,-4.3808,-4.3691,-4.3691,-4.3691,-4.3782,-4.4055,-4.4075,-4.4064,-4.4066,-4.4012,-4.3895,-4.3703,-4.3594,-4.344,-4.3266,-4.2613,-4.1859,-4.1079,-4.0956,-4.0954,-4.109,-4.1097,-4.1129,-4.1191,-4.1191,-4.1191,-4.1191,-4.1152,-4.1107,-4.1108,-4.1028,-4.0937,-4.0807,-4.0732,-4.026,-3.9469,-3.8604,-3.8257,-3.8142,-3.7123,-3.6315,-3.5718,-3.5565,-3.5493,-3.5493,-3.5493,-3.546,-3.5412,-3.535,-3.5239,-3.5088,-3.4908,-3.4711,-3.4454,-3.4067,-3.3913,-3.3815,-3.3788,-3.3807,-3.3807,-3.3807,-3.3807,-3.3807,-3.3807,-3.3807,-3.3807,-3.3807,-3.3807,-3.3807,-3.3807,-3.3807,-3.3807,-3.3807,-3.3807,-3.3807,-3.3807,-3.3807,-3.3807,-3.3807,-3.3807,-3.3807,-3.3807,-3.3807,-3.3807,-3.3807,-3.3807,-3.3807,-3.3807,-3.3807,-3.3807,-3.3807,-3.3807,-3.3807,-3.3807,-3.3807,-3.3807,-3.3807,-3.3807,-3.3807,-4.615,-4.583,-4.5411,-4.5035,-4.4629,0.0,0.0,-4.3645,-4.3648,-4.3657,-4.3329,-4.3056,-4.3056,-4.2705,-4.2392,-4.241,-4.2396,-4.2382,-4.2362,-4.3091,-4.3642,-4.3654,-4.3587,-4.3383,-4.2942,-4.281,-4.2565,-4.2098,-4.1654,-4.1241,-4.0873,-4.0915,-4.0994,-4.1094,-4.1099,-4.113,-4.1191,-4.1191,-4.1191,-4.1191,-4.1132,-4.1105,-4.1101,-4.1037,-4.0921,-4.0804,-4.0739,-4.0183,-3.9219,-3.8354,-3.7738,-3.7276,-3.643,-3.5872,-3.5493,-3.5493,-3.5493,-3.5493,-3.5493,-3.546,-3.5398,-3.532,-3.5174,-3.5019,-3.4772,-3.4458,-3.4154,-3.3931,-3.3825,-3.3807,-3.3807,-3.3807,-3.3807,-3.3807,-3.3807,-3.3807,-3.3807,-3.3807,-3.3807,-3.3807,-3.3807,-3.3807,-3.3807,-3.3807,-3.3807,-3.3807,-3.3807,-3.3807,-3.3807,-3.3807,-3.3807,-3.3807,-3.3807,-3.3807,-3.3807,-3.3807,-3.3807,-3.3807,-3.3807,-3.3807,-3.3807,-3.3807,-3.3807,-3.3807,-3.3807,-3.3807,-3.3807,-3.3807,-3.3807,-3.3807,-3.3807,-3.3807,-4.6063,-4.5418,-4.4732,-4.4624,-4.3955,-4.3273,0.0,0.0,0.0,-4.3095,-4.2577,-4.2135,-4.2135,-4.1566,-4.1078,-4.1055,0.0,0.0,0.0,-4.2304,0.0,-4.3195,-4.3154,-4.2841,-4.2149,-4.2006,-4.1645,-4.0873,-4.0815,-4.0837,-4.0908,-4.0957,-4.1031,-4.1097,-4.1101,-4.113,-4.1191,-4.1191,-4.1191,-4.1191,-4.1131,-4.1101,-4.1094,-4.1019,-4.0915,-4.0788,-4.0539,-3.9918,-3.8969,-3.8104,-3.7238,-3.6411,-3.5757,-3.5493,-3.5493,-3.5493,-3.5493,-3.5493,-3.5493,-3.5446,-3.5364,-3.5293,-3.5091,-3.4831,-3.4583,-3.4232,-3.3891,-3.3815,-3.3807,-3.3807,-3.3807,-3.3807,-3.3807,-3.3807,-3.3807,-3.3807,-3.3807,-3.3807,-3.3807,-3.3807,-3.3807,-3.3807,-3.3807,-3.3807,-3.3807,-3.3807,-3.3807,-3.3807,-3.3807,-3.3807,-3.3807,-3.3807,-3.3807,-3.3807,-3.3807,-3.3807,-3.3807,-3.3807,-3.3807,-3.3807,-3.3807,-3.3807,-3.3807,-3.3807,-3.3807,-3.3807,-3.3807,-3.3807,-3.3807,-3.3807,-3.3807,-3.3807,-4.5912,-4.5277,-4.4439,-4.3663,-4.2867,-4.2092,-4.1373,0.0,-4.1213,-4.1279,0.0,-4.1162,-4.1162,0.0,0.0,-4.0921,-4.0968,-4.1011,-4.1003,-4.1238,-4.1396,-4.1405,-4.1386,-4.1341,-4.124,-4.1183,-4.1071,-4.0907,-4.0896,-4.0882,-4.0902,-4.0955,-4.1027,-4.1097,-4.1107,-4.1132,-4.1191,-4.1191,-4.1191,-4.1191,-4.1126,-4.1094,-4.109,-4.0972,-4.0878,-4.075,-3.9849,-3.8955,-3.8084,-3.7219,-3.6372,-3.5641,-3.5545,-3.5493,-3.5493,-3.5493,-3.5493,-3.5493,-3.5493,-3.5412,-3.53,-3.5155,-3.4832,-3.4431,-3.4221,-3.403,-3.3902,-3.3815,-3.3807,-3.3807,-3.3807,-3.3807,-3.3807,-3.3807,-3.3807,-3.3807,-3.3807,-3.3807,-3.3807,-3.3807,-3.3807,-3.3807,-3.3807,-3.3807,-3.3807,-3.3807,-3.3807,-3.3807,-3.3807,-3.3807,-3.3807,-3.3807,-3.3807,-3.3807,-3.3807,-3.3807,-3.3807,-3.3807,-3.3807,-3.3807,-3.3807,-3.3807,-3.3807,-3.3807,-3.3807,-3.3807,-3.3807,-3.3807,-3.3807,-3.3807,-3.3807,-3.3807,-4.5824,-4.4833,0.0,0.0,0.0,0.0,-4.0862,0.0,-4.0848,0.0,0.0,0.0,0.0,0.0,0.0,0.0,-4.0896,-4.0949,0.0,0.0,-4.107,-4.1103,0.0,0.0,-4.1103,-4.1065,-4.1057,-4.1019,-4.098,-4.0986,-4.1011,-4.1042,-4.1069,-4.1103,-4.111,-4.1132,-4.1191,-4.1191,-4.1172,-4.1132,-4.1105,-4.1081,-4.1037,-4.0941,-4.0576,-3.9966,-3.9494,-3.8517,-3.7219,-3.6853,-3.6238,-3.5493,-3.5493,-3.5493,-3.5493,-3.5493,-3.5493,-3.5493,-3.5493,-3.5412,-3.5251,-3.4963,-3.4651,-3.4363,-3.4111,-3.3954,-3.3842,-3.3807,-3.3807,-3.3807,-3.3807,-3.3807,-3.3807,-3.3807,-3.3807,-3.3807,-3.3807,-3.3807,-3.3807,-3.3807,-3.3807,-3.3807,-3.3807,-3.3807,-3.3807,-3.3807,-3.3807,-3.3807,-3.3807,-3.3807,-3.3807,-3.3807,-3.3807,-3.3807,-3.3807,-3.3807,-3.3807,-3.3807,-3.3807,-3.3807,-3.3807,-3.3807,-3.3807,-3.3807,-3.3807,-3.3807,-3.3807,-3.3807,-3.3807,-3.3807,-3.3807,-3.3807,-4.5719,0.0,0.0,0.0,0.0,0.0,0.0,0.0,0.0,0.0,0.0,0.0,0.0,0.0,-4.0773,-4.0742,0.0,-4.0858,-4.0849,-4.0904,-4.0968,-4.1062,0.0,0.0,0.0,-4.1103,-4.1097,-4.1101,-4.1058,-4.1058,-4.1101,-4.1091,-4.1101,-4.1108,-4.1111,-4.1152,-4.1191,-4.1191,-4.1172,-4.1091,-4.1101,-4.1051,-4.1007,-4.0906,-4.0331,-3.9387,-3.908,-3.8094,-3.668,-3.6469,-3.6045,-3.5493,-3.5493,-3.5493,-3.5493,-3.5493,-3.5493,-3.5493,-3.5493,-3.5398,-3.5168,-3.4832,-3.4551,-3.4344,-3.4087,-3.3902,-3.3825,-3.3807,-3.3807,-3.3807,-3.3807,-3.3807,-3.3807,-3.3807,-3.3807,-3.3807,-3.3807,-3.3807,-3.3807,-3.3807,-3.3807,-3.3807,-3.3807,-3.3807,-3.3807,-3.3807,-3.3807,-3.3807,-3.3807,-3.3807,-3.3807,-3.3807,-3.3807,-3.3807,-3.3807,-3.3807,-3.3807,-3.3807,-3.3807,-3.3807,-3.3807,-3.3807,-3.3807,-3.3807,-3.3807,-3.3807,-3.3807,-3.3807,-3.3807,-3.3807,-3.3807,-3.3807,0.0,0.0,0.0,-4.3104,0.0,0.0,0.0,0.0,-4.0617,0.0,0.0,0.0,0.0,0.0,-4.0668,-4.0621,-4.0668,0.0,0.0,-4.0757,-4.0867,-4.0992,-4.1062,0.0,0.0,-4.1094,-4.1092,-4.1099,-4.1103,-4.1103,-4.1099,-4.1107,-4.1091,-4.1091,-4.1152,-4.1191,-4.1191,-4.1191,-4.1172,-4.1091,-4.1091,-4.1057,-4.1007,-4.0849,-4.028,-3.9335,-3.845,-3.7526,-3.6642,-3.5872,-3.5512,-3.5493,-3.5493,-3.5493,-3.5493,-3.5493,-3.5493,-3.5493,-3.5493,-3.5339,-3.5069,-3.4794,-3.4559,-3.4348,-3.408,-3.3957,-3.3862,-3.3825,-3.3807,-3.3807,-3.3807,-3.3807,-3.3807,-3.3807,-3.3807,-3.3807,-3.3807,-3.3807,-3.3807,-3.3807,-3.3807,-3.3807,-3.3807,-3.3807,-3.3807,-3.3807,-3.3807,-3.3807,-3.3807,-3.3807,-3.3807,-3.3807,-3.3807,-3.3807,-3.3807,-3.3807,-3.3807,-3.3807,-3.3807,-3.3807,-3.3807,-3.3807,-3.3807,-3.3807,-3.3807,-3.3807,-3.3807,-3.3807,-3.3807,-3.3807,-3.3807,-3.3807,0.0,0.0,-4.297,-4.2374,0.0,0.0,0.0,0.0,0.0,0.0,0.0,0.0,0.0,-4.0569,-4.0569,-4.0534,-4.0583,-4.0631,0.0,-4.0681,-4.0768,-4.0857,-4.098,-4.1058,0.0,0.0,-4.1093,-4.1094,-4.1132,-4.1171,-4.117,-4.1171,-4.1171,-4.1171,-4.1191,-4.1191,-4.1191,-4.1191,-4.1171,-4.1103,-4.1104,-4.1037,-4.0913,-4.0246,-3.9437,-3.8491,-3.7555,-3.668,-3.5892,-3.5622,-3.5493,-3.5493,-3.5493,-3.5493,-3.5493,-3.5493,-3.5493,-3.5493,-3.5398,-3.527,-3.5122,-3.485,-3.4637,-3.442,-3.4165,-3.3991,-3.388,-3.3825,-3.3807,-3.3807,-3.3807,-3.3807,-3.3807,-3.3807,-3.3807,-3.3807,-3.3807,-3.3807,-3.3807,-3.3807,-3.3807,-3.3807,-3.3807,-3.3807,-3.3807,-3.3807,-3.3807,-3.3807,-3.3807,-3.3807,-3.3807,-3.3807,-3.3807,-3.3807,-3.3807,-3.3807,-3.3807,-3.3807,-3.3807,-3.3807,-3.3807,-3.3807,-3.3807,-3.3807,-3.3807,-3.3807,-3.3807,-3.3807,-3.3807,-3.3807,-3.3807,-3.3807,-4.4451,-4.3489,0.0,-4.195,-4.1143,0.0,-4.0489,0.0,-4.0489,0.0,0.0,0.0,0.0,0.0,-4.0489,-4.0489,-4.0539,-4.0573,0.0,-4.064,-4.0688,-4.0754,-4.0885,-4.0986,-4.1051,-4.1091,-4.1103,-4.109,-4.1132,-4.1172,0.0,0.0,-4.1191,-4.1191,-4.1191,-4.1191,-4.1191,-4.1172,-4.115,-4.1099,-4.107,-4.1007,-4.0869,-3.9893,-3.8974,-3.8059,-3.7098,-3.6238,-3.5493,-3.5493,-3.5493,-3.5493,-3.5493,-3.5493,-3.5493,-3.5493,-3.5493,-3.5493,-3.535,-3.527,-3.519,-3.4905,-3.4698,-3.4515,-3.42,-3.4023,-3.3925,-3.3825,-3.3807,-3.3807,-3.3807,-3.3807,-3.3807,-3.3807,-3.3807,-3.3807,-3.3807,-3.3807,-3.3807,-3.3807,-3.3807,-3.3807,-3.3807,-3.3807,-3.3807,-3.3807,-3.3807,-3.3807,-3.3807,-3.3807,-3.3807,-3.3807,-3.3807,-3.3807,-3.3807,-3.3807,-3.3807,-3.3807,-3.3807,-3.3807,-3.3807,-3.3807,-3.3807,-3.3807,-3.3807,-3.3807,-3.3807,-3.3807,-3.3807,-3.3807,-3.3807,-3.3807]},{"header":{"parameterUnit":"m.s-1","parameterCategory":1,"la1":30.6,"la2":29.2853,"lo1":-89.7004,"lo2":-87.6739,"dy":0.0162,"dx":0.0183,"nx":112,"ny":82,"refTime":"2023-08-12T12:00:00:Z","depth":0,"parameterNumber":3,"parameterNumberName":"V-component_of_WINDS"},"data":[0.0,0.0,0.0,0.0,0.0,0.0,0.0,0.0,0.0,0.0,0.0,0.0,0.0,0.0,0.0,0.0,0.0,0.0,0.0,0.0,0.0,0.0,0.0,0.0,0.0,0.0,0.0,0.0,0.0,0.0,0.0,0.0,0.0,0.0,0.0,0.0,0.0,0.0,0.0,0.0,0.0,0.0,0.0,0.0,0.0,0.0,0.0,0.0,0.0,0.0,0.0,0.0,0.0,0.0,0.0,0.0,0.0,0.0,0.0,0.0,0.0,0.0,0.0,0.0,0.0,0.0,0.0,0.0,0.0,0.0,0.0,0.0,0.0,0.0,0.0,0.0,0.0,0.0,0.0,0.0,0.0,0.0,0.0,0.0,0.0,0.0,0.0,0.0,0.0,0.0,-0.8038,-0.8038,-0.8336,-0.8928,-0.992,-1.09,-1.2165,-1.3806,0.0,0.0,0.0,0.0,0.0,0.0,0.0,0.0,0.0,0.0,0.0,0.0,0.0,0.0,0.0,0.0,0.0,0.0,0.0,0.0,0.0,0.0,0.0,0.0,0.0,0.0,0.0,0.0,0.0,0.0,0.0,0.0,0.0,0.0,0.0,0.0,0.0,0.0,0.0,0.0,0.0,0.0,0.0,0.0,0.0,0.0,0.0,0.0,0.0,0.0,0.0,0.0,0.0,0.0,0.0,0.0,0.0,0.0,0.0,0.0,0.0,0.0,0.0,0.0,0.0,0.0,0.0,0.0,0.0,0.0,0.0,0.0,0.0,0.0,0.0,0.0,0.0,0.0,0.0,0.0,0.0,0.0,0.0,0.0,0.0,0.0,0.0,0.0,0.0,0.0,0.0,0.0,0.0,0.0,0.0,0.0,0.0,0.0,0.0,0.0,0.0,0.0,0.0,0.0,-0.8038,-0.8038,-0.8638,-0.9331,-0.992,-1.1473,-1.2834,-1.3806,0.0,0.0,0.0,0.0,0.0,0.0,0.0,0.0,0.0,0.0,0.0,0.0,0.0,0.0,0.0,0.0,0.0,0.0,0.0,0.0,0.0,0.0,0.0,0.0,0.0,0.0,0.0,0.0,0.0,0.0,0.0,0.0,0.0,0.0,0.0,0.0,0.0,0.0,0.0,0.0,0.0,0.0,0.0,0.0,0.0,0.0,0.0,0.0,0.0,0.0,0.0,0.0,0.0,0.0,0.0,0.0,0.0,0.0,0.0,0.0,0.0,0.0,0.0,0.0,0.0,0.0,0.0,0.0,0.0,0.0,0.0,0.0,0.0,0.0,0.0,0.0,0.0,0.0,0.0,0.0,0.0,0.0,0.0,0.0,0.0,0.0,0.0,0.0,0.0,0.0,0.0,0.0,0.0,0.0,0.0,0.0,0.0,0.0,0.0,0.0,0.0,0.0,0.0,-0.8038,-0.8038,-0.8038,-0.8737,-0.943,-1.0117,-1.1765,-1.3119,-1.41,-1.4777,0.0,0.0,0.0,0.0,0.0,0.0,0.0,0.0,0.0,0.0,0.0,0.0,0.0,0.0,0.0,0.0,0.0,0.0,0.0,0.0,0.0,0.0,0.0,0.0,0.0,0.0,0.0,0.0,0.0,0.0,0.0,0.0,0.0,0.0,0.0,0.0,0.0,0.0,0.0,0.0,0.0,0.0,0.0,0.0,0.0,0.0,0.0,0.0,0.0,0.0,0.0,0.0,0.0,0.0,0.0,0.0,0.0,0.0,0.0,0.0,0.0,0.0,0.0,0.0,0.0,0.0,0.0,0.0,0.0,0.0,0.0,0.0,0.0,0.0,0.0,0.0,0.0,0.0,0.0,0.0,0.0,0.0,0.0,0.0,0.0,0.0,0.0,0.0,0.0,0.0,0.0,0.0,0.0,0.0,0.0,0.0,0.0,0.0,0.0,0.0,0.0,0.0,-0.8038,-0.8038,-0.8038,-0.8836,-0.9628,-1.0507,-1.196,-1.3318,-1.4298,-1.5159,0.0,0.0,0.0,0.0,0.0,0.0,0.0,0.0,0.0,0.0,0.0,0.0,0.0,0.0,0.0,0.0,0.0,0.0,0.0,0.0,0.0,0.0,0.0,0.0,0.0,0.0,0.0,0.0,0.0,0.0,0.0,0.0,0.0,0.0,0.0,0.0,0.0,0.0,0.0,0.0,0.0,0.0,0.0,0.0,0.0,0.0,0.0,0.0,0.0,0.0,0.0,0.0,0.0,0.0,0.0,0.0,0.0,0.0,0.0,0.0,0.0,0.0,0.0,0.0,0.0,0.0,0.0,0.0,0.0,0.0,0.0,0.0,0.0,0.0,0.0,0.0,0.0,0.0,0.0,0.0,0.0,0.0,0.0,0.0,0.0,0.0,0.0,0.0,0.0,0.0,0.0,0.0,0.0,0.0,0.0,0.0,0.0,0.0,0.0,0.0,0.0,0.0,-0.8038,-0.8137,-0.8333,-0.913,-1.0019,-1.1096,-1.2543,-1.3806,-1.4592,-1.5356,0.0,0.0,0.0,0.0,0.0,0.0,0.0,0.0,0.0,0.0,0.0,0.0,0.0,0.0,0.0,0.0,0.0,0.0,0.0,0.0,0.0,0.0,0.0,0.0,0.0,0.0,0.0,0.0,0.0,0.0,0.0,0.0,0.0,0.0,0.0,0.0,0.0,0.0,0.0,0.0,0.0,0.0,0.0,0.0,0.0,0.0,0.0,0.0,0.0,0.0,0.0,0.0,0.0,0.0,0.0,0.0,0.0,0.0,0.0,0.0,0.0,0.0,0.0,0.0,0.0,0.0,0.0,0.0,0.0,0.0,0.0,0.0,0.0,0.0,0.0,0.0,0.0,0.0,0.0,0.0,0.0,0.0,0.0,0.0,0.0,0.0,0.0,0.0,0.0,0.0,0.0,0.0,0.0,0.0,0.0,0.0,0.0,0.0,0.0,0.0,0.0,0.0,-0.8137,-0.8333,-0.8627,-0.9521,-1.0511,-1.1389,-1.284,-1.4004,-1.4688,0.0,0.0,0.0,0.0,0.0,0.0,0.0,0.0,0.0,0.0,0.0,0.0,0.0,0.0,0.0,0.0,0.0,0.0,0.0,0.0,0.0,0.0,0.0,0.0,0.0,0.0,0.0,0.0,0.0,0.0,0.0,0.0,0.0,0.0,0.0,0.0,0.0,0.0,0.0,0.0,0.0,0.0,0.0,0.0,0.0,0.0,0.0,0.0,0.0,0.0,0.0,0.0,0.0,0.0,0.0,0.0,0.0,0.0,0.0,0.0,0.0,0.0,0.0,0.0,0.0,0.0,0.0,0.0,0.0,0.0,0.0,0.0,0.0,0.0,0.0,0.0,0.0,0.0,0.0,0.0,0.0,0.0,0.0,0.0,0.0,0.0,0.0,0.0,0.0,0.0,0.0,0.0,0.0,0.0,0.0,0.0,0.0,0.0,0.0,0.0,0.0,0.0,-0.8386,-0.8542,-0.8807,-0.9203,-1.0147,-1.0998,-1.197,-1.3323,-1.4292,-1.4879,0.0,0.0,0.0,0.0,0.0,0.0,0.0,0.0,0.0,0.0,0.0,0.0,0.0,0.0,0.0,0.0,0.0,0.0,0.0,0.0,0.0,0.0,0.0,0.0,0.0,0.0,0.0,0.0,0.0,0.0,0.0,0.0,0.0,0.0,0.0,0.0,0.0,0.0,0.0,0.0,0.0,0.0,0.0,0.0,0.0,0.0,0.0,0.0,0.0,0.0,0.0,0.0,0.0,0.0,0.0,0.0,0.0,0.0,0.0,0.0,0.0,0.0,0.0,0.0,0.0,0.0,0.0,0.0,0.0,0.0,0.0,0.0,0.0,0.0,0.0,0.0,0.0,0.0,0.0,0.0,0.0,0.0,0.0,0.0,0.0,0.0,0.0,0.0,0.0,0.0,0.0,0.0,0.0,0.0,0.0,0.0,0.0,0.0,0.0,0.0,0.0,0.0,-0.9332,-0.9289,-0.9384,-1.0188,-1.0821,-1.1775,-1.3022,-1.3806,-1.4682,0.0,0.0,0.0,0.0,0.0,0.0,0.0,0.0,0.0,0.0,0.0,0.0,0.0,0.0,0.0,0.0,0.0,0.0,0.0,0.0,0.0,0.0,0.0,0.0,0.0,0.0,0.0,0.0,0.0,0.0,0.0,0.0,0.0,0.0,0.0,0.0,0.0,0.0,0.0,0.0,0.0,0.0,0.0,0.0,0.0,0.0,0.0,0.0,0.0,0.0,0.0,0.0,0.0,0.0,0.0,0.0,0.0,0.0,0.0,0.0,0.0,0.0,0.0,0.0,0.0,0.0,0.0,0.0,0.0,0.0,0.0,0.0,0.0,0.0,0.0,0.0,0.0,0.0,0.0,0.0,0.0,0.0,0.0,0.0,0.0,0.0,0.0,0.0,0.0,0.0,0.0,0.0,0.0,0.0,0.0,0.0,0.0,0.0,0.0,0.0,0.0,0.0,0.0,-0.9951,-1.0115,-1.0437,-1.1107,-1.1939,-1.2827,-1.3624,-1.4394,-1.507,-1.5445,0.0,0.0,0.0,0.0,0.0,0.0,0.0,0.0,0.0,0.0,0.0,0.0,0.0,0.0,0.0,0.0,0.0,0.0,0.0,0.0,0.0,0.0,0.0,0.0,0.0,0.0,0.0,0.0,0.0,0.0,0.0,0.0,0.0,0.0,0.0,0.0,0.0,0.0,0.0,0.0,0.0,0.0,0.0,0.0,0.0,0.0,0.0,0.0,0.0,0.0,0.0,0.0,0.0,0.0,0.0,0.0,0.0,0.0,0.0,0.0,0.0,0.0,0.0,0.0,0.0,0.0,0.0,0.0,0.0,0.0,0.0,0.0,0.0,0.0,0.0,0.0,0.0,0.0,0.0,0.0,0.0,0.0,0.0,0.0,0.0,0.0,0.0,0.0,0.0,0.0,0.0,0.0,0.0,0.0,0.0,0.0,0.0,0.0,0.0,0.0,0.0,0.0,-1.1115,-1.1256,-1.1648,-1.2248,-1.3052,-1.3796,-1.4322,-1.4879,-1.5356,-1.5635,0.0,0.0,0.0,0.0,0.0,0.0,0.0,0.0,0.0,0.0,0.0,0.0,0.0,0.0,0.0,0.0,0.0,0.0,0.0,0.0,0.0,0.0,0.0,0.0,0.0,0.0,0.0,0.0,0.0,0.0,0.0,0.0,0.0,0.0,0.0,0.0,0.0,0.0,0.0,0.0,0.0,0.0,0.0,0.0,0.0,0.0,0.0,0.0,0.0,0.0,0.0,0.0,0.0,0.0,0.0,0.0,0.0,0.0,0.0,0.0,0.0,0.0,0.0,0.0,0.0,0.0,0.0,0.0,0.0,0.0,0.0,0.0,0.0,0.0,0.0,0.0,0.0,0.0,0.0,0.0,0.0,0.0,0.0,0.0,0.0,0.0,0.0,0.0,0.0,0.0,0.0,0.0,0.0,0.0,0.0,0.0,0.0,0.0,0.0,0.0,0.0,0.0,-1.2545,-1.27,-1.3011,-1.3475,-1.4059,-1.4606,-1.5102,-1.5356,-1.5635,-1.5825,0.0,0.0,0.0,0.0,0.0,0.0,0.0,0.0,0.0,0.0,0.0,0.0,0.0,0.0,0.0,0.0,0.0,0.0,0.0,0.0,0.0,0.0,0.0,0.0,0.0,0.0,0.0,0.0,0.0,0.0,0.0,0.0,0.0,0.0,0.0,0.0,0.0,0.0,0.0,0.0,0.0,0.0,0.0,0.0,0.0,0.0,0.0,0.0,0.0,0.0,0.0,0.0,0.0,0.0,0.0,0.0,0.0,0.0,0.0,0.0,-1.011,0.0,0.0,0.0,0.0,0.0,0.0,0.0,0.0,0.0,0.0,0.0,0.0,0.0,0.0,0.0,0.0,0.0,0.0,0.0,0.0,0.0,0.0,0.0,0.0,0.0,0.0,0.0,0.0,0.0,0.0,0.0,0.0,0.0,0.0,0.0,0.0,0.0,0.0,0.0,0.0,0.0,-1.3846,-1.4019,-1.425,-1.4322,-1.504,-1.5512,-1.5402,-1.5642,-1.5737,-1.5832,-1.5832,0.0,0.0,0.0,0.0,0.0,0.0,0.0,0.0,0.0,0.0,0.0,0.0,0.0,0.0,0.0,0.0,0.0,0.0,0.0,0.0,0.0,0.0,0.0,0.0,0.0,0.0,0.0,0.0,0.0,0.0,0.0,0.0,0.0,0.0,0.0,0.0,0.0,0.0,0.0,0.0,0.0,0.0,0.0,0.0,0.0,0.0,0.0,0.0,0.0,0.0,0.0,0.0,0.0,0.0,0.0,0.0,0.0,0.0,0.0,0.0,-1.0008,0.0,0.0,0.0,0.0,0.0,0.0,0.0,0.0,0.0,0.0,0.0,0.0,0.0,0.0,0.0,0.0,0.0,0.0,0.0,0.0,0.0,0.0,0.0,0.0,0.0,0.0,0.0,0.0,0.0,0.0,0.0,0.0,0.0,0.0,0.0,0.0,0.0,0.0,0.0,0.0,-1.503,-1.514,-1.5234,-1.5239,-1.5589,-1.5836,-1.5675,-1.573,-1.5832,-1.5832,-1.5832,0.0,0.0,0.0,0.0,0.0,0.0,0.0,0.0,0.0,0.0,0.0,0.0,0.0,0.0,0.0,0.0,0.0,0.0,0.0,0.0,0.0,0.0,0.0,0.0,0.0,0.0,0.0,0.0,0.0,0.0,0.0,0.0,0.0,0.0,0.0,0.0,0.0,0.0,0.0,0.0,0.0,0.0,0.0,0.0,0.0,0.0,0.0,0.0,0.0,0.0,0.0,0.0,0.0,-0.6768,-0.7964,-0.9105,-0.946,-0.97,-0.9829,-0.9954,-0.9937,-0.9822,-0.9822,0.0,0.0,0.0,0.0,0.0,0.0,0.0,0.0,0.0,0.0,0.0,0.0,0.0,0.0,0.0,0.0,0.0,0.0,0.0,0.0,0.0,0.0,0.0,0.0,-1.1564,-1.145,0.0,0.0,0.0,0.0,0.0,0.0,0.0,0.0,0.0,0.0,0.0,0.0,-1.6037,-1.6057,-1.6003,-1.5871,-1.5933,-1.5965,-1.5858,-1.5832,-1.5832,-1.5832,-1.5832,-1.5832,0.0,0.0,0.0,0.0,0.0,0.0,0.0,0.0,0.0,0.0,0.0,0.0,0.0,0.0,0.0,0.0,0.0,0.0,0.0,0.0,0.0,0.0,0.0,0.0,0.0,0.0,0.0,0.0,0.0,0.0,0.0,0.0,0.0,0.0,0.0,0.0,0.0,0.0,0.0,0.0,0.0,0.0,0.0,0.0,0.0,0.0,0.0,-0.1361,-0.1731,-0.2727,-0.3716,-0.469,-0.5927,-0.7273,-0.848,-0.9092,-0.9579,-0.9822,-0.9842,0.0,-0.9822,-0.9822,0.0,0.0,0.0,0.0,0.0,0.0,0.0,0.0,0.0,0.0,0.0,0.0,0.0,0.0,0.0,0.0,0.0,0.0,0.0,0.0,0.0,0.0,-1.3403,-1.3073,-1.3181,-1.3398,0.0,-1.2639,-1.254,-1.4218,-1.4385,0.0,0.0,0.0,0.0,0.0,0.0,0.0,-1.6302,-1.6452,-1.6438,-1.5914,-1.6104,-1.6152,-1.5852,-1.5832,-1.5832,-1.5832,-1.5832,-1.5832,-1.5832,-1.5832,0.0,0.0,0.0,0.0,0.0,0.0,0.0,0.0,0.0,0.0,0.0,0.0,0.0,0.0,0.0,0.0,0.0,0.0,0.0,0.0,0.0,0.0,0.0,0.0,0.0,0.0,0.0,0.0,0.0,-0.0112,0.0,0.0,0.0,0.0,0.0,0.0,0.0,0.0,0.0,0.0,0.0,0.0,0.0,-0.0247,-0.0494,-0.0741,-0.0617,-0.185,-0.2713,-0.3449,-0.5295,-0.6766,-0.8113,-0.8848,-0.9457,-0.9822,-0.9822,-0.9822,-0.9822,-0.9822,-0.9822,-0.9822,0.0,0.0,0.0,0.0,-0.9822,-0.9822,-0.9822,-1.0183,0.0,-1.104,0.0,0.0,0.0,0.0,0.0,0.0,0.0,0.0,0.0,0.0,-1.4696,-1.4589,-1.4487,-1.4487,-1.4702,-1.4159,-1.384,0.0,-1.4595,-1.4781,-1.5571,0.0,0.0,0.0,0.0,-1.7094,-1.6852,-1.6658,-1.6368,-1.611,-1.6029,-1.5972,-1.5838,-1.5832,-1.5832,-1.5832,-1.5832,-1.5832,-1.5832,-1.5832,-1.5832,0.0,0.0,0.0,0.0,0.0,0.0,0.0,0.0,0.0,0.0,0.0,0.0,0.0,0.0,0.0,0.0,0.0,0.0,0.0,0.0,0.0,0.0,0.0,0.0,0.0,0.0,0.0,0.0,0.0,0.0,0.0,0.0,0.0,0.0,0.0,0.0,0.0,0.0,0.0,0.0,0.0,0.0,0.0,-0.0247,-0.0247,0.0,-0.1111,-0.185,-0.2467,-0.4433,-0.6154,-0.7505,-0.8601,-0.9211,-0.97,-0.9822,-0.9822,-0.9822,-0.9822,-0.9822,-0.9822,-0.9822,-0.9822,-0.9822,-0.9822,-0.9822,-0.9815,-0.9778,-1.0127,-1.0703,-1.0898,-1.2324,-1.3984,-1.4606,0.0,0.0,0.0,0.0,-1.643,-1.6318,-1.5992,-1.5773,-1.5773,-1.5672,-1.5458,-1.5773,-1.5446,-1.5125,0.0,-1.5131,-1.5345,-1.569,0.0,0.0,0.0,0.0,-1.7007,-1.6934,-1.6547,-1.6246,-1.6166,-1.5965,-1.5832,-1.5832,-1.5832,-1.5832,-1.5832,-1.5832,-1.5832,-1.5832,-1.5832,-1.5832,-1.5832,0.0,0.0,0.0,0.0,0.0,0.0,0.0,0.0,0.0,0.0,0.0,0.0,0.0,0.0,0.0,0.0,0.0,0.0,0.0,0.0,0.0,0.0,0.0,0.0,0.0,0.0,0.0,0.0,0.0,0.0,0.0,0.0,0.0,0.0,0.0,0.0,0.0,0.0,0.0,0.0,0.0,0.0,0.0,0.0,0.0,-0.037,-0.1111,-0.2097,-0.3328,-0.4926,-0.6526,-0.7869,-0.8723,-0.9335,-0.97,-0.9822,-0.9822,-0.9822,-0.9822,-0.9822,-0.9822,-0.9822,-0.9822,-0.9822,-0.9822,-0.9802,-0.9546,-0.9972,-1.0539,-1.0841,-1.2375,-1.4219,-1.5638,-1.6433,0.0,0.0,-1.7391,-1.7179,-1.7179,-1.6849,-1.6624,-1.6624,-1.6624,-1.6624,-1.6624,-1.6268,-1.5825,0.0,-1.6028,-1.648,-1.6336,0.0,-1.6665,-1.6665,-1.6718,-1.6627,-1.6353,-1.6293,-1.6166,-1.5879,-1.5838,-1.5832,-1.5832,-1.5832,-1.5832,-1.5832,-1.5832,-1.5832,-1.5832,-1.5832,-1.5832,-1.5832,-1.5832,0.0,0.0,0.0,0.0,0.0,0.0,0.0,0.0,0.0,0.0,0.0,0.0,0.0,0.0,0.0,0.0,0.0,0.0,0.0,0.0,0.0,0.0,0.0,0.0,0.0,0.0,0.0,0.0,0.0,0.0,0.0,0.0,0.0,0.0,0.0,0.0,0.0,0.0,0.0,0.0,0.0,0.0,0.0,0.0,-0.0123,-0.0741,-0.1726,-0.3204,-0.4681,-0.6154,-0.7744,-0.8723,-0.9339,-0.97,-0.9822,-0.9822,-0.9822,-0.9822,-0.9822,-0.9822,-0.9822,-0.9822,-0.9822,-0.9822,-0.9798,-0.9659,-0.9961,-1.0741,-1.1942,-1.3155,-1.4402,-1.5809,-1.6599,-1.6942,-1.7477,-1.7477,-1.7483,-1.7483,-1.7371,-1.7265,-1.7265,-1.716,-1.7067,-1.7067,-1.6723,-1.6337,-1.6292,-1.6501,-1.6618,-1.6371,-1.6349,-1.6475,-1.6475,-1.6421,-1.6386,-1.6286,-1.6106,-1.5945,-1.5838,-1.5832,-1.5832,-1.5832,-1.5832,-1.5832,-1.5832,-1.5832,-1.5832,-1.5832,-1.5832,-1.5832,-1.5832,-1.5832,-1.5832,0.0,0.0,0.0,0.0,0.0,0.0,0.0,0.0,0.0,0.0,0.0,0.0,0.0,0.0,0.0,0.0,0.0,0.0,0.0,0.0,0.0,0.0,0.0,0.0,0.0,0.0,0.0,0.0,0.0,0.0,0.0,0.0,0.0,0.0,0.0,0.0,0.0,0.0,0.0,0.0,0.0,0.0,0.0,0.0,-0.0494,-0.1357,-0.2834,-0.431,-0.5661,-0.7378,-0.8604,-0.9217,-0.9579,-0.9822,-0.9822,-0.9822,-0.9822,-0.9822,-0.9822,-0.9822,-0.9822,-0.9822,-0.9822,-0.9791,-0.9717,-1.0047,-1.0839,-1.2283,-1.3421,-1.46,-1.5785,-1.6636,-1.716,-1.7477,-1.7582,-1.7582,-1.7582,-1.7582,-1.7582,-1.7582,-1.7483,-1.7358,-1.7377,-1.7141,-1.6945,-1.6869,-1.6793,-1.6626,-1.6503,-1.6358,-1.6275,-1.6275,-1.6215,-1.6126,-1.6126,-1.5952,-1.5832,-1.5832,-1.5832,-1.5832,-1.5832,-1.5832,-1.5832,-1.5832,-1.5832,-1.5832,-1.5832,-1.5832,-1.5832,-1.5832,-1.5832,-1.5832,-1.5832,0.0,0.0,0.0,0.0,0.0,0.0,0.0,0.0,0.0,0.0,0.0,0.0,0.0,0.0,0.0,0.0,0.0,0.0,0.0,0.0,0.0,0.0,0.0,0.0,0.0,0.0,0.0,0.0,0.0,0.0,0.0,0.0,0.0,0.0,0.0,0.0,0.0,0.0,0.0,0.0,0.0,0.0,0.0,-0.037,-0.0988,-0.2341,-0.3694,-0.4925,-0.7011,-0.8238,-0.8976,-0.9579,-0.9822,-0.9822,-0.9822,-0.9822,-0.9822,-0.9822,-0.9822,-0.9822,-0.9822,-0.9819,-0.9771,-0.9831,-1.0205,-1.081,-1.1678,-1.3197,-1.4815,-1.5678,-1.653,-1.7279,-1.7483,-1.7582,-1.7582,-1.7582,-1.7582,-1.7582,-1.7582,-1.7575,-1.7607,-1.7565,-1.7599,-1.7503,-1.7089,-1.6839,-1.6727,-1.664,-1.6453,-1.6259,-1.6259,-1.6012,0.0,-1.5832,-1.5832,-1.5832,-1.5832,-1.5832,-1.5832,-1.5832,-1.5832,-1.5832,-1.5832,-1.5832,-1.5832,-1.5832,-1.5832,-1.5832,-1.5832,-1.5832,-1.5832,-1.5832,0.0,0.0,0.0,0.0,0.0,0.0,0.0,0.0,0.0,0.0,0.0,0.0,0.0,0.0,0.0,0.0,0.0,0.0,0.0,0.0,0.0,0.0,0.0,0.0,0.0,0.0,0.0,0.0,0.0,0.0,0.0,0.0,0.0,0.0,0.0,0.0,0.0,0.0,0.0,0.0,0.0,0.0,0.0,-0.037,-0.0988,-0.2341,-0.3694,-0.4925,-0.7011,-0.8238,-0.8976,-0.9579,-0.9822,-0.9822,-0.9822,-0.9822,-0.9822,-0.9822,-0.9822,-0.9822,-0.9822,-0.9754,-0.9639,-0.9792,-1.0281,-1.0978,-1.1928,-1.3506,-1.5018,-1.5891,-1.6849,-1.7483,-1.7582,-1.7582,-1.7582,-1.7582,-1.7582,-1.7582,-1.7582,-1.7644,-1.7592,-1.7627,-1.7557,-1.7417,-1.6677,-1.6249,-1.6157,-1.64,-1.6146,-1.5952,-1.5952,-1.5879,0.0,-1.5832,-1.5832,-1.5832,-1.5832,-1.5832,-1.5832,-1.5832,-1.5832,-1.5832,-1.5832,-1.5832,-1.5832,-1.5832,-1.5832,-1.5832,-1.5832,-1.5832,-1.5832,0.0,0.0,0.0,0.0,0.0,0.0,0.0,0.0,0.0,0.0,0.0,0.0,0.0,0.0,0.0,0.0,0.0,0.0,0.0,0.0,0.0,0.0,0.0,0.0,0.0,0.0,0.0,0.0,0.0,0.0,0.0,0.0,0.0,0.0,0.0,0.0,0.0,0.0,0.0,0.0,0.0,0.0,0.0,0.0,-0.037,-0.0988,-0.2096,-0.3448,-0.4925,-0.6886,-0.8113,-0.8976,-0.9579,-0.9822,-0.9822,-0.9822,-0.9822,0.0,0.0,0.0,0.0,0.0,-0.973,-0.9588,-0.9665,-1.0082,-1.0932,-1.1731,-1.329,-1.4804,-1.5785,-1.6743,-1.7483,-1.7582,-1.7582,-1.7582,-1.7582,-1.7582,-1.7555,-1.7553,-1.7619,-1.7551,-1.7629,-1.7213,-1.6664,-1.6249,-1.5976,0.0,-1.6086,-1.5945,-1.5832,-1.5832,-1.5832,-1.5832,-1.5832,-1.5832,-1.5832,-1.5832,-1.5832,-1.5832,-1.5832,-1.5832,0.0,0.0,0.0,-1.5832,-1.5832,-1.5832,0.0,0.0,0.0,-1.5832,-1.5832,0.0,0.0,0.0,-1.5832,-1.5832,0.0,0.0,0.0,0.0,0.0,0.0,0.0,0.0,0.0,0.0,0.0,0.0,0.0,0.0,0.0,0.0,0.0,0.0,0.0,0.0,0.0,0.0,0.0,0.0,0.0,0.0,0.0,0.0,0.0,0.0,0.0,0.0,0.0,0.0,0.0,0.0,0.0,0.0,-0.037,-0.0988,-0.1604,-0.2957,-0.4802,-0.6517,-0.7867,-0.8851,-0.9457,-0.9822,-0.9822,-0.9822,-0.9822,-0.9822,-0.9822,-0.9822,-0.9822,-0.9822,-0.9741,-0.9608,-0.9439,0.0,0.0,-1.1308,-1.2762,-1.4385,-1.5565,-1.653,-1.7279,-1.7483,-1.7582,-1.7582,-1.7582,-1.7562,-1.7586,-1.7565,-1.7551,-1.7367,-1.7394,-1.6572,-1.5816,-1.5777,-1.5832,-1.5832,-1.5832,-1.5832,-1.5832,-1.5832,-1.5832,-1.5832,-1.5832,-1.5832,-1.5832,-1.5832,0.0,0.0,-1.5832,-1.5832,-1.5832,-1.5832,-1.5832,-1.5832,-1.5832,-1.5832,-1.5832,-1.5832,-1.5832,-1.5832,-1.5832,-1.5832,-1.5832,-1.5832,-1.5832,-1.5832,0.0,0.0,0.0,0.0,0.0,0.0,0.0,0.0,0.0,0.0,0.0,0.0,0.0,0.0,0.0,0.0,0.0,0.0,0.0,0.0,0.0,0.0,0.0,0.0,0.0,0.0,0.0,0.0,0.0,0.0,0.0,0.0,0.0,0.0,0.0,0.0,0.0,0.0,-0.0247,-0.0617,0.0,0.0,-0.4189,-0.5786,-0.7258,-0.848,-0.9092,-0.9579,-0.9822,-0.9822,-0.9822,-0.9822,-0.9822,-0.9822,-0.9822,-0.9822,-0.9802,-0.9741,-0.9476,-0.9939,-1.0776,-1.1126,-1.254,-1.4385,-1.5351,-1.6318,0.0,-1.7483,-1.7582,-1.7582,-1.7582,-1.7637,-1.7565,-1.762,-1.6894,-1.6183,-1.6182,-1.5976,-1.5797,-1.5838,-1.5832,-1.5832,-1.5832,-1.5832,-1.5832,-1.5832,-1.5832,-1.5832,-1.5832,-1.5832,-1.5832,-1.5832,-1.5832,-1.5832,-1.5832,-1.5832,-1.5832,-1.5832,-1.5832,-1.5832,-1.5832,-1.5832,-1.5832,-1.5832,-1.5832,-1.5832,-1.5832,-1.5832,-1.5832,-1.5832,-1.5832,-1.5832,0.0,0.0,0.0,0.0,0.0,0.0,0.0,0.0,0.0,0.0,0.0,-0.0202,0.0,0.0,0.0,0.0,0.0,0.0,0.0,0.0,0.0,0.0,0.0,0.0,0.0,0.0,0.0,0.0,0.0,0.0,0.0,0.0,0.0,0.0,0.0,0.0,0.0,0.0,-0.0123,-0.0494,-0.148,-0.2589,-0.3697,-0.5418,-0.6888,-0.8236,-0.897,-0.9457,-0.9822,-0.9822,-0.9822,-0.9822,-0.9822,-0.9822,-0.9822,-0.9822,-0.9822,-0.9778,-0.9483,-0.9726,-1.036,-1.0917,-1.21,-1.3614,-1.5018,-1.6105,-1.6855,-1.7483,-1.7582,-1.7555,-1.763,-1.7605,-1.7531,-1.723,-1.648,-1.5791,-1.5763,-1.5823,-1.5832,-1.5832,-1.5832,-1.5832,-1.5832,-1.5832,-1.5832,-1.5832,-1.5832,-1.5832,-1.5832,-1.5832,-1.5832,-1.5832,-1.5832,-1.5832,-1.5832,-1.5832,-1.5832,-1.5832,-1.5832,-1.5832,-1.5832,-1.5832,-1.5832,-1.5832,-1.5832,-1.5832,-1.5832,-1.5832,-1.5832,-1.5832,-1.5832,-1.5832,0.0,0.0,0.0,0.0,0.0,0.0,0.0,-0.1009,-0.0606,-0.0404,-0.0101,0.0,0.0,0.0,0.0,0.0,0.0,0.0,0.0,0.0,0.0,0.0,0.0,0.0,0.0,0.0,0.0,0.0,0.0,0.0,0.0,0.0,0.0,0.0,0.0,0.0,0.0,0.0,-0.0123,-0.037,-0.1234,-0.2219,-0.3328,-0.4802,-0.6396,-0.7869,-0.8967,-0.9579,-0.9822,-0.9822,-0.9822,-0.9822,-0.9822,-0.9822,-0.9822,-0.9822,-0.9802,-0.9741,-0.9476,-0.9592,-0.986,-1.0683,-1.1555,-1.2743,-1.4696,-1.5785,-1.643,-1.7272,-1.7549,-1.7566,-1.7551,-1.7517,-1.7312,-1.6721,-1.6226,-1.5796,-1.5777,-1.5832,-1.5832,-1.5832,-1.5832,-1.5832,-1.5832,-1.5832,-1.5832,-1.5832,-1.5832,-1.5832,-1.5832,-1.5832,-1.5832,-1.5832,-1.5832,-1.5832,-1.5832,-1.5832,-1.5832,-1.5832,-1.5832,-1.5832,-1.5832,-1.5832,-1.5832,-1.5832,-1.5832,-1.5832,-1.5832,-1.5832,-1.5832,-1.5832,-1.5832,-1.5832,-0.232,-0.2017,-0.1714,-0.1414,-0.1313,-0.1111,0.0,-0.0505,-0.0404,-0.0101,0.0,0.0,0.0,0.0,0.0,0.0,0.0,0.0,0.0,0.0,0.0,0.0,0.0,0.0,0.0,0.0,0.0,0.0,0.0,0.0,0.0,0.0,0.0,0.0,0.0,0.0,0.0,0.0,0.0,0.0,-0.0494,-0.1357,-0.259,-0.3697,-0.5291,-0.7497,-0.9089,-0.9822,-0.9822,-0.9822,-0.9822,-0.9822,-0.9822,-0.9822,-0.9822,-0.9822,-0.9741,-0.9608,-0.9439,-0.9519,-0.9712,-1.0204,-1.1341,-1.2635,-1.3948,-1.525,-1.643,-1.7067,-1.7428,-1.7537,-1.7271,-1.6988,-1.6785,-1.6501,-1.6072,-1.577,-1.5838,-1.5832,-1.5832,-1.5832,-1.5832,-1.5832,-1.5832,-1.5832,-1.5832,-1.5832,-1.5832,-1.5832,-1.5832,-1.5832,-1.5832,-1.5832,-1.5832,-1.5832,-1.5832,-1.5832,-1.5832,-1.5832,-1.5832,-1.5832,-1.5832,-1.5832,-1.5832,-1.5832,-1.5832,-1.5832,-1.5832,-1.5832,-1.5832,-1.5832,-1.5832,-1.5832,-0.111,-0.1009,-0.0808,-0.0404,-0.0303,-0.0202,0.0202,0.0303,0.0303,0.0202,0.0202,0.0202,0.0202,0.0202,0.0303,0.0404,0.0521,0.0533,0.0533,0.0549,0.0449,0.0224,0.0224,0.0227,0.0,0.0,0.0,0.0,0.0,0.0,0.0,0.0,0.0,0.0,0.0,0.0,0.0,0.0,0.0,0.0,-0.037,-0.0987,-0.1973,-0.3328,-0.5414,-0.7986,-0.9089,-0.9579,-0.9822,-0.9822,-0.9822,-0.9822,-0.9822,-0.9771,-0.9696,-0.9696,-0.9659,-0.9574,-0.9334,-0.9319,-0.9465,-1.009,-1.0907,-1.1991,-1.3732,-1.4922,-1.5962,-1.6761,-1.7151,-1.7292,-1.6841,-1.667,-1.6447,-1.6162,-1.5919,-1.5832,-1.5832,-1.5832,-1.5832,-1.5832,-1.5832,-1.5832,-1.5832,-1.5832,-1.5832,-1.5832,-1.5832,-1.5832,-1.5832,-1.5832,-1.5832,-1.5832,-1.5832,-1.5832,-1.5832,-1.5832,-1.5832,-1.5832,-1.5832,-1.5832,-1.5832,-1.5832,-1.5832,-1.5832,-1.5832,-1.5832,-1.5832,-1.5832,-1.5832,-1.5832,-1.5832,-1.5832,0.0101,0.0202,0.0202,0.0606,0.0808,0.0908,0.1111,0.1111,0.1111,0.0908,0.0808,0.0707,0.0707,0.0707,0.0808,0.101,0.1042,0.1173,0.1173,0.1098,0.1009,0.0673,0.0673,0.0455,0.0117,0.0,0.0,0.0,0.0,0.0,0.0,0.0,0.0,0.0,0.0,0.0,0.0,0.0,0.0,0.0,-0.0247,-0.074,-0.1603,-0.3573,-0.5782,-0.8108,-0.897,-0.9457,-0.9822,-0.9822,-0.9798,-0.9761,-0.9761,-0.9673,-0.954,-0.95,-0.9483,-0.9452,-0.9228,-0.9127,-0.9188,-0.9853,-1.0582,-1.1455,-1.3186,-1.4438,-1.5523,-1.6283,-1.6734,-1.6914,-1.6491,-1.6316,-1.6202,-1.5885,-1.5832,-1.5832,-1.5832,-1.5832,-1.5832,-1.5832,-1.5832,-1.5832,-1.5832,-1.5832,-1.5832,-1.5832,-1.5832,-1.5832,-1.5832,-1.5832,-1.5832,-1.5832,-1.5832,-1.5832,-1.5832,-1.5832,-1.5832,-1.5832,-1.5832,-1.5832,-1.5832,-1.5832,-1.5832,-1.5832,-1.5832,-1.5832,-1.5832,-1.5832,-1.5832,-1.5832,-1.5832,-1.5832,0.1513,0.1513,0.1513,0.1513,0.1714,0.1917,0.1917,0.1917,0.1917,0.1917,0.1714,0.1613,0.1613,0.1613,0.1613,0.1613,0.1665,0.1704,0.1704,0.1757,0.1683,0.1346,0.1234,0.1023,0.047,0.0118,0.0,0.0,0.0,0.0,0.0,0.0,0.0,0.0,0.0,0.0,0.0,0.0,0.0,0.0,0.0,-0.0494,-0.1602,-0.4555,-0.6396,-0.7495,-0.8723,-0.9457,-0.9822,-0.9822,-0.9741,-0.9615,-0.9496,-0.952,-0.9371,-0.9222,-0.9167,-0.9164,-0.9157,-0.9062,-0.8944,-0.9268,-1.0147,-1.1236,-1.22,-1.3667,-1.5181,-1.5713,-1.615,-1.6404,-1.6279,-1.6059,-1.5838,-1.5832,-1.5832,-1.5832,-1.5832,-1.5832,-1.5832,-1.5832,-1.5832,-1.5832,-1.5832,-1.5832,-1.5832,-1.5832,-1.5832,-1.5832,-1.5832,-1.5832,-1.5832,-1.5832,-1.5832,-1.5832,-1.5832,-1.5832,-1.5832,-1.5832,-1.5832,-1.5832,-1.5832,-1.5832,-1.5832,-1.5832,-1.5832,-1.5832,-1.5832,-1.5832,-1.5832,-1.5832,-1.5832,-1.5832,0.2118,0.2118,0.2219,0.262,0.272,0.2922,0.3226,0.3327,0.3226,0.2821,0.272,0.262,0.262,0.262,0.2821,0.3124,0.3326,0.3403,0.3403,0.3508,0.3361,0.2577,0.2353,0.1817,0.0822,0.0471,0.0239,0.0,0.0,0.0,0.0,0.0,0.0,0.0,0.0,0.0,0.0,0.0,0.0,0.0,-0.0247,-0.0864,-0.1849,-0.3696,-0.5418,-0.6766,-0.8111,-0.8914,-0.931,-0.9556,-0.9591,-0.9459,-0.9459,-0.9364,-0.9222,-0.9171,-0.9093,-0.9011,-0.9011,-0.8981,-0.8937,-0.9485,-1.0253,-1.1101,-1.2369,-1.3652,-1.489,-1.5475,-1.5939,-1.6233,-1.6032,-1.5905,-1.5832,-1.5832,-1.5832,-1.5832,-1.5832,-1.5832,-1.5832,-1.5832,-1.5832,-1.5832,-1.5832,-1.5832,-1.5832,-1.5832,-1.5832,-1.5832,-1.5832,-1.5832,-1.5832,-1.5832,-1.5832,-1.5832,-1.5832,-1.5832,-1.5832,-1.5832,-1.5832,-1.5832,-1.5832,-1.5832,-1.5832,-1.5832,-1.5832,-1.5832,-1.5832,-1.5832,-1.5832,-1.5832,-1.5832,-1.5832,0.3527,0.3527,0.3627,0.3927,0.4128,0.4331,0.4636,0.4736,0.4636,0.423,0.4128,0.4028,0.4028,0.4028,0.4128,0.4533,0.4777,0.4886,0.4886,0.5037,0.4814,0.4032,0.3695,0.295,0.1643,0.1295,0.0835,0.0,0.0,0.0,0.0,0.0,0.0,0.0,0.0,0.0,0.0,0.0,0.0,0.0,-0.0494,-0.1111,-0.2096,-0.3432,-0.4887,-0.6348,-0.764,-0.8534,-0.9049,-0.9409,-0.9439,-0.93,-0.93,-0.9208,-0.9076,-0.9076,-0.9018,-0.894,-0.894,-0.8937,-0.9158,-0.9596,-1.0323,-1.1116,-1.237,-1.3581,-1.4616,-1.519,-1.5706,-1.6072,-1.5879,-1.5832,-1.5832,-1.5832,-1.5832,-1.5832,-1.5832,-1.5832,-1.5832,-1.5832,-1.5832,-1.5832,-1.5832,-1.5832,-1.5832,-1.5832,-1.5832,-1.5832,-1.5832,-1.5832,-1.5832,-1.5832,-1.5832,-1.5832,-1.5832,-1.5832,-1.5832,-1.5832,-1.5832,-1.5832,-1.5832,-1.5832,-1.5832,-1.5832,-1.5832,-1.5832,-1.5832,-1.5832,-1.5832,-1.5832,-1.5832,-1.5832,0.5634,0.5634,0.5634,0.5634,0.5839,0.6042,0.6042,0.6042,0.6042,0.6042,0.5839,0.5634,0.5634,0.5634,0.5634,0.5634,0.5808,0.5941,0.5941,0.6236,0.6151,0.5594,0.5144,0.4418,0.2929,0.247,0.1669,0.0246,0.0,0.0,0.0,0.0,0.0,0.0,0.0,0.0,0.0,0.0,0.0,0.0,-0.0617,-0.1356,-0.1967,-0.3513,-0.4931,-0.6242,-0.7445,-0.8329,-0.8907,-0.9255,-0.9279,-0.9144,-0.9144,-0.9059,-0.894,-0.894,-0.894,-0.894,-0.894,-0.9158,-0.9485,-0.9699,-1.0458,-1.1385,-1.2308,-1.3356,-1.4301,-1.4869,-1.5364,-1.5832,-1.5832,-1.5832,-1.5832,-1.5832,-1.5832,-1.5832,-1.5832,-1.5832,-1.5832,-1.5832,-1.5832,-1.5832,-1.5832,-1.5832,-1.5832,-1.5832,-1.5832,-1.5832,-1.5832,-1.5832,-1.5832,-1.5832,-1.5832,-1.5832,-1.5832,-1.5832,-1.5832,-1.5832,-1.5832,-1.5832,-1.5832,-1.5832,-1.5832,-1.5832,-1.5832,-1.5832,-1.5832,-1.5832,-1.5832,-1.5832,-1.5832,-1.5832,0.6237,0.6237,0.6237,0.6442,0.6542,0.6642,0.6839,0.6939,0.6839,0.6642,0.6542,0.6542,0.6542,0.6542,0.6539,0.6736,0.7053,0.7118,0.7118,0.744,0.7265,0.649,0.6151,0.53,0.3572,0.3152,0.249,0.1091,0.0613,0.0247,0.0,0.0,0.0,0.0,0.0,0.0,0.0,0.0,0.0,0.0,-0.0364,-0.0844,-0.155,-0.2966,-0.426,-0.5436,-0.6942,-0.793,-0.8416,-0.8983,-0.9127,-0.8994,-0.8994,-0.8971,-0.894,-0.894,-0.894,-0.894,-0.894,-0.9158,-0.9467,-0.9776,-1.056,-1.1636,-1.2567,-1.3591,-1.4642,-1.5223,-1.5599,-1.5832,-1.5832,-1.5832,-1.5832,-1.5832,-1.5832,-1.5832,-1.5832,-1.5832,-1.5832,-1.5832,-1.5832,-1.5832,-1.5832,-1.5832,-1.5832,-1.5832,-1.5832,-1.5832,-1.5832,-1.5832,-1.5832,-1.5832,-1.5832,-1.5832,-1.5832,-1.5832,-1.5832,-1.5832,-1.5832,-1.5832,-1.5832,-1.5832,-1.5832,-1.5832,-1.5832,-1.5832,-1.5832,-1.5832,-1.5832,-1.5832,-1.5832,-1.5832,0.7135,0.7135,0.7138,0.7241,0.7341,0.7341,0.7537,0.754,0.754,0.7341,0.7341,0.7341,0.7341,0.7341,0.7341,0.7537,0.7776,0.796,0.796,0.8202,0.8156,0.7601,0.7265,0.6415,0.4922,0.4394,0.3631,0.2265,0.1462,0.0741,0.0247,0.0247,0.0123,0.0,0.0,0.0,0.0,0.0,0.0,0.0,-0.0478,-0.0951,-0.1649,-0.3038,-0.4304,-0.5576,0.0,-0.7891,-0.8382,-0.8835,-0.9011,-0.894,-0.894,-0.894,-0.894,-0.894,-0.8896,-0.8838,-0.8838,-0.9012,-0.9269,-0.9888,-1.0733,-1.17,-1.2777,-1.3715,-1.4582,-1.5204,-1.5547,-1.5832,-1.5832,-1.5832,-1.5832,-1.5832,-1.5832,-1.5832,-1.5832,-1.5832,-1.5832,-1.5832,-1.5832,-1.5832,-1.5832,-1.5832,-1.5832,-1.5832,-1.5832,-1.5832,-1.5832,-1.5832,-1.5832,-1.5832,-1.5832,-1.5832,-1.5832,-1.5832,-1.5832,-1.5832,-1.5832,-1.5832,-1.5832,-1.5832,-1.5832,-1.5832,-1.5832,-1.5832,-1.5832,-1.5832,-1.5832,-1.5832,-1.5832,-1.5832,0.8038,0.8038,0.8038,0.8038,0.8038,0.8038,0.8038,0.8038,0.8038,0.8038,0.8038,0.8038,0.8038,0.8038,0.8038,0.8038,0.8289,0.8482,0.8482,0.8747,0.8826,0.8484,0.8263,0.7642,0.6505,0.5842,0.4964,0.3517,0.2411,0.1471,0.0614,0.0491,0.0368,0.0,0.0,0.0,0.0,0.0,0.0,0.0,-0.0587,-0.1173,-0.1873,-0.3342,-0.4574,-0.5823,-0.698,0.0,-0.8484,-0.8823,-0.894,-0.894,-0.894,-0.8927,-0.891,-0.891,-0.8811,-0.8679,-0.8679,-0.8789,-0.8992,-0.9977,-1.0763,-1.1611,-1.2767,-1.3596,-1.4394,-1.4981,-1.5458,-1.5832,-1.5832,-1.5832,-1.5832,-1.5832,-1.5832,-1.5832,-1.5832,-1.5832,-1.5832,-1.5832,-1.5832,-1.5832,-1.5832,-1.5832,-1.5832,-1.5832,-1.5832,-1.5832,-1.5832,-1.5832,-1.5832,-1.5832,-1.5832,-1.5832,-1.5832,-1.5832,-1.5832,-1.5832,-1.5832,-1.5832,-1.5832,-1.5832,-1.5832,-1.5832,-1.5832,-1.5832,-1.5832,-1.5832,-1.5832,-1.5832,-1.5832,-1.5832,0.8038,0.8038,0.8038,0.8038,0.8038,0.8038,0.8038,0.8038,0.8038,0.8038,0.8038,0.8038,0.8038,0.8038,0.8038,0.8038,0.8289,0.8482,0.8482,0.8747,0.8826,0.8484,0.8484,0.794,0.674,0.6601,0.5974,0.4381,0.3989,0.2847,0.095,0.0594,0.0238,0.0,0.0,0.0,0.0,0.0,0.0,0.0,-0.0346,-0.0803,-0.1471,-0.2705,-0.3938,-0.5172,-0.6606,0.0,-0.8156,-0.8716,-0.894,-0.894,-0.894,-0.8862,-0.875,-0.875,-0.8652,-0.8523,-0.8523,-0.8633,-0.8819,-0.9457,-1.034,-1.1363,-1.2464,-1.3448,-1.449,-1.5255,-1.5642,-1.5832,-1.5832,-1.5832,-1.5832,-1.5832,-1.5832,-1.5832,-1.5832,-1.5832,-1.5832,-1.5832,-1.5832,-1.5832,-1.5832,-1.5832,-1.5832,-1.5832,-1.5832,-1.5832,-1.5832,-1.5832,-1.5832,-1.5832,-1.5832,-1.5832,-1.5832,-1.5832,-1.5832,-1.5832,-1.5832,-1.5832,-1.5832,-1.5832,-1.5832,-1.5832,-1.5832,-1.5832,-1.5832,-1.5832,-1.5832,-1.5832,-1.5832,-1.5832,0.8038,0.8038,0.8038,0.8038,0.8038,0.8038,0.8038,0.8038,0.8038,0.8038,0.8038,0.8038,0.8038,0.8038,0.8038,0.8038,0.8289,0.8482,0.8482,0.8747,0.8826,0.8712,0.8712,0.8377,0.7709,0.7544,0.6907,0.5777,0.5021,0.358,0.1529,0.0589,0.0118,0.0,0.0,0.0,0.0,0.0,0.0,0.0,-0.0227,-0.0678,-0.1346,-0.2577,-0.3808,-0.5262,-0.6596,0.0,-0.8266,-0.8712,-0.8893,-0.8818,-0.8818,-0.8726,-0.8591,-0.8591,-0.8499,-0.8374,-0.8374,-0.8374,-0.8449,-0.8944,-0.9846,-1.0924,-1.1805,-1.3033,-1.4196,-1.4873,-1.5445,-1.5832,-1.5832,-1.5832,-1.5832,-1.5832,-1.5832,-1.5832,-1.5832,-1.5832,-1.5832,-1.5832,-1.5832,-1.5832,-1.5832,-1.5832,-1.5832,-1.5832,-1.5832,-1.5832,-1.5832,-1.5832,-1.5832,-1.5832,-1.5832,-1.5832,-1.5832,-1.5832,-1.5832,-1.5832,-1.5832,-1.5832,-1.5832,-1.5832,-1.5832,-1.5832,-1.5832,-1.5832,-1.5832,-1.5832,-1.5832,-1.5832,-1.5832,-1.5832,0.8041,0.8038,0.8038,0.8038,0.8038,0.8038,0.8038,0.8038,0.8038,0.8038,0.8038,0.8038,0.8038,0.8038,0.8038,0.8038,0.8289,0.8482,0.8482,0.8747,0.894,0.894,0.894,0.8826,0.8484,0.8266,0.7712,0.6824,0.5481,0.3734,0.1744,0.0699,0.0117,0.0,0.0,0.0,0.0,0.0,0.0,0.0,-0.0224,-0.0561,-0.1121,-0.2353,-0.3695,-0.5144,-0.646,0.0,0.0,-0.8633,-0.8771,-0.8662,-0.8662,-0.857,-0.8435,-0.8435,-0.8343,-0.8221,-0.8221,-0.814,-0.8038,-0.8528,-0.9422,-1.0413,-1.1389,-1.2651,-1.3908,-1.4592,-1.5261,-1.5832,-1.5832,-1.5832,-1.5832,-1.5832,-1.5832,-1.5832,-1.5832,-1.5832,-1.5832,-1.5832,-1.5832,-1.5832,-1.5832,-1.5832,-1.5832,-1.5832,-1.5832,-1.5832,-1.5832,-1.5772,-1.5732,-1.5732,-1.5792,-1.5832,-1.5832,-1.5832,-1.5832,-1.5832,-1.5772,-1.5732,-1.5637,-1.5732,-1.5732,-1.5732,-1.5798,-1.5832,-1.5832,-1.5832,-1.5832,-1.5832,-1.5832,-1.5832,0.8038,0.8038,0.8038,0.8038,0.8038,0.8038,0.8038,0.8038,0.8038,0.8038,0.8038,0.8038,0.8038,0.8038,0.8038,0.8038,0.8289,0.8482,0.8482,0.8747,0.894,0.894,0.894,0.8826,0.8484,0.8484,0.8042,0.7265,0.5031,0.3026,0.1464,0.0676,0.0225,0.0,0.0,0.0,0.0,0.0,0.0,0.0,0.0,-0.0224,-0.0561,-0.1681,-0.2798,-0.3913,-0.5722,0.0,0.0,-0.8262,-0.8516,-0.8503,-0.8503,-0.8414,-0.8289,-0.8289,-0.8191,-0.8062,-0.8062,-0.8052,-0.8038,-0.8333,-0.9031,-0.992,-1.1492,-1.2748,-1.3709,-1.479,-1.5458,-1.5832,-1.5832,-1.5832,-1.5832,-1.5832,-1.5832,-1.5832,-1.5832,-1.5832,-1.5832,-1.5832,-1.5832,-1.5832,-1.5832,-1.5832,-1.5832,-1.5832,-1.5832,-1.5832,-1.5832,-1.5598,-1.5438,-1.5438,-1.5671,-1.5832,-1.5832,-1.5832,-1.5832,-1.5832,-1.5578,-1.5338,-1.5233,-1.5338,-1.5438,-1.5438,-1.5698,-1.5832,-1.5832,-1.5832,-1.5832,-1.5832,-1.5832,-1.5832,0.8038,0.8038,0.8038,0.8038,0.8038,0.8038,0.8038,0.8038,0.8038,0.8038,0.8038,0.8038,0.8038,0.8038,0.8038,0.8038,0.8289,0.8482,0.8482,0.8747,0.894,0.894,0.894,0.8826,0.8712,0.8712,0.8266,0.7046,0.5481,0.3805,0.1905,0.0897,0.0224,0.0,0.0,0.0,0.0,0.0,0.0,0.0,0.0,-0.0112,-0.0442,-0.1325,-0.2304,-0.3583,-0.5062,0.0,0.0,-0.7982,-0.833,-0.8357,-0.8357,-0.8262,-0.8133,-0.8133,-0.8092,-0.8038,-0.8038,-0.8038,-0.8038,-0.8528,-0.9027,-0.9821,-1.1096,-1.2452,-1.3709,-1.4592,-1.5261,-1.5832,-1.5832,-1.5832,-1.5832,-1.5832,-1.5832,-1.5832,-1.5832,-1.5832,-1.5832,-1.5832,-1.5832,-1.5772,-1.5598,-1.5571,-1.5504,-1.5337,-1.5311,-1.5311,-1.5311,-1.5211,-1.5137,-1.5137,-1.5237,-1.5311,-1.5311,-1.5311,-1.5311,-1.5311,-1.5295,-1.5234,-1.513,-1.5026,-1.5033,-1.5137,-1.5251,-1.5311,-1.5311,-1.5484,-1.5571,-1.5571,-1.5745,-1.5832,0.8137,0.8038,0.8038,0.8038,0.8038,0.8038,0.8038,0.8038,0.8038,0.8038,0.8038,0.8038,0.8038,0.8038,0.8038,0.8038,0.8289,0.8482,0.8482,0.8747,0.894,0.894,0.894,0.894,0.894,0.8826,0.8269,0.6935,0.5929,0.4477,0.2464,0.1233,0.0449,0.0,0.0,0.0,0.0,0.0,0.0,0.0,0.0,-0.011,-0.0326,-0.0977,-0.1939,-0.3086,-0.4334,0.0,0.0,-0.7541,-0.7988,-0.8103,-0.8201,-0.8136,-0.8038,-0.8038,-0.8038,-0.8038,-0.8038,-0.8038,-0.8038,-0.8531,-0.9126,-0.9826,-1.09,-1.2257,-1.3709,-1.4592,-1.5261,-1.5832,-1.5832,-1.5832,-1.5832,-1.5832,-1.5832,-1.5805,-1.5718,-1.5705,-1.5671,-1.5591,-1.5571,-1.5504,-1.5304,-1.5271,-1.5197,-1.4997,-1.4963,-1.4963,-1.4963,-1.4883,-1.4836,-1.4836,-1.4756,-1.4776,-1.495,-1.4963,-1.4963,-1.4957,-1.4986,-1.4939,-1.4734,-1.4625,-1.4632,-1.4836,-1.4917,-1.4963,-1.4963,-1.517,-1.5271,-1.5277,-1.5478,-1.5571,0.8137,0.8038,0.8038,0.8038,0.8038,0.8038,0.8038,0.8038,0.8038,0.8038,0.8038,0.8038,0.8038,0.8038,0.8038,0.8038,0.8289,0.8482,0.8482,0.8747,0.894,0.894,0.894,0.894,0.894,0.8709,0.8152,0.7265,0.604,0.0,0.28,0.1793,0.0897,0.0,0.0,0.0,0.0,0.0,0.0,0.0,0.0,0.0,0.0,-0.0853,-0.1598,-0.2341,0.0,0.0,0.0,-0.6793,-0.7344,-0.765,-0.7945,-0.8041,-0.8038,-0.8038,-0.8038,-0.8038,-0.8038,-0.8038,-0.8038,-0.8333,-0.8931,-0.9826,-1.09,-1.2257,-1.3709,-1.479,-1.5458,-1.5832,-1.5832,-1.5832,-1.5832,-1.5832,-1.5832,-1.5752,-1.5464,-1.5398,-1.5317,-1.503,-1.497,-1.497,-1.497,-1.497,-1.497,-1.4963,-1.4963,-1.4963,-1.4963,-1.4703,-1.4522,-1.4522,-1.4269,-1.4329,-1.491,-1.4963,-1.4957,-1.4751,-1.4689,-1.4529,-1.4135,-1.4128,-1.4228,-1.4522,-1.481,-1.4963,-1.4963,-1.497,-1.497,-1.497,-1.497,-1.497,0.8137,0.8038,0.8038,0.8038,0.8038,0.8038,0.8038,0.8038,0.8038,0.8038,0.8038,0.8038,0.8038,0.8038,0.8038,0.8038,0.8289,0.8482,0.8482,0.8747,0.894,0.894,0.894,0.894,0.894,0.8826,0.838,0.7265,0.6485,0.5008,0.2863,0.1984,0.1103,0.0,0.0,0.0,0.0,0.0,0.0,0.0,0.0,0.0,0.0,-0.0523,-0.1039,0.0,0.0,0.0,0.0,-0.6055,-0.6739,-0.7341,-0.7643,-0.7842,-0.8038,-0.8038,-0.8038,-0.8038,-0.8038,-0.8038,-0.8038,-0.8333,-0.8832,-0.9529,-1.0806,-1.2257,-1.3806,-1.5159,-1.5737,-1.5832,-1.5832,-1.5832,-1.5778,-1.5578,-1.5531,-1.5451,-1.5164,-1.5104,-1.507,-1.4983,-1.4963,-1.4903,-1.4696,-1.4663,-1.4589,-1.4396,-1.4362,-1.4362,-1.4362,-1.4282,-1.4222,-1.4222,-1.4142,-1.4162,-1.4349,-1.4362,-1.4362,-1.4269,-1.4275,-1.4222,-1.4123,-1.4123,-1.413,-1.4222,-1.4315,-1.4362,-1.4362,-1.4563,-1.4763,-1.4963,-1.4963,-1.4963,0.8137,0.8038,0.8038,0.8038,0.8038,0.8038,0.8038,0.8038,0.8038,0.8038,0.8038,0.8038,0.8038,0.8038,0.8038,0.8038,0.8289,0.8482,0.8482,0.8747,0.894,0.894,0.894,0.894,0.894,0.894,0.8472,0.7312,0.6644,0.5279,0.3031,0.2164,0.1296,0.0215,0.0,0.0,0.0,0.0,0.0,0.0,0.0,0.0,0.0,-0.0308,-0.0715,-0.1312,0.0,0.0,0.0,-0.5236,-0.6137,-0.6939,-0.7444,-0.7743,-0.8038,-0.8038,-0.8038,-0.8038,-0.8038,-0.8038,-0.8038,-0.8237,-0.8931,-0.992,-1.1385,-1.284,-1.4196,-1.535,-1.573,-1.5805,-1.5698,-1.5665,-1.5591,-1.5304,-1.5237,-1.5157,-1.4856,-1.4796,-1.4763,-1.4656,-1.4629,-1.4576,-1.4389,-1.4355,-1.4295,-1.4115,-1.4088,-1.4088,-1.4088,-1.4088,-1.4088,-1.4088,-1.4088,-1.4088,-1.4088,-1.4088,-1.4088,-1.4088,-1.4088,-1.4088,-1.4088,-1.4088,-1.4088,-1.4088,-1.4088,-1.4088,-1.4088,-1.4269,-1.4449,-1.4629,-1.4629,-1.4629,0.0,0.8038,0.8038,0.8038,0.8038,0.8038,0.8038,0.8038,0.0,0.8038,0.8038,0.8038,0.8038,0.8038,0.8038,0.8038,0.8279,0.8469,0.8479,0.8747,0.894,0.894,0.893,0.8923,0.8923,0.8913,0.8407,0.7408,0.6637,0.5401,0.3508,0.2338,0.1371,0.0415,0.0105,0.0,0.0,0.0,0.0,0.0,0.0,0.0,0.0,-0.0303,-0.0505,0.0,0.0,0.0,0.0,-0.4528,-0.5632,-0.6437,-0.7244,-0.7743,-0.8038,-0.8038,-0.8038,-0.8038,-0.8038,-0.8038,-0.8038,-0.8038,-0.9118,-1.0681,-1.2124,-1.3584,-1.4752,-1.5317,-1.5596,-1.5705,-1.5438,-1.5364,-1.5291,-1.5003,-1.493,-1.485,-1.4556,-1.4489,-1.4409,-1.4142,-1.4088,-1.4088,-1.4088,-1.4088,-1.4088,-1.4088,-1.4088,-1.4088,-1.4088,-1.4088,-1.4088,-1.4088,-1.4088,-1.4088,-1.4088,-1.4088,-1.4088,-1.4088,-1.4088,-1.4088,-1.4088,-1.4088,-1.4088,-1.4088,-1.4088,-1.4088,-1.4088,-1.4088,-1.4088,-1.4088,-1.4088,-1.4088,0.8137,0.0,0.8038,0.8038,0.8038,0.8038,0.0,0.8038,0.8038,0.8038,0.8038,0.8038,0.8038,0.8038,0.8038,0.8038,0.8197,0.836,0.8465,0.8747,0.894,0.894,0.8835,0.8764,0.8764,0.8659,0.8255,0.7266,0.673,0.5514,0.3548,0.2503,0.1553,0.0509,0.0204,0.0,0.0,0.0,0.0,0.0,0.0,0.0,0.0,-0.0101,-0.0202,0.0,0.0,0.0,-0.2622,-0.3627,-0.4832,-0.6142,-0.6742,-0.7441,-0.8038,-0.8038,-0.8038,-0.8038,-0.8038,-0.8038,-0.8038,-0.8432,-0.9327,-1.0272,-1.1512,-1.2947,-1.419,-1.4926,-1.5147,-1.515,-1.5084,-1.5064,-1.499,-1.4696,-1.4623,-1.4543,-1.4255,-1.4188,-1.4168,-1.4102,-1.4088,-1.4088,-1.4088,-1.4088,-1.4088,-1.4088,-1.4088,-1.4088,-1.4088,-1.4088,-1.4088,-1.4088,-1.4243,-1.4321,-1.4321,-1.4166,-1.4088,-1.4088,-1.4088,-1.4088,-1.4088,-1.4088,-1.4088,-1.4088,-1.4088,-1.4088,-1.4088,-1.4088,-1.4088,-1.4088,-1.4088,-1.4088,0.8038,0.8038,0.8038,0.8038,0.8038,0.8038,0.8038,0.8038,0.8038,0.8038,0.8038,0.8038,0.8038,0.8038,0.8038,0.8038,0.817,0.8343,0.8557,0.873,0.8832,0.8832,0.876,0.8682,0.0,0.853,0.8243,0.7553,0.6815,0.5726,0.4094,0.2763,0.1632,0.0808,0.0303,0.0,0.0,0.0,0.0,0.0,0.0,0.0,0.0,0.0,-0.0101,0.0,0.0,0.0,-0.2117,-0.3024,-0.4331,-0.5839,-0.6542,-0.7241,-0.8038,-0.8038,-0.8038,-0.8038,-0.8038,-0.7994,-0.8021,-0.8527,-0.9299,-1.0157,-1.1381,-1.2618,-1.3665,-1.4415,-1.4805,-1.493,-1.4796,-1.4763,-1.4689,-1.4389,-1.4322,-1.4282,-1.4122,-1.4088,-1.4088,-1.4088,-1.4088,-1.4088,-1.4088,-1.4088,-1.4088,-1.4088,-1.4088,-1.4166,-1.4243,-1.4243,-1.4328,-1.4503,-1.4664,-1.4734,-1.481,-1.4664,-1.4503,-1.4243,-1.4243,-1.4166,-1.4088,-1.4088,-1.4088,-1.4088,-1.4088,-1.4088,-1.4088,-1.4088,-1.4088,-1.4088,-1.4088,-1.4088,0.8038,0.8038,0.8038,0.8038,0.8038,0.8038,0.8038,0.8038,0.8038,0.8038,0.8038,0.8038,0.8038,0.8038,0.8038,0.8038,0.817,0.836,0.8608,0.8662,0.8676,0.8676,0.8655,0.8591,0.8462,0.8428,0.826,0.7929,0.6896,0.5933,0.4839,0.3124,0.1816,0.1111,0.0404,0.0,0.0,0.0,0.0,0.0,0.0,0.0,0.0,0.0,0.0,0.0,0.0,0.0,-0.1714,-0.262,-0.4028,-0.5634,-0.6442,-0.7241,-0.8038,-0.8038,-0.8024,-0.8001,-0.798,-0.7885,-0.7852,-0.8475,-0.9148,-1.0048,-1.1431,-1.2367,-1.3191,-1.3856,-1.4461,-1.4776,-1.4516,-1.4456,-1.4389,-1.4142,-1.4088,-1.4088,-1.4088,-1.4088,-1.4088,-1.4088,-1.4088,-1.4088,-1.4088,-1.4088,-1.4088,-1.4088,-1.4088,-1.4166,-1.4398,-1.4398,-1.4566,-1.5082,-1.5166,-1.5249,-1.5401,-1.5325,-1.4999,-1.4566,-1.4482,-1.4321,-1.4088,-1.4088,-1.4088,-1.4088,-1.4088,-1.4088,-1.4088,-1.4088,-1.4088,-1.4088,-1.4088,-1.4088,0.8038,0.8038,0.8038,0.8038,0.8038,0.8038,0.8038,0.8038,0.8038,0.8038,0.8038,0.8038,0.8038,0.8038,0.8038,0.8038,0.817,0.8286,0.8333,0.8442,0.8516,0.8516,0.8411,0.833,0.8306,0.8184,0.7999,0.7679,0.7074,0.6158,0.4834,0.3626,0.2319,0.0707,0.0202,0.0,0.0,0.0,0.0,0.0,0.0,0.0,0.0,0.0,0.0,0.0,0.0,-0.0606,-0.1613,-0.2219,-0.3728,-0.5634,-0.6237,-0.7138,-0.8038,-0.8038,-0.7957,-0.7828,-0.7709,-0.7651,-0.7722,-0.816,-0.8886,-0.9759,-1.0756,-1.1839,-1.2863,-1.342,-1.3874,-1.4208,-1.4168,-1.4155,-1.4142,-1.4095,-1.4088,-1.4088,-1.4088,-1.4088,-1.4088,-1.4088,-1.4088,-1.4088,-1.4088,-1.4088,-1.4088,-1.4088,-1.4088,-1.4166,-1.4398,-1.4398,-1.4566,-1.5082,-1.5242,-1.5401,-1.565,-1.565,-1.5409,-1.4999,-1.4657,-1.4321,-1.4088,-1.4088,-1.4088,-1.4088,-1.4088,-1.4088,-1.4088,-1.4088,-1.4088,-1.4088,-1.4088,-1.4088,0.8038,0.8038,0.8038,0.8038,0.8038,0.8038,0.8038,0.8038,0.8038,0.8038,0.8038,0.8038,0.8038,0.8038,0.8038,0.8038,0.8099,0.8174,0.8258,0.8326,0.8367,0.8367,0.0,0.8238,0.8153,0.8082,0.7939,0.7842,0.7144,0.6339,0.5336,0.3927,0.2519,0.111,0.0404,0.0,0.0,0.0,0.0,0.0,0.0,0.0,0.0,0.0,0.0,0.0,0.0,-0.0707,-0.1714,-0.252,-0.3927,-0.5629,-0.6267,-0.703,-0.7906,-0.7831,-0.7756,-0.7675,-0.7529,-0.7478,-0.7554,-0.8102,-0.8645,-0.9376,-1.0617,-1.1587,-1.2448,-1.3222,-1.3737,-1.4088,-1.4088,-1.4088,-1.4088,-1.4088,-1.4088,-1.4088,-1.4088,-1.4088,-1.4088,-1.4088,-1.4088,-1.4088,-1.4088,-1.4088,-1.4088,-1.4088,-1.4088,-1.425,-1.4482,-1.4566,-1.4817,-1.559,-1.5748,-1.5824,-1.6064,-1.5989,-1.5658,-1.4915,-1.4489,-1.4166,-1.4088,-1.4088,-1.4088,-1.4088,-1.4088,-1.4088,-1.4088,-1.4088,-1.4088,-1.4088,-1.4088,-1.4088,0.8038,0.8038,0.8038,0.8038,0.8038,0.8038,0.8038,0.8038,0.8038,0.8038,0.8038,0.8038,0.8038,0.8038,0.8038,0.8038,0.8038,0.8079,0.8201,0.8218,0.8218,0.8218,0.8218,0.817,0.8052,0.8038,0.8038,0.8038,0.7341,0.6539,0.5737,0.423,0.2821,0.1714,0.0707,0.0101,0.0,0.0,0.0,0.0,0.0,0.0,0.0,0.0,0.0,0.0,-0.0303,-0.0906,-0.1703,-0.2702,-0.409,-0.5652,-0.6349,-0.7087,-0.7743,-0.76,-0.7546,-0.7522,-0.737,-0.7319,-0.7389,-0.7893,-0.8372,-0.9065,-1.0289,-1.1241,-1.21,-1.2966,-1.3568,-1.3997,-1.4088,-1.4088,-1.4088,-1.4088,-1.4088,-1.4088,-1.4088,-1.4088,-1.4088,-1.4088,-1.4088,-1.4088,-1.4088,-1.4088,-1.4088,-1.4088,-1.4088,-1.425,-1.4566,-1.465,-1.4992,-1.5756,-1.5922,-1.6079,-1.6319,-1.6162,-1.5665,-1.4901,-1.4412,-1.4088,-1.4088,-1.4088,-1.4088,-1.4088,-1.4088,-1.4088,-1.4088,-1.4088,-1.4088,-1.4088,-1.4088,-1.4088,0.8038,0.8038,0.8038,0.8038,0.8038,0.8038,0.8038,0.8038,0.8038,0.8038,0.8038,0.8038,0.8038,0.8038,0.8038,0.8038,0.8038,0.8041,0.8055,0.8055,0.8055,0.8055,0.8055,0.8052,0.8041,0.8038,0.8038,0.8038,0.7441,0.6839,0.6042,0.4636,0.3327,0.2017,0.1212,0.0505,0.0,0.0,0.0,0.0,0.0,0.0,0.0,0.0,0.0,0.0,-0.0303,-0.1,-0.1965,-0.2747,-0.4075,-0.5723,-0.6189,-0.6944,-0.7597,-0.7444,-0.7387,-0.7366,-0.721,-0.7156,-0.7156,-0.7418,-0.8025,-0.8632,-0.9428,-1.0641,-1.1843,-1.2534,-1.3215,-1.3822,-1.4004,-1.4088,-1.4088,-1.4088,-1.4088,-1.4088,-1.4088,-1.4088,-1.4088,-1.4088,-1.4088,-1.4088,-1.4088,-1.4088,-1.4088,-1.4088,-1.4088,-1.4166,-1.4398,-1.4391,-1.4566,-1.509,-1.5325,-1.565,-1.6087,-1.5906,-1.565,-1.5394,-1.458,-1.4088,-1.4088,-1.4088,-1.4088,-1.4088,-1.4088,-1.4088,-1.4088,-1.4088,-1.4088,-1.4088,-1.4088,-1.4088,0.8038,0.8038,0.8038,0.8038,0.8038,0.8038,0.8038,0.8038,0.8038,0.8038,0.8038,0.8038,0.8038,0.8038,0.8038,0.8038,0.8038,0.8038,0.8038,0.8038,0.8038,0.8038,0.8038,0.8038,0.8038,0.8038,0.8038,0.8038,0.7537,0.6839,0.6042,0.4736,0.3428,0.2017,0.1212,0.0505,0.0,0.0,0.0,0.0,0.0,0.0,0.0,0.0,0.0,0.0,-0.0397,-0.1079,-0.2021,-0.3364,-0.4591,-0.579,-0.665,-0.7119,-0.7305,-0.7248,-0.7227,-0.7217,-0.716,-0.7139,-0.7143,-0.7415,-0.7764,-0.8197,-0.917,-1.0125,-1.1068,-1.2186,-1.2881,-1.3483,-1.4004,-1.4088,-1.4088,-1.4088,-1.4088,-1.4088,-1.4088,-1.4088,-1.4088,-1.4088,-1.4088,-1.4028,-1.3841,-1.3808,-1.3748,-1.3567,-1.354,-1.3696,-1.4006,-1.4006,-1.4328,-1.5056,-1.5374,-1.5612,-1.5779,-1.5605,-1.5359,-1.52,-1.486,-1.4587,-1.4321,-1.4321,-1.4243,-1.4088,-1.4088,-1.4088,-1.4088,-1.4088,-1.4088,-1.4088,-1.4088,-1.4088,0.8038,0.8038,0.8038,0.8038,0.8038,0.8038,0.8038,0.8038,0.8038,0.8038,0.8038,0.8038,0.8038,0.8038,0.8038,0.8038,0.8038,0.8038,0.8038,0.8038,0.8038,0.8038,0.8038,0.8038,0.8038,0.8038,0.8038,0.8038,0.754,0.6939,0.6139,0.4937,0.3629,0.2219,0.1313,0.0606,0.0,0.0,0.0,0.0,0.0,0.0,0.0,0.0,0.0,0.0,-0.0584,-0.1154,-0.1885,-0.3484,-0.4782,-0.6051,-0.6973,-0.7234,-0.7139,-0.7139,-0.7139,-0.7139,-0.7139,-0.7139,-0.7143,-0.7415,-0.768,-0.8028,-0.8995,-0.9777,-1.0636,-1.202,-1.2796,-1.3294,-1.38,-1.4015,-1.4088,-1.4088,-1.4015,-1.3948,-1.3948,-1.3874,-1.3808,-1.3808,-1.3808,-1.3748,-1.354,-1.3507,-1.344,-1.324,-1.3286,-1.3437,-1.3738,-1.3895,-1.4287,-1.5134,-1.5443,-1.5682,-1.5843,-1.5682,-1.5528,-1.5289,-1.5268,-1.4864,-1.4275,-1.4111,-1.4042,-1.3808,-1.3808,-1.3808,-1.3808,-1.3901,-1.3948,-1.3948,-1.4041,-1.4088,0.8038,0.8038,0.8038,0.8038,0.8038,0.8038,0.8038,0.8038,0.8038,0.8038,0.8038,0.8038,0.8038,0.8038,0.8038,0.8038,0.8038,0.8038,0.8038,0.8038,0.8038,0.8038,0.8038,0.8038,0.8038,0.8038,0.8038,0.8038,0.7743,0.7244,0.6437,0.5336,0.4029,0.2422,0.1615,0.0808,0.0,0.0,0.0,0.0,0.0,0.0,0.0,0.0,0.0,-0.0095,-0.1049,-0.1507,-0.1476,-0.2859,-0.4643,-0.6428,-0.6874,-0.7139,-0.7139,-0.7139,-0.7139,-0.7139,-0.7139,-0.7139,-0.7143,-0.7415,-0.768,-0.8116,-0.8995,-0.9946,-1.0809,-1.21,-1.2875,-1.3412,-1.355,-1.3854,-1.4082,-1.4082,-1.3854,-1.3641,-1.3641,-1.3414,-1.3213,-1.3213,-1.3213,-1.3213,-1.3206,-1.3206,-1.3206,-1.32,-1.3344,-1.3567,-1.3803,-1.4123,-1.4669,-1.5412,-1.5481,-1.5795,-1.6413,-1.6277,-1.6133,-1.5896,-1.5605,-1.4917,-1.3817,-1.3574,-1.343,-1.3213,-1.3213,-1.3213,-1.3213,-1.35,-1.3641,-1.3566,-1.3941,-1.4082,0.8038,0.8038,0.8038,0.8038,0.8038,0.8038,0.8038,0.8038,0.8038,0.8038,0.8038,0.8038,0.8038,0.8038,0.8038,0.8038,0.8038,0.8038,0.8038,0.8038,0.8038,0.8038,0.8038,0.8038,0.8038,0.8038,0.8038,0.8038,0.7743,0.7244,0.6437,0.5336,0.4029,0.2422,0.1615,0.0808,0.0,0.0,0.0,0.0,0.0,0.0,0.0,0.0,0.0,0.0,-0.084,-0.1475,-0.2078,-0.415,-0.5749,-0.6874,-0.7051,-0.7139,-0.7139,-0.7139,-0.7139,-0.7139,-0.7139,-0.7139,-0.7143,-0.7415,-0.768,-0.8028,-0.9165,-0.9951,-1.0692,-1.1977,-1.2594,-1.287,-1.3253,-1.34,-1.3474,-1.3474,-1.34,-1.334,-1.334,-1.3273,-1.3213,-1.3213,-1.3213,-1.314,-1.2919,-1.2886,-1.2812,-1.2605,-1.2722,-1.3091,-1.3755,-1.4347,-1.4862,-1.5219,-1.5526,-1.5752,-1.5816,-1.5599,-1.5381,-1.5016,-1.4576,-1.4193,-1.4038,-1.3817,-1.3588,-1.3213,-1.3213,-1.3213,-1.3213,-1.33,-1.334,-1.334,-1.3427,-1.3474,0.8038,0.8038,0.8038,0.8038,0.8038,0.8038,0.8038,0.8038,0.8038,0.8038,0.8038,0.8038,0.8038,0.8038,0.8038,0.8038,0.8038,0.8038,0.8038,0.8038,0.8038,0.8038,0.8038,0.8038,0.8038,0.8038,0.8038,0.8038,0.7842,0.7341,0.6437,0.5534,0.4331,0.2421,0.1716,0.0905,0.0,0.0,0.0,0.0,0.0,0.0,0.0,0.0,0.0,-0.0091,-0.1096,-0.2174,-0.34,-0.5455,-0.6615,-0.7139,-0.7139,-0.7139,-0.7139,-0.7139,-0.7139,-0.7139,-0.7139,-0.7139,-0.7143,-0.7503,-0.7852,-0.8273,-0.942,-1.0167,-1.0884,-1.1981,-1.2488,-1.2749,-1.3021,-1.3026,-1.306,-1.318,-1.312,-1.3026,-1.3026,-1.2933,-1.2852,-1.2852,-1.2852,-1.2792,-1.2599,-1.2565,-1.2512,-1.2325,-1.2599,-1.3112,-1.3912,-1.4482,-1.4911,-1.5275,-1.5426,-1.5505,-1.5505,-1.5196,-1.4832,-1.4489,-1.3985,-1.3653,-1.3591,-1.3453,-1.3146,-1.2846,-1.2852,-1.2852,-1.2852,-1.2973,-1.3026,-1.3026,-1.3153,-1.3213,0.8038,0.8038,0.8038,0.8038,0.8038,0.8038,0.8038,0.8038,0.8038,0.8038,0.8038,0.8038,0.8038,0.8038,0.8038,0.8038,0.8038,0.8038,0.8038,0.8038,0.8038,0.8038,0.8038,0.8038,0.8038,0.8038,0.8038,0.8038,0.8038,0.7537,0.6437,0.5934,0.4632,0.2421,0.1913,0.1098,0.0,0.0,0.0,0.0,0.0,0.0,0.0,0.0,0.0,-0.018,-0.1703,-0.331,-0.4919,-0.6361,-0.6982,-0.7139,-0.7139,-0.7139,-0.7139,-0.7139,-0.7139,-0.7139,-0.7139,-0.7139,-0.7231,-0.7764,-0.8189,-0.8661,-0.9611,-1.0543,-1.131,-1.2037,-1.2527,-1.2857,-1.2786,-1.2782,-1.2856,-1.306,-1.2913,-1.2782,-1.2782,-1.2492,-1.2305,-1.2305,-1.2305,-1.2305,-1.2305,-1.2305,-1.2305,-1.2298,-1.2826,-1.3484,-1.4209,-1.4497,-1.4784,-1.5355,-1.5275,-1.5204,-1.5434,-1.4903,-1.4466,-1.4266,-1.3775,-1.3273,-1.29,-1.2673,-1.2526,-1.2305,-1.2305,-1.2305,-1.2305,-1.2572,-1.2782,-1.2788,-1.2993,-1.3126,0.8038,0.8038,0.8038,0.8038,0.8038,0.8038,0.8038,0.8038,0.8038,0.8038,0.8038,0.8038,0.8038,0.8038,0.8038,0.8038,0.8038,0.8038,0.8038,0.8038,0.8038,0.8038,0.8038,0.8038,0.8038,0.8038,0.8038,0.8038,0.8038,0.7537,0.6437,0.5934,0.4632,0.2421,0.1891,0.1084,0.0,0.0,0.0,0.0,0.0,0.0,0.0,0.0,-0.027,-0.0808,-0.1792,-0.331,-0.5008,-0.5725,-0.6435,-0.7139,-0.7139,-0.7139,-0.7139,-0.7139,-0.7139,-0.7139,-0.7139,-0.7139,-0.7231,-0.7764,-0.8024,-0.8504,-0.9733,-1.0517,-1.1139,-1.192,-1.2318,-1.2479,-1.2404,-1.2398,-1.2418,-1.2478,-1.2445,-1.2398,-1.2398,-1.2345,-1.2305,-1.2305,-1.2305,-1.2305,-1.2305,-1.2305,-1.2378,-1.2526,-1.2746,-1.3193,-1.3833,-1.4194,-1.4561,-1.4982,-1.4832,-1.4848,-1.5119,-1.4433,-1.3897,-1.368,-1.3258,-1.2973,-1.29,-1.2673,-1.2526,-1.2305,-1.2305,-1.2305,-1.2305,-1.2365,-1.2398,-1.2398,-1.2465,-1.2498,0.7942,0.8038,0.8038,0.8038,0.8038,0.8038,0.8038,0.8038,0.8038,0.8038,0.8038,0.8038,0.8038,0.8038,0.8038,0.8038,0.8038,0.8038,0.8038,0.8038,0.8038,0.8038,0.8038,0.8038,0.8038,0.8038,0.8038,0.8038,0.8038,0.7537,0.6437,0.5934,0.4632,0.2421,0.1883,0.1075,0.0,0.0,0.0,0.0,0.0,0.0,0.0,0.0,-0.0359,-0.1076,-0.1881,-0.3221,-0.5008,-0.5542,-0.6251,-0.7139,-0.7139,-0.7139,-0.7139,-0.7139,-0.7139,-0.7139,-0.7139,-0.7095,-0.7037,-0.7476,-0.7963,-0.8472,-0.936,-1.0305,-1.1111,-1.163,-1.2011,-1.2355,-1.2345,-1.2305,-1.2305,-1.2305,-1.2305,-1.2305,-1.2305,-1.2305,-1.2305,-1.2305,-1.2305,-1.2305,-1.2305,-1.2305,-1.2378,-1.2599,-1.2673,-1.2966,-1.3557,-1.384,-1.4057,-1.4482,-1.4338,-1.4281,-1.4441,-1.3992,-1.3622,-1.3477,-1.3119,-1.2893,-1.2753,-1.2526,-1.2378,-1.2305,-1.2305,-1.2305,-1.2305,-1.2305,-1.2305,-1.2305,-1.2305,-1.2305,0.7842,0.7942,0.8038,0.8038,0.8038,0.8038,0.8038,0.8038,0.8038,0.8038,0.8038,0.8038,0.8038,0.8038,0.8038,0.8038,0.8038,0.8038,0.8038,0.8038,0.8038,0.8038,0.8038,0.8038,0.8038,0.8038,0.8038,0.8038,0.8038,0.7537,0.6437,0.5934,0.4624,0.251,0.1874,0.1065,0.0,0.0,0.0,0.0,0.0,0.0,0.0,-0.009,-0.0449,-0.1166,-0.1971,-0.331,-0.5008,-0.5544,-0.6254,-0.7139,-0.7139,-0.7139,-0.7139,-0.7139,-0.7139,-0.7136,-0.7112,-0.7027,-0.6922,-0.7151,-0.77,-0.8341,-0.8815,-0.9917,-1.1006,-1.1322,-1.1781,-1.2224,-1.2298,-1.2305,-1.2305,-1.2305,-1.2305,-1.2305,-1.2305,-1.2305,-1.2305,-1.2305,-1.2305,-1.2305,-1.2305,-1.2305,-1.2378,-1.2526,-1.2526,-1.2746,-1.3346,-1.3419,-1.3564,-1.3912,-1.3775,-1.3695,-1.3803,-1.3695,-1.3572,-1.3564,-1.3193,-1.2893,-1.2673,-1.2452,-1.2305,-1.2305,-1.2305,-1.2305,-1.2305,-1.2305,-1.2305,-1.2305,-1.2305,-1.2305,0.7543,0.7842,0.8038,0.8038,0.8038,0.8038,0.8038,0.8038,0.8038,0.8038,0.8038,0.8038,0.8038,0.8038,0.8038,0.8038,0.8038,0.8038,0.8038,0.8038,0.8038,0.8038,0.8038,0.8038,0.8038,0.8038,0.8038,0.8038,0.8038,0.7537,0.6437,0.5934,0.4597,0.2462,0.1837,0.1043,0.0,0.0,0.0,0.0,0.0,0.0,0.0,-0.0269,-0.0897,-0.1794,-0.251,-0.3669,-0.5097,-0.5725,-0.6435,-0.7139,-0.7139,-0.7139,-0.7139,-0.7139,-0.7139,-0.7122,-0.7,-0.6946,-0.6905,-0.7104,-0.7278,-0.7693,-0.8695,-0.9498,-1.0257,-1.1123,-1.1706,-1.2077,-1.2231,-1.2305,-1.2305,-1.2305,-1.2305,-1.2305,-1.2305,-1.2305,-1.2305,-1.2305,-1.2305,-1.2305,-1.2305,-1.2305,-1.2305,-1.2305,-1.2305,-1.2526,-1.29,-1.2973,-1.3119,-1.3564,-1.3324,-1.3288,-1.3548,-1.376,-1.387,-1.3992,-1.3484,-1.3046,-1.29,-1.2526,-1.2305,-1.2305,-1.2305,-1.2305,-1.2305,-1.2305,-1.2305,-1.2305,-1.2305,-1.2305,0.6942,0.7444,0.7743,0.7743,0.7842,0.8038,0.8038,0.8038,0.8038,0.8038,0.8038,0.8038,0.8038,0.8038,0.8038,0.8038,0.8038,0.8038,0.8038,0.8038,0.8038,0.8038,0.8038,0.8038,0.8038,0.8038,0.8038,0.8038,0.8038,0.7537,0.6437,0.5934,0.4591,0.2452,0.1926,0.1039,0.0,0.0,0.0,0.0,0.0,0.0,0.0,-0.0538,-0.1256,-0.2243,-0.2689,-0.376,-0.528,-0.5816,-0.6523,-0.7139,-0.7139,-0.7139,-0.7139,-0.7139,-0.7001,-0.6924,-0.6949,-0.6817,-0.6661,-0.6756,-0.7027,-0.7442,-0.8289,-0.9153,-1.0067,-1.0962,-1.1632,-1.2077,-1.2231,-1.2305,-1.2305,-1.2305,-1.2305,-1.2305,-1.2305,-1.2305,-1.2305,-1.2305,-1.2305,-1.2305,-1.2305,-1.2305,-1.2305,-1.2305,-1.2305,-1.2452,-1.2826,-1.29,-1.3046,-1.3492,-1.3397,-1.3448,-1.3803,-1.4137,-1.4232,-1.4129,-1.363,-1.32,-1.29,-1.2526,-1.2305,-1.2305,-1.2305,-1.2305,-1.2305,-1.2305,-1.2305,-1.2305,-1.2305,-1.2305,0.6137,0.6742,0.7244,0.7347,0.7543,0.7743,0.7842,0.7942,0.7942,0.7939,0.8038,0.8038,0.8038,0.8038,0.8038,0.8038,0.8038,0.8038,0.8038,0.8038,0.8038,0.8038,0.8038,0.8038,0.8038,0.8038,0.8038,0.8038,0.8038,0.754,0.6537,0.5909,0.4656,0.2628,0.1912,0.1125,0.0092,0.0,0.0,0.0,0.0,0.0,-0.009,-0.0808,-0.1614,-0.2512,-0.2867,-0.3939,-0.546,-0.5994,-0.6612,-0.7139,-0.7139,-0.7139,-0.7136,-0.7099,-0.6934,-0.683,-0.6837,-0.6664,-0.6468,-0.643,-0.6734,-0.7253,-0.7855,-0.877,-0.9836,-1.0738,-1.1409,-1.1929,-1.2157,-1.2224,-1.2305,-1.2305,-1.2305,-1.2305,-1.2305,-1.2305,-1.2305,-1.2305,-1.2305,-1.2305,-1.2305,-1.2305,-1.2305,-1.2305,-1.2305,-1.2452,-1.2746,-1.2826,-1.2973,-1.3346,-1.3404,-1.3688,-1.4065,-1.4377,-1.4377,-1.3977,-1.371,-1.328,-1.2826,-1.2526,-1.2305,-1.2305,-1.2305,-1.2305,-1.2305,-1.2305,-1.2305,-1.2305,-1.2305,-1.2305,0.5231,0.5634,0.6242,0.6745,0.6845,0.7045,0.7547,0.7646,0.7646,0.7939,0.8038,0.8038,0.8038,0.8038,0.8038,0.8038,0.8038,0.8038,0.8038,0.8038,0.8038,0.8038,0.8038,0.8038,0.8038,0.8038,0.8038,0.8038,0.8038,0.764,0.6842,0.5935,0.4758,0.3239,0.2059,0.1101,0.0359,0.009,0.0,0.0,0.0,-0.009,-0.0359,-0.0897,-0.1793,-0.2867,-0.3132,-0.4115,-0.546,-0.6349,-0.6877,-0.7139,-0.7139,-0.7139,-0.7126,-0.699,-0.6936,-0.6885,-0.6597,-0.6485,-0.6451,-0.6315,-0.657,-0.7015,-0.7629,-0.8389,-0.9226,-1.0212,-1.0962,-1.1484,-1.1929,-1.2157,-1.2305,-1.2305,-1.2305,-1.2305,-1.2305,-1.2305,-1.2305,-1.2305,-1.2305,-1.2305,-1.2305,-1.2305,-1.2305,-1.2305,-1.2305,-1.2378,-1.2599,-1.2599,-1.2673,-1.29,-1.3266,-1.3645,-1.4095,-1.4408,-1.4312,-1.3578,-1.3492,-1.3214,-1.2673,-1.2378,-1.2305,-1.2305,-1.2305,-1.2305,-1.2305,-1.2305,-1.2305,-1.2305,-1.2305,-1.2305,0.3827,0.4531,0.5238,0.5436,0.5939,0.6342,0.6542,0.6742,0.6839,0.6936,0.6936,0.6936,0.6936,0.7537,0.8038,0.8038,0.8038,0.8038,0.8038,0.8038,0.8038,0.8038,0.8038,0.8038,0.8038,0.8038,0.8038,0.8038,0.8038,0.764,0.6842,0.6129,0.4945,0.3234,0.2242,0.1191,0.018,0.009,0.0,0.0,0.0,-0.018,-0.0448,-0.1166,-0.2062,-0.2956,-0.4026,-0.501,-0.5905,-0.6526,-0.6877,-0.7139,-0.7139,-0.7085,-0.7087,-0.7039,-0.6891,-0.6788,-0.6676,-0.6493,-0.6329,-0.6355,-0.6483,-0.6934,-0.7629,-0.8389,-0.9226,-1.0212,-1.0962,-1.1484,-1.1929,-1.215,-1.2305,-1.2305,-1.2305,-1.2305,-1.2305,-1.2305,-1.2305,-1.2305,-1.2305,-1.2305,-1.2305,-1.2305,-1.2305,-1.2305,-1.2305,-1.2298,-1.2432,-1.2432,-1.2505,-1.2893,-1.3287,-1.3594,-1.3667,-1.3805,-1.3637,-1.315,-1.32,-1.3068,-1.2599,-1.2378,-1.2305,-1.2305,-1.2305,-1.2305,-1.2305,-1.2305,-1.2305,-1.2305,-1.2305,-1.2305,0.2621,0.3224,0.3929,0.423,0.4632,0.5135,0.5539,0.5737,0.5934,0.6137,0.6134,0.6134,0.6134,0.6736,0.7238,0.7437,0.754,0.764,0.764,0.7743,0.7842,0.7842,0.7939,0.8038,0.8038,0.8038,0.8038,0.8038,0.8038,0.0,0.7078,0.6268,0.4884,0.28,0.2028,0.1093,0.0,0.0,0.0,0.0,0.0,-0.018,-0.0628,-0.1436,-0.2331,-0.3405,-0.4743,-0.5547,-0.6171,-0.6704,-0.6966,-0.7136,-0.7088,-0.7014,-0.7004,-0.6901,-0.6815,-0.6631,-0.6579,-0.6421,-0.6338,-0.6338,-0.6483,-0.6857,-0.7476,-0.8161,-0.8993,-0.9986,-1.0812,-1.1409,-1.1781,-1.2077,-1.2305,-1.2305,-1.2305,-1.2305,-1.2305,-1.2305,-1.2305,-1.2305,-1.2305,-1.2305,-1.2305,-1.2305,-1.2305,-1.2305,-1.2305,-1.2298,-1.2285,-1.2278,-1.2432,-1.2673,-1.2907,-1.3134,-1.3134,-1.3112,-1.2945,-1.2718,-1.2813,-1.2753,-1.2526,-1.2378,-1.2305,-1.2305,-1.2305,-1.2305,-1.2305,-1.2305,-1.2305,-1.2305,-1.2305,-1.2305,0.0,0.0,0.0,0.2922,0.3123,0.3425,0.4431,0.4734,0.4834,0.5434,0.5534,0.5534,0.5534,0.5534,0.5634,0.6234,0.6539,0.6742,0.6742,0.7244,0.7547,0.7547,0.7842,0.7942,0.7942,0.7939,0.7939,0.7939,0.8035,0.7773,0.7437,0.6334,0.457,0.1887,0.1345,0.0718,0.0,0.0,0.0,0.0,0.0,-0.0359,-0.1076,-0.1615,-0.2689,-0.43,-0.5104,-0.5638,-0.6171,-0.6786,-0.7139,-0.7119,-0.698,-0.6922,-0.6878,-0.658,-0.6551,-0.6527,-0.6386,-0.6338,-0.6338,-0.6338,-0.6563,-0.7019,-0.7403,-0.7855,-0.8528,-0.9609,-1.0438,-1.1186,-1.1632,-1.2003,-1.2305,-1.2305,-1.2305,-1.2305,-1.2305,-1.2305,-1.2305,-1.2305,-1.2305,-1.2305,-1.2305,-1.2305,-1.2305,-1.2305,-1.2305,-1.2305,-1.2305,-1.2305,-1.2305,-1.2305,-1.2285,-1.2271,-1.2271,-1.2325,-1.2318,-1.2271,-1.2271,-1.2278,-1.2305,-1.2305,-1.2305,-1.2305,-1.2305,-1.2305,-1.2305,-1.2305,-1.2305,-1.2305,-1.2305,-1.2305,0.0707,0.0,0.0,0.0,0.0,0.0,0.2722,0.2923,0.3126,0.3225,0.3325,0.3325,0.3325,0.3325,0.3325,0.3527,0.4832,0.6039,0.6242,0.6342,0.6542,0.6739,0.6942,0.7141,0.7141,0.7444,0.7743,0.0,0.7838,0.766,0.7233,0.5397,0.3679,0.2152,0.1255,0.0538,0.0,0.0,0.0,0.0,0.0,-0.0359,-0.1166,-0.1792,-0.2865,-0.4387,-0.5277,-0.5991,-0.6615,-0.6966,-0.6991,-0.6893,-0.6857,-0.6706,-0.642,-0.6418,-0.6403,-0.6393,-0.6352,-0.6338,-0.6338,-0.6338,-0.6644,-0.7099,-0.7557,-0.7999,-0.8509,-0.9578,-1.0243,-1.0908,-1.1916,-1.2231,-1.2305,-1.2305,-1.2305,-1.2305,-1.2305,-1.2305,-1.2305,-1.2305,-1.2305,-1.2305,-1.2305,-1.2305,-1.2305,-1.2305,-1.2305,-1.2305,-1.2305,-1.2305,-1.2305,-1.2305,-1.2298,-1.2291,-1.2291,-1.2291,-1.2285,-1.2291,-1.2291,-1.2298,-1.2305,-1.2305,-1.2305,-1.2305,-1.2305,-1.2305,-1.2305,-1.2305,-1.2305,-1.2305,-1.2305,-1.2305,0.0,0.0303,0.0606,0.0808,0.0,0.0,0.1615,0.1817,0.1917,0.2017,0.2106,0.2095,0.2095,0.2082,0.2071,0.2071,0.3151,0.4155,0.4722,0.5236,0.5539,0.5737,0.6139,0.6523,0.6569,0.7057,0.7331,0.7469,0.7581,0.7406,0.6679,0.4912,0.3445,0.2239,0.1345,0.0628,0.0,0.0,0.0,0.0,0.0,-0.0449,-0.1256,-0.1881,-0.3044,-0.4654,-0.5364,-0.6166,-0.6962,-0.6991,-0.6917,-0.683,-0.6703,-0.6545,-0.6381,-0.6324,-0.6329,-0.6338,-0.6338,-0.6338,-0.6338,-0.6416,-0.6799,-0.7257,-0.7863,-0.8223,-0.8656,-0.9788,-1.0536,-1.1205,-1.207,-1.2305,-1.2305,-1.2305,-1.2305,-1.2305,-1.2305,-1.2305,-1.2305,-1.2305,-1.2305,-1.2305,-1.2305,-1.2305,-1.2305,-1.2305,-1.2305,-1.2305,-1.2305,-1.2305,-1.2305,-1.2305,-1.2305,-1.2305,-1.2305,-1.2305,-1.2305,-1.2305,-1.2305,-1.2305,-1.2305,-1.2305,-1.2305,-1.2305,-1.2305,-1.2305,-1.2305,-1.2305,-1.2305,-1.2305,-1.2305,-1.2305,-0.0707,-0.0606,-0.0404,0.0101,0.0201,0.0,0.0803,0.0903,0.1003,0.1303,0.1386,0.1371,0.1371,0.1351,0.1335,0.1335,0.1431,0.1833,0.289,0.3904,0.4505,0.4505,0.5205,0.5765,0.5953,0.6523,0.6864,0.7032,0.7299,0.6948,0.589,0.4791,0.3582,0.2239,0.1434,0.0718,0.0,0.0,0.0,0.0,0.0,-0.0539,-0.1436,-0.1971,-0.331,-0.501,-0.5542,-0.6245,-0.7105,-0.6963,-0.6905,-0.6875,-0.6583,-0.6464,-0.6434,-0.6308,-0.6338,-0.6338,-0.6338,-0.6338,-0.6416,-0.6644,-0.6949,-0.7411,-0.825,-0.8685,-0.9115,-1.0173,-1.1149,-1.1835,-1.2224,-1.2305,-1.2305,-1.2305,-1.2305,-1.2305,-1.2305,-1.2305,-1.2305,-1.2305,-1.2305,-1.2305,-1.2305,-1.2305,-1.2305,-1.2305,-1.2305,-1.2305,-1.2305,-1.2305,-1.2305,-1.2305,-1.2305,-1.2305,-1.2305,-1.2305,-1.2305,-1.2305,-1.2305,-1.2305,-1.2305,-1.2305,-1.2305,-1.2305,-1.2305,-1.2305,-1.2305,-1.2305,-1.2305,-1.2305,-1.2305,-1.2305,-0.1715,-0.1513,-0.1307,-0.1189,-0.1086,0.0,-0.0678,-0.0675,-0.0482,-0.0096,0.0,0.0,0.0,0.0,-0.0095,-0.0191,0.0095,0.0764,0.202,0.2406,0.2599,0.2888,0.3367,0.384,0.4016,0.5063,0.5815,0.6081,0.6368,0.6256,0.5499,0.4395,0.3133,0.1884,0.1166,0.0538,0.0,0.0,0.0,0.0,-0.018,-0.0718,-0.1436,-0.233,-0.3582,-0.501,-0.5725,-0.6377,-0.6959,-0.6807,-0.6746,-0.6725,-0.6546,-0.6403,-0.6298,-0.6271,-0.6338,-0.6338,-0.6338,-0.6412,-0.6563,-0.6791,-0.7249,-0.7859,-0.8623,-0.9382,-1.0288,-1.1564,-1.2009,-1.2224,-1.2298,-1.2305,-1.2305,-1.2305,-1.2305,-1.2305,-1.2305,-1.2305,-1.2305,-1.2305,-1.2305,-1.2305,-1.2305,-1.2305,-1.2305,-1.2305,-1.2305,-1.2305,-1.2305,-1.2305,-1.2305,-1.2305,-1.2305,-1.2305,-1.2305,-1.2305,-1.2305,-1.2305,-1.2305,-1.2305,-1.2305,-1.2305,-1.2305,-1.2305,-1.2305,-1.2305,-1.2305,-1.2305,-1.2305,-1.2305,-1.2305,-1.2305,-0.2722,-0.2502,-0.2281,-0.1966,-0.1851,0.0,0.0,-0.1524,-0.1429,-0.1143,-0.0945,-0.0939,-0.0939,-0.0932,-0.0925,-0.1018,-0.074,-0.0277,0.037,0.1128,0.1619,0.1811,0.238,0.2843,0.3003,0.4122,0.4944,0.5542,0.5761,0.5613,0.5109,0.403,0.2867,0.1794,0.1076,0.0449,0.0,0.0,0.0,0.0,-0.0269,-0.0807,-0.1615,-0.251,-0.376,-0.5191,-0.5816,-0.6364,-0.6915,-0.6763,-0.6654,-0.6573,-0.6424,-0.6325,-0.6338,-0.6338,-0.6338,-0.6338,-0.6338,-0.6412,-0.6641,-0.6945,-0.7557,-0.8246,-0.9155,-1.0207,-1.118,-1.2016,-1.2311,-1.2305,-1.2305,-1.2305,-1.2305,-1.2305,-1.2305,-1.2305,-1.2305,-1.2305,-1.2305,-1.2305,-1.2305,-1.2305,-1.2305,-1.2305,-1.2305,-1.2305,-1.2305,-1.2305,-1.2305,-1.2305,-1.2305,-1.2305,-1.2305,-1.2305,-1.2305,-1.2305,-1.2305,-1.2305,-1.2305,-1.2305,-1.2305,-1.2305,-1.2305,-1.2305,-1.2305,-1.2305,-1.2305,-1.2305,-1.2305,-1.2305,-1.2305,-1.2305,-0.3929,-0.3674,-0.3422,-0.3023,-0.2785,-0.2741,0.0,0.0,0.0,-0.207,-0.1859,-0.1656,-0.1656,-0.1724,-0.1704,-0.1792,0.0,0.0,0.0,-0.0185,0.0,0.0848,0.1601,0.2058,0.2209,0.3214,0.4193,0.5109,0.5102,0.4924,0.448,0.3583,0.2599,0.1705,0.0987,0.0449,0.0,0.0,0.0,0.0,-0.0359,-0.0987,-0.1794,-0.2778,-0.403,-0.546,-0.5968,-0.6412,-0.6871,-0.6719,-0.6566,-0.642,-0.6305,-0.6338,-0.6338,-0.6338,-0.6338,-0.6338,-0.6338,-0.649,-0.6714,-0.718,-0.8021,-0.9008,-0.9916,-1.0875,-1.1835,-1.2224,-1.2305,-1.2305,-1.2305,-1.2305,-1.2305,-1.2305,-1.2305,-1.2305,-1.2305,-1.2305,-1.2305,-1.2305,-1.2305,-1.2305,-1.2305,-1.2305,-1.2305,-1.2305,-1.2305,-1.2305,-1.2305,-1.2305,-1.2305,-1.2305,-1.2305,-1.2305,-1.2305,-1.2305,-1.2305,-1.2305,-1.2305,-1.2305,-1.2305,-1.2305,-1.2305,-1.2305,-1.2305,-1.2305,-1.2305,-1.2305,-1.2305,-1.2305,-1.2305,-1.2305,-0.5739,-0.5459,-0.5063,-0.4975,-0.4884,-0.461,-0.4166,0.0,-0.3787,-0.2977,0.0,-0.2698,-0.2698,0.0,0.0,-0.331,-0.2955,-0.2598,-0.2418,-0.162,-0.0903,-0.0271,0.0271,0.0722,0.09,0.1978,0.3142,0.43,0.4028,0.3757,0.3758,0.2864,0.1971,0.1166,0.0718,0.0269,0.0,0.0,0.0,0.0,-0.0718,-0.1256,-0.1884,-0.3405,-0.4567,-0.5455,-0.6222,-0.6606,-0.6715,-0.6563,-0.6413,-0.6285,-0.6268,-0.6338,-0.6338,-0.6338,-0.6338,-0.6338,-0.6338,-0.6563,-0.6942,-0.7553,-0.8846,-1.0363,-1.1037,-1.1552,-1.1922,-1.2224,-1.2305,-1.2305,-1.2305,-1.2305,-1.2305,-1.2305,-1.2305,-1.2305,-1.2305,-1.2305,-1.2305,-1.2305,-1.2305,-1.2305,-1.2305,-1.2305,-1.2305,-1.2305,-1.2305,-1.2305,-1.2305,-1.2305,-1.2305,-1.2305,-1.2305,-1.2305,-1.2305,-1.2305,-1.2305,-1.2305,-1.2305,-1.2305,-1.2305,-1.2305,-1.2305,-1.2305,-1.2305,-1.2305,-1.2305,-1.2305,-1.2305,-1.2305,-1.2305,-1.2305,-0.6542,-0.6301,0.0,0.0,0.0,0.0,-0.5198,0.0,-0.4835,0.0,0.0,0.0,0.0,0.0,0.0,0.0,-0.4028,-0.3673,0.0,0.0,-0.1883,-0.0897,0.0,0.0,0.0897,0.1524,0.2152,0.2778,0.2776,0.2686,0.2598,0.2061,0.1434,0.0897,0.0538,0.0269,0.0,0.0,-0.009,-0.0269,-0.0807,-0.1614,-0.251,-0.3762,-0.4802,-0.5706,-0.6344,-0.6619,-0.6563,-0.6498,-0.639,-0.6338,-0.6338,-0.6338,-0.6338,-0.6338,-0.6338,-0.6338,-0.6338,-0.6563,-0.7092,-0.8313,-0.9528,-1.0588,-1.1248,-1.1774,-1.215,-1.2305,-1.2305,-1.2305,-1.2305,-1.2305,-1.2305,-1.2305,-1.2305,-1.2305,-1.2305,-1.2305,-1.2305,-1.2305,-1.2305,-1.2305,-1.2305,-1.2305,-1.2305,-1.2305,-1.2305,-1.2305,-1.2305,-1.2305,-1.2305,-1.2305,-1.2305,-1.2305,-1.2305,-1.2305,-1.2305,-1.2305,-1.2305,-1.2305,-1.2305,-1.2305,-1.2305,-1.2305,-1.2305,-1.2305,-1.2305,-1.2305,-1.2305,-1.2305,-1.2305,-1.2305,-0.7241,0.0,0.0,0.0,0.0,0.0,0.0,0.0,0.0,0.0,0.0,0.0,0.0,0.0,-0.5277,-0.5364,0.0,-0.4746,-0.4654,-0.3939,-0.2955,-0.1613,0.0,0.0,0.0,0.0897,0.1166,0.1615,0.1703,0.1703,0.1615,0.1345,0.0987,0.0628,0.0448,0.018,0.0,0.0,-0.009,-0.0448,-0.0987,-0.1882,-0.2957,-0.4119,-0.5041,-0.5886,-0.6452,-0.6546,-0.6468,-0.643,-0.6356,-0.6338,-0.6338,-0.6338,-0.6338,-0.6338,-0.6338,-0.6338,-0.6338,-0.6641,-0.7395,-0.8685,-0.9744,-1.0582,-1.1323,-1.1922,-1.2311,-1.2305,-1.2305,-1.2305,-1.2305,-1.2305,-1.2305,-1.2305,-1.2305,-1.2305,-1.2305,-1.2305,-1.2305,-1.2305,-1.2305,-1.2305,-1.2305,-1.2305,-1.2305,-1.2305,-1.2305,-1.2305,-1.2305,-1.2305,-1.2305,-1.2305,-1.2305,-1.2305,-1.2305,-1.2305,-1.2305,-1.2305,-1.2305,-1.2305,-1.2305,-1.2305,-1.2305,-1.2305,-1.2305,-1.2305,-1.2305,-1.2305,-1.2305,-1.2305,-1.2305,-1.2305,0.0,0.0,0.0,-0.76,0.0,0.0,0.0,0.0,-0.6615,0.0,0.0,0.0,0.0,0.0,-0.6169,-0.6343,-0.6169,0.0,0.0,-0.5095,-0.4115,-0.2597,-0.1613,0.0,0.0,0.0,0.0359,0.1076,0.0897,0.0897,0.1076,0.0718,0.0448,0.0448,0.018,0.0,0.0,0.0,-0.009,-0.0448,-0.1345,-0.2152,-0.2957,-0.4654,-0.5571,-0.5966,-0.6434,-0.6617,-0.6461,-0.6325,-0.6342,-0.6338,-0.6338,-0.6338,-0.6338,-0.6338,-0.6338,-0.6338,-0.6338,-0.6949,-0.7855,-0.8514,-0.9422,-1.0501,-1.1403,-1.1942,-1.2325,-1.2311,-1.2305,-1.2305,-1.2305,-1.2305,-1.2305,-1.2305,-1.2305,-1.2305,-1.2305,-1.2305,-1.2305,-1.2305,-1.2305,-1.2305,-1.2305,-1.2305,-1.2305,-1.2305,-1.2305,-1.2305,-1.2305,-1.2305,-1.2305,-1.2305,-1.2305,-1.2305,-1.2305,-1.2305,-1.2305,-1.2305,-1.2305,-1.2305,-1.2305,-1.2305,-1.2305,-1.2305,-1.2305,-1.2305,-1.2305,-1.2305,-1.2305,-1.2305,-1.2305,-1.2305,0.0,0.0,-0.7577,-0.7472,0.0,0.0,0.0,0.0,0.0,0.0,0.0,0.0,0.0,-0.6789,-0.6789,-0.6874,-0.67,-0.6526,0.0,-0.5808,-0.5006,-0.4024,-0.2776,-0.1703,0.0,0.0,-0.0269,0.009,0.0179,0.0269,0.0359,0.018,0.018,0.018,0.009,0.0,0.0,0.0,-0.0269,-0.0897,-0.1525,-0.251,-0.3849,-0.4763,-0.5542,-0.6182,-0.6453,-0.6468,-0.6329,-0.6281,-0.6338,-0.6338,-0.6338,-0.6338,-0.6338,-0.6338,-0.6338,-0.6338,-0.6641,-0.7096,-0.7706,-0.8447,-0.9281,-1.0196,-1.1019,-1.1787,-1.2331,-1.2311,-1.2305,-1.2305,-1.2305,-1.2305,-1.2305,-1.2305,-1.2305,-1.2305,-1.2305,-1.2305,-1.2305,-1.2305,-1.2305,-1.2305,-1.2305,-1.2305,-1.2305,-1.2305,-1.2305,-1.2305,-1.2305,-1.2305,-1.2305,-1.2305,-1.2305,-1.2305,-1.2305,-1.2305,-1.2305,-1.2305,-1.2305,-1.2305,-1.2305,-1.2305,-1.2305,-1.2305,-1.2305,-1.2305,-1.2305,-1.2305,-1.2305,-1.2305,-1.2305,-1.2305,-0.7838,-0.7668,0.0,-0.7397,-0.7255,0.0,-0.7139,0.0,-0.7139,0.0,0.0,0.0,0.0,0.0,-0.7139,-0.7139,-0.6966,-0.6881,0.0,-0.6346,-0.5899,-0.5275,-0.3937,-0.2686,-0.1882,-0.1345,-0.0897,-0.0538,-0.0269,-0.009,0.0,0.0,0.0,0.0,0.0,0.0,0.0,-0.009,-0.0449,-0.1076,-0.1883,-0.2957,-0.4295,-0.5075,-0.5738,-0.6284,-0.6458,-0.639,-0.6338,-0.6338,-0.6338,-0.6338,-0.6338,-0.6338,-0.6338,-0.6338,-0.6338,-0.6338,-0.6791,-0.7096,-0.748,-0.8219,-0.8974,-0.9653,-1.0783,-1.1632,-1.2264,-1.2311,-1.2305,-1.2305,-1.2305,-1.2305,-1.2305,-1.2305,-1.2305,-1.2305,-1.2305,-1.2305,-1.2305,-1.2305,-1.2305,-1.2305,-1.2305,-1.2305,-1.2305,-1.2305,-1.2305,-1.2305,-1.2305,-1.2305,-1.2305,-1.2305,-1.2305,-1.2305,-1.2305,-1.2305,-1.2305,-1.2305,-1.2305,-1.2305,-1.2305,-1.2305,-1.2305,-1.2305,-1.2305,-1.2305,-1.2305,-1.2305,-1.2305,-1.2305,-1.2305,-1.2305]}]]